[[{"header":{"parameterUnit":"m.s-1","parameterCategory":1,"la1":30.6,"la2":29.2853,"lo1":-89.7004,"lo2":-87.6739,"dy":0.0162,"dx":0.0183,"nx":112,"ny":82,"refTime":"2026-04-15T12:00:00:Z","depth":0,"parameterNumber":2,"parameterNumberName":"U-component_of_WINDS"},"data":[0.0,0.0,0.0,0.0,0.0,0.0,0.0,0.0,0.0,0.0,0.0,0.0,0.0,0.0,0.0,0.0,0.0,0.0,0.0,0.0,0.0,0.0,0.0,0.0,0.0,0.0,0.0,0.0,0.0,0.0,0.0,0.0,0.0,0.0,0.0,0.0,0.0,0.0,0.0,0.0,0.0,0.0,0.0,0.0,0.0,0.0,0.0,0.0,0.0,0.0,0.0,0.0,0.0,0.0,0.0,0.0,0.0,0.0,0.0,0.0,0.0,0.0,0.0,0.0,0.0,0.0,0.0,0.0,0.0,0.0,0.0,0.0,0.0,0.0,0.0,0.0,0.0,0.0,0.0,0.0,0.0,0.0,0.0,0.0,0.0,0.0,0.0,0.0,0.0,0.0,-0.492,-0.5567,-0.6651,-0.7258,-0.7083,-0.7227,-0.674,-0.535,0.0,0.0,0.0,0.0,0.0,0.0,0.0,0.0,0.0,0.0,0.0,0.0,0.0,0.0,0.0,0.0,0.0,0.0,0.0,0.0,0.0,0.0,0.0,0.0,0.0,0.0,0.0,0.0,0.0,0.0,0.0,0.0,0.0,0.0,0.0,0.0,0.0,0.0,0.0,0.0,0.0,0.0,0.0,0.0,0.0,0.0,0.0,0.0,0.0,0.0,0.0,0.0,0.0,0.0,0.0,0.0,0.0,0.0,0.0,0.0,0.0,0.0,0.0,0.0,0.0,0.0,0.0,0.0,0.0,0.0,0.0,0.0,0.0,0.0,0.0,0.0,0.0,0.0,0.0,0.0,0.0,0.0,0.0,0.0,0.0,0.0,0.0,0.0,0.0,0.0,0.0,0.0,0.0,0.0,0.0,0.0,0.0,0.0,0.0,0.0,0.0,0.0,0.0,0.0,-0.5449,-0.6558,-0.6854,-0.696,-0.6927,-0.6952,-0.6447,-0.5209,0.0,0.0,0.0,0.0,0.0,0.0,0.0,0.0,0.0,0.0,0.0,0.0,0.0,0.0,0.0,0.0,0.0,0.0,0.0,0.0,0.0,0.0,0.0,0.0,0.0,0.0,0.0,0.0,0.0,0.0,0.0,0.0,0.0,0.0,0.0,0.0,0.0,0.0,0.0,0.0,0.0,0.0,0.0,0.0,0.0,0.0,0.0,0.0,0.0,0.0,0.0,0.0,0.0,0.0,0.0,0.0,0.0,0.0,0.0,0.0,0.0,0.0,0.0,0.0,0.0,0.0,0.0,0.0,0.0,0.0,0.0,0.0,0.0,0.0,0.0,0.0,0.0,0.0,0.0,0.0,0.0,0.0,0.0,0.0,0.0,0.0,0.0,0.0,0.0,0.0,0.0,0.0,0.0,0.0,0.0,0.0,0.0,0.0,0.0,0.0,0.0,0.0,0.0,-0.4812,-0.5607,-0.6768,-0.6908,-0.6908,-0.6908,-0.6908,-0.6378,-0.5177,-0.5212,0.0,0.0,0.0,0.0,0.0,0.0,0.0,0.0,0.0,0.0,0.0,0.0,0.0,0.0,0.0,0.0,0.0,0.0,0.0,0.0,0.0,0.0,0.0,0.0,0.0,0.0,0.0,0.0,0.0,0.0,0.0,0.0,0.0,0.0,0.0,0.0,0.0,0.0,0.0,0.0,0.0,0.0,0.0,0.0,0.0,0.0,0.0,0.0,0.0,0.0,0.0,0.0,0.0,0.0,0.0,0.0,0.0,0.0,0.0,0.0,0.0,0.0,0.0,0.0,0.0,0.0,0.0,0.0,0.0,0.0,0.0,0.0,0.0,0.0,0.0,0.0,0.0,0.0,0.0,0.0,0.0,0.0,0.0,0.0,0.0,0.0,0.0,0.0,0.0,0.0,0.0,0.0,0.0,0.0,0.0,0.0,0.0,0.0,0.0,0.0,0.0,0.0,-0.5156,-0.564,-0.6776,-0.6908,-0.6908,-0.6908,-0.6768,-0.6226,-0.5164,-0.4964,0.0,0.0,0.0,0.0,0.0,0.0,0.0,0.0,0.0,0.0,0.0,0.0,0.0,0.0,0.0,0.0,0.0,0.0,0.0,0.0,0.0,0.0,0.0,0.0,0.0,0.0,0.0,0.0,0.0,0.0,0.0,0.0,0.0,0.0,0.0,0.0,0.0,0.0,0.0,0.0,0.0,0.0,0.0,0.0,0.0,0.0,0.0,0.0,0.0,0.0,0.0,0.0,0.0,0.0,0.0,0.0,0.0,0.0,0.0,0.0,0.0,0.0,0.0,0.0,0.0,0.0,0.0,0.0,0.0,0.0,0.0,0.0,0.0,0.0,0.0,0.0,0.0,0.0,0.0,0.0,0.0,0.0,0.0,0.0,0.0,0.0,0.0,0.0,0.0,0.0,0.0,0.0,0.0,0.0,0.0,0.0,0.0,0.0,0.0,0.0,0.0,0.0,-0.5156,-0.564,-0.6776,-0.6908,-0.6908,-0.6908,-0.6378,-0.5787,-0.5138,-0.4572,0.0,0.0,0.0,0.0,0.0,0.0,0.0,0.0,0.0,0.0,0.0,0.0,0.0,0.0,0.0,0.0,0.0,0.0,0.0,0.0,0.0,0.0,0.0,0.0,0.0,0.0,0.0,0.0,0.0,0.0,0.0,0.0,0.0,0.0,0.0,0.0,0.0,0.0,0.0,0.0,0.0,0.0,0.0,0.0,0.0,0.0,0.0,0.0,0.0,0.0,0.0,0.0,0.0,0.0,0.0,0.0,0.0,0.0,0.0,0.0,0.0,0.0,0.0,0.0,0.0,0.0,0.0,0.0,0.0,0.0,0.0,0.0,0.0,0.0,0.0,0.0,0.0,0.0,0.0,0.0,0.0,0.0,0.0,0.0,0.0,0.0,0.0,0.0,0.0,0.0,0.0,0.0,0.0,0.0,0.0,0.0,0.0,0.0,0.0,0.0,0.0,0.0,-0.5156,-0.564,-0.6776,-0.6908,-0.6908,-0.6908,-0.6694,-0.6148,-0.5164,0.0,0.0,0.0,0.0,0.0,0.0,0.0,0.0,0.0,0.0,0.0,0.0,0.0,0.0,0.0,0.0,0.0,0.0,0.0,0.0,0.0,0.0,0.0,0.0,0.0,0.0,0.0,0.0,0.0,0.0,0.0,0.0,0.0,0.0,0.0,0.0,0.0,0.0,0.0,0.0,0.0,0.0,0.0,0.0,0.0,0.0,0.0,0.0,0.0,0.0,0.0,0.0,0.0,0.0,0.0,0.0,0.0,0.0,0.0,0.0,0.0,0.0,0.0,0.0,0.0,0.0,0.0,0.0,0.0,0.0,0.0,0.0,0.0,0.0,0.0,0.0,0.0,0.0,0.0,0.0,0.0,0.0,0.0,0.0,0.0,0.0,0.0,0.0,0.0,0.0,0.0,0.0,0.0,0.0,0.0,0.0,0.0,0.0,0.0,0.0,0.0,0.0,-0.5068,-0.5459,-0.5916,-0.6633,-0.6719,-0.6616,-0.6377,-0.6178,-0.5724,-0.4892,0.0,0.0,0.0,0.0,0.0,0.0,0.0,0.0,0.0,0.0,0.0,0.0,0.0,0.0,0.0,0.0,0.0,0.0,0.0,0.0,0.0,0.0,0.0,0.0,0.0,0.0,0.0,0.0,0.0,0.0,0.0,0.0,0.0,0.0,0.0,0.0,0.0,0.0,0.0,0.0,0.0,0.0,0.0,0.0,0.0,0.0,0.0,0.0,0.0,0.0,0.0,0.0,0.0,0.0,0.0,0.0,0.0,0.0,0.0,0.0,0.0,0.0,0.0,0.0,0.0,0.0,0.0,0.0,0.0,0.0,0.0,0.0,0.0,0.0,0.0,0.0,0.0,0.0,0.0,0.0,0.0,0.0,0.0,0.0,0.0,0.0,0.0,0.0,0.0,0.0,0.0,0.0,0.0,0.0,0.0,0.0,0.0,0.0,0.0,0.0,0.0,0.0,-0.5329,-0.6089,-0.651,-0.6311,-0.629,-0.5997,-0.5271,-0.4651,-0.4302,0.0,0.0,0.0,0.0,0.0,0.0,0.0,0.0,0.0,0.0,0.0,0.0,0.0,0.0,0.0,0.0,0.0,0.0,0.0,0.0,0.0,0.0,0.0,0.0,0.0,0.0,0.0,0.0,0.0,0.0,0.0,0.0,0.0,0.0,0.0,0.0,0.0,0.0,0.0,0.0,0.0,0.0,0.0,0.0,0.0,0.0,0.0,0.0,0.0,0.0,0.0,0.0,0.0,0.0,0.0,0.0,0.0,0.0,0.0,0.0,0.0,0.0,0.0,0.0,0.0,0.0,0.0,0.0,0.0,0.0,0.0,0.0,0.0,0.0,0.0,0.0,0.0,0.0,0.0,0.0,0.0,0.0,0.0,0.0,0.0,0.0,0.0,0.0,0.0,0.0,0.0,0.0,0.0,0.0,0.0,0.0,0.0,0.0,0.0,0.0,0.0,0.0,0.0,-0.4623,-0.4985,-0.5316,-0.5639,-0.5667,-0.558,-0.5361,-0.5179,-0.4867,-0.4407,0.0,0.0,0.0,0.0,0.0,0.0,0.0,0.0,0.0,0.0,0.0,0.0,0.0,0.0,0.0,0.0,0.0,0.0,0.0,0.0,0.0,0.0,0.0,0.0,0.0,0.0,0.0,0.0,0.0,0.0,0.0,0.0,0.0,0.0,0.0,0.0,0.0,0.0,0.0,0.0,0.0,0.0,0.0,0.0,0.0,0.0,0.0,0.0,0.0,0.0,0.0,0.0,0.0,0.0,0.0,0.0,0.0,0.0,0.0,0.0,0.0,0.0,0.0,0.0,0.0,0.0,0.0,0.0,0.0,0.0,0.0,0.0,0.0,0.0,0.0,0.0,0.0,0.0,0.0,0.0,0.0,0.0,0.0,0.0,0.0,0.0,0.0,0.0,0.0,0.0,0.0,0.0,0.0,0.0,0.0,0.0,0.0,0.0,0.0,0.0,0.0,0.0,-0.4523,-0.4909,-0.5159,-0.5165,-0.5168,-0.5048,-0.4746,-0.4727,-0.4546,-0.4143,0.0,0.0,0.0,0.0,0.0,0.0,0.0,0.0,0.0,0.0,0.0,0.0,0.0,0.0,0.0,0.0,0.0,0.0,0.0,0.0,0.0,0.0,0.0,0.0,0.0,0.0,0.0,0.0,0.0,0.0,0.0,0.0,0.0,0.0,0.0,0.0,0.0,0.0,0.0,0.0,0.0,0.0,0.0,0.0,0.0,0.0,0.0,0.0,0.0,0.0,0.0,0.0,0.0,0.0,0.0,0.0,0.0,0.0,0.0,0.0,0.0,0.0,0.0,0.0,0.0,0.0,0.0,0.0,0.0,0.0,0.0,0.0,0.0,0.0,0.0,0.0,0.0,0.0,0.0,0.0,0.0,0.0,0.0,0.0,0.0,0.0,0.0,0.0,0.0,0.0,0.0,0.0,0.0,0.0,0.0,0.0,0.0,0.0,0.0,0.0,0.0,0.0,-0.4721,-0.5356,-0.5541,-0.4798,-0.4721,-0.4438,-0.3771,-0.3717,-0.3713,-0.3705,0.0,0.0,0.0,0.0,0.0,0.0,0.0,0.0,0.0,0.0,0.0,0.0,0.0,0.0,0.0,0.0,0.0,0.0,0.0,0.0,0.0,0.0,0.0,0.0,0.0,0.0,0.0,0.0,0.0,0.0,0.0,0.0,0.0,0.0,0.0,0.0,0.0,0.0,0.0,0.0,0.0,0.0,0.0,0.0,0.0,0.0,0.0,0.0,0.0,0.0,0.0,0.0,0.0,0.0,0.0,0.0,0.0,0.0,0.0,0.0,-0.5899,-0.5755,0.0,0.0,0.0,0.0,0.0,0.0,0.0,0.0,0.0,0.0,0.0,0.0,0.0,0.0,0.0,0.0,0.0,0.0,0.0,0.0,0.0,0.0,0.0,0.0,0.0,0.0,0.0,0.0,0.0,0.0,0.0,0.0,0.0,0.0,0.0,0.0,0.0,0.0,0.0,0.0,-0.4022,-0.426,-0.4341,-0.4114,-0.4091,-0.4025,-0.3873,-0.3855,-0.384,-0.3779,-0.375,0.0,0.0,0.0,0.0,0.0,0.0,0.0,0.0,0.0,0.0,0.0,0.0,0.0,0.0,0.0,0.0,0.0,0.0,0.0,0.0,0.0,0.0,0.0,0.0,0.0,0.0,0.0,0.0,0.0,0.0,0.0,0.0,0.0,0.0,0.0,0.0,0.0,0.0,0.0,0.0,0.0,0.0,0.0,0.0,0.0,0.0,0.0,0.0,0.0,0.0,0.0,0.0,0.0,0.0,0.0,0.0,0.0,0.0,0.0,-0.7048,-0.6512,0.0,0.0,0.0,0.0,0.0,0.0,0.0,0.0,0.0,0.0,0.0,0.0,0.0,0.0,0.0,0.0,0.0,0.0,0.0,0.0,0.0,0.0,0.0,0.0,0.0,0.0,0.0,0.0,0.0,0.0,0.0,0.0,0.0,0.0,0.0,0.0,0.0,0.0,0.0,0.0,-0.4283,-0.4111,-0.3941,-0.3909,-0.3906,-0.3906,-0.3906,-0.3906,-0.3884,-0.3851,-0.3821,0.0,0.0,0.0,0.0,0.0,0.0,0.0,0.0,0.0,0.0,0.0,0.0,0.0,0.0,0.0,0.0,0.0,0.0,0.0,0.0,0.0,0.0,0.0,0.0,0.0,0.0,0.0,0.0,0.0,0.0,0.0,0.0,0.0,0.0,0.0,0.0,0.0,0.0,0.0,0.0,0.0,0.0,0.0,0.0,0.0,0.0,0.0,0.0,0.0,0.0,0.0,0.0,0.0,-0.8666,-0.9337,-1.1079,-1.0463,-1.0514,-1.0961,-0.852,-0.7735,-0.8132,-0.7392,0.0,0.0,0.0,0.0,0.0,0.0,0.0,0.0,0.0,0.0,0.0,0.0,0.0,0.0,0.0,0.0,0.0,0.0,0.0,0.0,0.0,0.0,-0.5987,-0.5413,-0.5695,-0.5782,-0.4616,0.0,0.0,0.0,0.0,0.0,0.0,0.0,0.0,0.0,0.0,0.0,-0.4683,-0.4264,-0.3913,-0.3906,-0.3906,-0.3906,-0.3906,-0.3906,-0.3906,-0.3906,-0.3844,-0.384,0.0,0.0,0.0,0.0,0.0,0.0,0.0,0.0,0.0,0.0,0.0,0.0,0.0,0.0,0.0,0.0,0.0,0.0,0.0,0.0,0.0,0.0,0.0,0.0,0.0,0.0,0.0,0.0,0.0,0.0,0.0,0.0,-0.5586,-0.6924,0.0,0.0,0.0,0.0,0.0,0.0,0.0,0.0,0.0,0.0,0.0,0.0,0.0,-0.892,-0.9562,-1.0199,-1.0622,-1.0815,-1.0714,-1.0815,-1.1103,-1.0994,-1.1011,-1.1086,-1.069,0.0,-0.9652,-0.8914,0.0,0.0,0.0,0.0,0.0,0.0,0.0,0.0,0.0,0.0,0.0,0.0,0.0,0.0,0.0,0.0,0.0,0.0,0.0,0.0,0.0,0.0,-0.6222,-0.6018,-0.6033,-0.6048,-0.5859,-0.5324,-0.4696,-0.4116,-0.3991,-0.4181,0.0,0.0,0.0,0.0,0.0,0.0,-0.4186,-0.4047,-0.3964,-0.3909,-0.3906,-0.3906,-0.3906,-0.3906,-0.3906,-0.3906,-0.3898,-0.3898,-0.3906,-0.3898,0.0,0.0,0.0,0.0,0.0,0.0,0.0,0.0,0.0,0.0,0.0,0.0,0.0,0.0,0.0,0.0,0.0,0.0,0.0,0.0,0.0,0.0,0.0,0.0,0.0,0.0,0.0,0.0,0.0,-0.6168,-0.6693,-0.7369,-0.7087,-0.6824,0.0,0.0,0.0,0.0,0.0,0.0,0.0,0.0,0.0,-0.9624,-0.9969,-1.029,-1.0622,-1.0944,-1.134,-1.1773,-1.1773,-1.2212,-1.3007,-1.2575,-1.2626,-1.299,-1.2575,-1.1966,-1.1224,-1.0463,-0.9939,-0.9658,0.0,0.0,0.0,0.0,-0.8715,-0.8688,-0.8494,-0.848,-0.8485,-0.808,0.0,0.0,0.0,0.0,0.0,0.0,0.0,-0.8033,-0.797,-0.8273,-0.8368,-0.7447,-0.7511,-0.7588,-0.6824,-0.6403,-0.5869,-0.4816,-0.4586,-0.4657,-0.4946,-0.4693,0.0,0.0,0.0,-0.4898,-0.4605,-0.4555,-0.4393,-0.3939,-0.3906,-0.3906,-0.3906,-0.3906,-0.3906,-0.3906,-0.3906,-0.3906,-0.3906,-0.3906,-0.3906,0.0,0.0,0.0,0.0,0.0,0.0,0.0,0.0,0.0,0.0,0.0,0.0,0.0,0.0,0.0,0.0,0.0,0.0,0.0,0.0,0.0,0.0,0.0,0.0,0.0,0.0,0.0,0.0,-0.7118,-0.7658,-0.8063,-0.8046,-0.7906,0.0,0.0,0.0,0.0,0.0,0.0,-0.9428,-0.998,-1.0633,-1.1383,-1.1773,-1.1975,-1.1975,-1.2162,-1.2551,-1.3143,-1.3143,-1.3718,-1.4757,-1.4217,-1.4157,-1.447,-1.3921,-1.3269,-1.2525,-1.1722,-1.1253,-1.1032,-1.1082,-1.1068,-1.0997,-1.0768,-1.0684,-1.0653,-1.0463,-1.0423,-1.0375,-0.9865,-0.9341,-0.8754,-0.8017,0.0,0.0,0.0,0.0,-0.9614,-0.9592,-0.9978,-1.0097,-0.8953,-0.9072,-0.918,-0.8234,-0.7847,-0.7229,-0.5653,-0.5313,-0.5321,-0.549,-0.5094,0.0,-0.6039,-0.5798,-0.5448,-0.5279,-0.5248,-0.5047,-0.4501,-0.4283,-0.4174,-0.4174,-0.4002,-0.3906,-0.3906,-0.3906,-0.3906,-0.3906,-0.3906,-0.3906,-0.3906,0.0,0.0,0.0,0.0,0.0,0.0,0.0,0.0,0.0,0.0,0.0,0.0,0.0,0.0,0.0,0.0,0.0,0.0,0.0,0.0,0.0,0.0,0.0,0.0,0.0,0.0,0.0,0.0,0.0,-0.9596,-0.9659,0.0,0.0,0.0,0.0,-0.9214,-0.9831,-1.0488,-1.0964,-1.1011,-1.14,-1.2212,-1.3591,-1.4334,-1.4334,-1.502,-1.5392,-1.5426,-1.5426,-1.546,-1.5544,-1.5511,-1.5138,-1.4504,-1.447,-1.4022,-1.3295,-1.2558,-1.1684,-1.0828,-1.1025,-1.0982,-1.0821,-1.0864,-1.0879,-1.0864,-1.0737,-1.0767,-1.0855,-1.0838,-1.0671,-1.0415,-1.005,-0.9949,0.0,0.0,-1.0129,-1.022,-1.0101,-1.0176,-1.0293,-1.0295,-1.0319,-1.0375,-1.0491,-0.9874,-0.865,-0.6476,-0.6048,-0.6222,-0.6805,0.0,-0.6876,-0.6937,-0.6921,-0.6666,-0.6025,-0.5955,-0.5935,-0.5899,-0.5334,-0.4952,-0.4952,-0.4302,-0.3906,-0.3906,-0.3906,-0.3906,-0.3906,-0.3906,-0.3906,-0.3906,-0.3961,0.0,0.0,0.0,0.0,0.0,0.0,0.0,0.0,0.0,0.0,0.0,0.0,0.0,0.0,0.0,0.0,0.0,0.0,0.0,0.0,0.0,0.0,0.0,0.0,0.0,0.0,0.0,0.0,-1.1315,-1.1354,0.0,-1.0873,-1.1553,-1.1654,-1.0806,-1.1404,-1.203,-1.254,-1.3024,-1.365,-1.4394,-1.4936,-1.5206,-1.5206,-1.5477,-1.5595,-1.5595,-1.5595,-1.5859,-1.6282,-1.5825,-1.5723,-1.5859,-1.4909,-1.4351,-1.4056,-1.332,-1.2789,-1.248,-1.2552,-1.2536,-1.2463,-1.2357,-1.2323,-1.2298,-1.212,-1.2077,-1.2055,-1.1622,-1.1027,-1.0447,-1.0324,-1.0199,-1.0215,-1.0787,-1.0968,-1.114,-1.1689,-1.1864,-1.1813,-1.1406,-1.1301,-1.1197,-1.0781,-1.0465,-0.9999,-0.9221,-0.7809,-0.6797,-0.6964,-0.668,-0.6548,-0.6943,-0.7034,-0.6816,-0.616,-0.6441,-0.6527,-0.6057,-0.5788,-0.5465,-0.5044,-0.476,-0.4431,-0.3993,-0.3963,-0.3963,-0.3963,-0.3963,-0.3963,-0.3963,-0.3988,-0.3988,0.0,0.0,0.0,0.0,0.0,0.0,0.0,0.0,0.0,0.0,0.0,0.0,0.0,0.0,0.0,0.0,0.0,0.0,0.0,0.0,0.0,0.0,0.0,0.0,0.0,-1.0553,-1.1363,-1.2176,-1.2456,-1.2461,-1.2184,-1.2824,-1.3008,-1.2426,-1.3275,-1.3916,-1.4151,-1.4853,-1.546,-1.596,-1.6204,-1.6339,-1.6339,-1.6339,-1.6339,-1.6339,-1.6339,-1.6593,-1.7061,-1.6559,-1.6458,-1.6648,-1.5663,-1.5105,-1.4825,-1.4336,-1.3997,-1.3743,-1.3498,-1.3354,-1.3286,-1.3225,-1.3199,-1.3181,-1.3049,-1.3004,-1.2922,-1.2401,-1.1816,-1.1308,-1.1224,-1.1075,-1.1025,-1.1608,-1.1716,-1.1826,-1.2511,-1.2697,-1.2622,-1.2316,-1.2245,-1.2114,-1.1702,-1.1381,-1.1177,-1.1177,-0.962,-0.8197,-0.7873,-0.7484,-0.7254,-0.7347,-0.7412,-0.7277,-0.6831,-0.7154,-0.7246,-0.6756,-0.6504,-0.6199,-0.5747,-0.5474,-0.5054,-0.4375,-0.433,-0.4238,-0.401,-0.4223,-0.4223,-0.401,-0.4318,-0.4307,-0.3966,0.0,0.0,0.0,0.0,0.0,0.0,0.0,0.0,0.0,0.0,0.0,0.0,0.0,0.0,0.0,0.0,0.0,0.0,0.0,0.0,0.0,0.0,0.0,-0.9881,-1.0569,-1.1366,-1.2178,-1.2916,-1.3078,-1.2297,-1.4353,-1.5246,-1.4058,-1.5378,-1.609,-1.5748,-1.6374,-1.6733,-1.6733,-1.7422,-1.78,-1.78,-1.78,-1.78,-1.78,-1.78,-1.78,-1.78,-1.78,-1.7405,-1.6733,-1.6716,-1.6282,-1.5629,-1.5612,-1.5189,-1.4453,-1.3726,-1.3294,-1.3128,-1.3329,-1.3396,-1.3396,-1.3396,-1.3413,-1.3396,-1.3206,-1.3151,-1.3132,-1.2941,-1.2732,-1.2588,-1.2588,-1.2431,-1.2303,-1.249,-1.254,-1.2616,-1.3012,-1.3102,-1.3155,-1.3354,-1.274,-1.214,-1.214,-1.1414,-1.0505,-0.9601,-0.9444,-0.9147,-0.8274,-0.8139,0.0,-0.8106,-0.8111,-0.8102,-0.8099,-0.7516,-0.7117,-0.7102,-0.642,-0.5722,-0.5051,-0.499,-0.4684,-0.4028,-0.4623,-0.4669,-0.4013,-0.4902,-0.4872,-0.3906,0.0,0.0,0.0,0.0,0.0,0.0,0.0,0.0,0.0,0.0,0.0,0.0,0.0,0.0,0.0,0.0,0.0,0.0,0.0,0.0,0.0,-1.0204,-1.0945,-1.1536,-1.2215,-1.2961,-1.3774,-1.4566,-1.4946,-1.4725,-1.5832,-1.6312,-1.5691,-1.6482,-1.6857,-1.652,-1.7133,-1.7507,-1.7507,-1.7681,-1.78,-1.78,-1.78,-1.78,-1.78,-1.78,-1.78,-1.78,-1.78,-1.7681,-1.7473,-1.6925,-1.657,-1.635,-1.5825,-1.5477,-1.5223,-1.4496,-1.3844,-1.332,-1.3379,-1.3396,-1.3396,-1.3396,-1.376,-1.4199,-1.4119,-1.4379,-1.4682,-1.4632,-1.447,-1.4319,-1.4319,-1.3885,-1.3478,-1.3671,-1.3334,-1.3002,-1.326,-1.3311,-1.3329,-1.3388,-1.321,-1.3034,-1.3034,-1.2823,-1.2156,-1.0602,-1.0337,-1.0071,-0.9306,-0.9195,-0.8962,-0.8319,-0.8249,-0.8209,-0.8109,-0.7937,-0.763,-0.7147,-0.6421,-0.5727,-0.5108,-0.4617,-0.4268,-0.4083,-0.4252,-0.4268,-0.4068,-0.4329,-0.428,0.0,0.0,0.0,0.0,0.0,0.0,0.0,0.0,0.0,0.0,0.0,0.0,0.0,0.0,0.0,0.0,0.0,0.0,0.0,0.0,0.0,0.0,-1.1866,-1.2765,-1.3207,-1.3573,-1.4224,-1.5368,-1.5924,-1.62,-1.62,-1.6851,-1.7182,-1.6942,-1.7524,-1.7756,-1.7446,-1.7764,-1.7916,-1.78,-1.78,-1.78,-1.78,-1.7877,-1.7883,-1.78,-1.7894,-1.7883,-1.78,-1.78,-1.78,-1.7783,-1.7354,-1.7162,-1.7128,-1.6695,-1.6339,-1.5994,0.0,0.0,0.0,0.0,-1.4065,-1.4234,-1.3616,-1.4099,-1.4909,-1.4605,-1.491,-1.5439,-1.5439,-1.529,-1.5134,-1.5134,-1.4531,-1.3941,-1.4159,-1.3641,-1.3146,-1.3346,-1.3396,-1.3396,-1.3396,-1.3396,-1.3396,-1.3396,-1.3396,0.0,-1.2015,-1.1537,-1.0898,-0.9765,-0.9605,-0.931,-0.8492,-0.8332,-0.826,-0.8196,-0.813,-0.7935,-0.7561,-0.7135,0.0,0.0,0.0,-0.4813,-0.4536,-0.4248,0.0,0.0,0.0,0.0,0.0,-0.4294,0.0,0.0,-0.3773,-0.3642,0.0,0.0,0.0,0.0,0.0,0.0,0.0,0.0,0.0,0.0,0.0,0.0,0.0,0.0,0.0,0.0,-1.3889,-1.4856,-1.4979,-1.495,-1.5405,-1.6743,-1.6982,-1.7037,-1.7037,-1.7595,-1.7956,-1.7932,-1.8431,-1.8614,-1.8361,-1.8259,0.0,0.0,0.0,-1.7867,-1.7889,-1.8072,-1.8033,-1.7845,-1.8012,-1.799,-1.78,-1.78,-1.78,-1.78,-1.78,-1.78,-1.78,-1.78,-1.7405,-1.6739,-1.5927,-1.5595,-1.5511,-1.4858,-1.5037,-1.5409,-1.4099,0.0,0.0,-1.496,-1.5257,-1.5849,-1.5849,-1.5731,-1.5558,-1.5475,-1.48,-1.411,-1.4214,-1.3695,-1.3173,-1.3354,-1.3396,-1.3396,-1.3396,-1.3396,-1.3396,-1.3396,-1.3396,-1.3396,-1.3396,-1.2757,-1.1675,-1.0025,-0.9768,-0.9467,-0.8626,-0.8415,-0.8332,-0.8299,-0.8196,0.0,-0.8094,-0.8032,-0.773,-0.7135,-0.648,-0.5834,-0.5239,-0.4644,-0.489,-0.6079,-0.5516,-0.5182,-0.5108,-0.5052,-0.4695,-0.4041,-0.3811,-0.3332,0.0,0.0,0.0,0.0,0.0,0.0,0.0,0.0,0.0,0.0,0.0,0.0,0.0,0.0,0.0,-1.411,-1.5008,-1.601,-1.7249,-1.7406,-1.7282,-1.6945,-1.7458,-1.7869,-1.7869,-1.8562,-1.8943,-1.8779,-1.8875,-1.8861,-1.8623,-1.841,-1.832,-1.8356,-1.8218,-1.8205,-1.8365,-1.8398,-1.829,-1.8044,-1.808,0.0,-1.78,-1.78,-1.78,-1.78,-1.78,-1.78,-1.78,-1.78,-1.7715,-1.7445,-1.612,-1.5595,-1.5578,-1.5443,-1.5477,-1.5561,-1.5274,-1.5757,-1.6451,-1.6316,-1.6762,-1.736,-1.736,-1.7349,0.0,-1.6612,-1.5863,-1.5143,-1.46,-1.3885,-1.3346,-1.3388,-1.3396,-1.3396,-1.3396,-1.3396,-1.3396,-1.3396,-1.3396,-1.3396,-1.3396,-1.3253,-1.262,-1.1049,-1.0807,-1.0286,-0.8839,-0.8638,-0.854,-0.8319,-0.8267,-0.8223,-0.8101,-0.7607,-0.7243,-0.7104,-0.648,-0.6048,-0.591,-0.5787,-0.5834,-0.6094,-0.5972,-0.5864,-0.5808,-0.5798,-0.5712,-0.5551,-0.429,-0.3678,0.0,0.0,0.0,0.0,0.0,0.0,0.0,0.0,0.0,0.0,0.0,-1.2199,-1.2962,0.0,-1.5127,-1.5786,-1.6557,-1.7304,-1.7993,-1.8445,-1.8555,-1.8151,-1.8463,-1.8702,-1.8702,-1.8974,-1.9146,-1.9146,-1.9058,-1.8957,-1.887,-1.8725,-1.8614,-1.8548,-1.846,-1.843,-1.8499,-1.8595,-1.8528,-1.83,-1.83,-1.8177,-1.7954,-1.7839,-1.78,-1.78,-1.78,-1.78,-1.78,-1.78,-1.78,-1.7732,-1.6999,-1.6712,-1.6661,-1.6299,-1.6373,-1.661,-1.5866,-1.6323,-1.7196,-1.6824,-1.7202,-1.78,-1.78,-1.78,-1.7715,-1.7354,-1.6441,-1.5511,-1.5155,-1.4234,-1.3396,-1.3396,-1.3396,-1.3396,-1.3396,-1.3396,-1.3396,-1.3396,-1.3396,-1.3396,-1.3396,-1.3396,-1.2888,-1.134,-1.1103,-1.0541,-0.8997,-0.8732,-0.8644,-0.8516,-0.8377,-0.8267,-0.8209,-0.7832,-0.7484,-0.722,-0.6824,-0.6443,-0.611,-0.6094,-0.6094,-0.6094,-0.6095,-0.609,-0.6043,-0.6043,-0.6043,-0.6022,-0.5188,-0.4818,0.0,0.0,0.0,0.0,0.0,0.0,0.0,0.0,-1.0873,-1.1916,-1.3154,-1.4282,-1.5026,-1.5974,-1.6792,-1.725,-1.7985,-1.846,-1.8349,-1.8886,-1.9297,-1.9297,-1.9297,-1.9297,-1.9297,-1.9146,-1.9121,-1.9289,-1.9146,-1.9066,-1.906,-1.9026,-1.8913,-1.8734,-1.8706,-1.866,-1.8625,-1.8789,-1.8762,-1.8571,-1.8571,-1.8428,-1.817,-1.7954,-1.7861,-1.785,-1.7975,-1.8104,-1.8222,-1.807,-1.8003,-1.8003,-1.785,-1.7816,-1.7782,-1.7139,-1.7287,-1.7631,-1.6441,-1.6813,-1.7698,-1.7111,-1.732,-1.78,-1.78,-1.78,-1.7777,-1.7669,-1.6689,-1.5613,-1.5507,-1.4476,-1.3446,-1.3446,-1.3421,-1.3396,-1.3396,-1.3396,-1.3396,-1.3396,-1.3396,-1.3396,-1.3396,-1.3396,-1.2888,-1.134,-1.1103,-1.0561,-0.9083,-0.8924,-0.8937,-0.8913,-0.8721,-0.853,-0.8354,-0.8223,-0.7955,-0.7525,-0.7393,-0.7075,-0.6515,-0.6505,-0.6505,-0.6505,-0.6507,-0.6508,-0.6508,-0.6508,-0.6513,-0.6524,-0.6396,-0.6142,-1.2553,-1.1966,-1.1531,-1.221,-1.1789,-1.1572,0.0,0.0,-1.2763,-1.4361,-1.4839,-1.5178,-1.592,-1.7245,-1.8228,-1.8166,-1.8741,-1.9184,-1.9168,-1.9242,-1.9297,-1.9297,-1.9297,-1.9297,-1.9297,-1.9282,-1.9274,-1.9297,-1.9282,-1.9266,-1.9259,-1.9107,-1.9066,-1.9219,-1.9043,-1.8974,-1.9031,-1.9066,-1.8974,-1.8769,-1.8769,-1.8667,-1.8455,-1.818,-1.8076,-1.8082,-1.8563,-1.9164,-1.9697,-1.9046,-1.8775,-1.8707,-1.8065,-1.7899,-1.8037,-1.777,-1.7732,-1.7783,-1.7614,-1.7665,-1.7783,-1.7698,-1.7732,-1.78,-1.78,-1.78,-1.7692,-1.7223,-1.6455,-1.5675,-1.5199,-1.4332,-1.3573,-1.3573,-1.3495,-1.3396,-1.3396,-1.3396,-1.3396,-1.3396,-1.3396,-1.3396,-1.3396,-1.3396,-1.2888,-1.134,-1.1103,-1.0561,-0.9083,-0.946,-0.9809,-0.9699,-0.9643,-0.9314,-0.854,-0.8351,-0.8248,-0.8189,-0.8169,-0.8073,-0.7878,-0.7929,-0.7973,-0.7973,-0.7969,-0.7973,-0.7973,-0.7973,-0.7999,-0.8045,-0.7911,-0.711,-1.3683,-1.3662,-1.3603,-1.2963,-1.2917,-1.3173,-1.3803,-1.4036,-1.4437,-1.5611,-1.6625,-1.7375,-1.7606,-1.8553,-1.9278,0.0,-1.9281,-1.9419,-1.9419,-1.9357,-1.9297,-1.9297,-1.9297,-1.9297,-1.9297,-1.9297,-1.9297,-1.9297,-1.9297,-1.9297,-1.9297,-1.9227,-1.9212,-1.9303,-1.9214,-1.9182,-1.9216,-1.9681,-1.986,-1.9731,-2.0045,-2.0156,-2.005,-1.9787,-1.9671,-1.9678,-1.974,-2.0044,-2.042,-1.9969,-1.9854,-1.9934,-1.9161,-1.8902,-1.8892,-1.8091,-1.7872,-1.7964,-1.7828,-1.78,-1.78,-1.78,-1.78,-1.7822,-1.7943,-1.7969,-1.796,-1.7887,-1.6951,-1.5923,-1.5695,-1.4689,-1.3726,-1.3726,-1.3603,-1.351,-1.351,-1.3454,-1.3396,-1.3396,-1.3396,-1.3396,-1.3396,-1.3396,-1.2888,-1.134,-1.1103,-1.0724,-0.9675,-0.9804,-1.0108,-1.0411,-1.0058,-0.9643,-0.9294,-0.874,-0.8447,-0.8528,-0.8431,-0.8338,-0.8274,-0.827,-0.8243,-0.8209,-0.8234,-0.8261,-0.8261,-0.8265,-0.8269,-0.8305,-0.82,-0.7819,-1.4566,-1.4587,-1.4529,-1.3718,-1.3975,-1.4474,-1.465,-1.5309,-1.6096,-1.6927,-1.8062,-1.8934,-1.9033,-1.9525,-1.9885,-1.9757,-1.9631,-1.9533,-1.9499,-1.9419,-1.9258,-1.9003,-1.8996,-1.9022,-1.8967,-1.9168,-1.9297,-1.9297,-1.9297,-1.9297,-1.9297,-1.9297,-1.9407,-1.962,-1.962,-1.9732,-1.9967,-2.0543,-2.0792,-2.0741,-2.1115,-2.1309,-2.13,-2.1031,-2.0986,-2.1081,-2.0889,-2.1045,-2.1398,-2.0993,-2.0923,-2.1022,-2.0248,-1.9963,-1.9892,-1.8974,-1.8454,-1.818,-1.8046,-1.7938,-1.7894,-1.796,-1.7938,-1.7921,-1.8139,-1.8211,-1.8252,-1.8514,-1.7576,-1.6491,-1.6312,-1.5243,-1.4167,-1.3941,-1.3734,-1.3605,-1.3605,-1.3486,-1.3396,-1.3396,-1.3396,-1.3396,-1.3396,-1.3396,-1.2888,-1.134,-1.1103,-1.0825,-1.0085,-1.0176,-1.0555,-1.1224,-1.0392,-0.9822,-0.9881,-0.9079,-0.8624,-0.8725,-0.8569,-0.8454,-0.8409,-0.8334,-0.8281,-0.8234,-0.8281,-0.8307,-0.8307,-0.8296,-0.8293,-0.8293,-0.8254,-0.8195,-1.5148,-1.4192,-1.335,-1.4939,-1.5284,-1.547,-1.6242,-1.7003,-1.7776,-1.8633,-1.8852,-1.9118,-1.9829,-1.9979,-1.9961,-1.9817,-1.9744,-1.9657,-1.9513,-1.9492,-1.9159,-1.8239,-1.825,-1.8278,-1.814,-1.8831,-1.9297,-1.9297,-1.9297,-1.9297,-1.9297,-1.9297,-1.9656,-2.0437,-2.0448,-2.0843,-2.1633,-2.1651,-2.1624,-2.1571,-2.158,-2.1598,-2.1589,-2.1309,-2.1441,-2.1873,-2.1861,-2.23,-2.2968,-2.2177,-2.1861,-2.1785,-2.104,-2.088,-2.1036,-2.0799,-1.977,-1.8485,-1.8475,-1.83,-1.8121,-1.8388,-1.83,-1.8149,-1.8408,-1.8485,-1.8524,-1.8732,-1.8191,-1.7431,-1.6825,-1.5969,-1.507,-1.4285,-1.3843,-1.3605,-1.3605,-1.3486,-1.3396,-1.3396,-1.3396,-1.3396,-1.3396,-1.3396,-1.2888,-1.134,-1.1103,-1.0825,-1.0085,-1.0616,-1.1381,-1.2158,-1.0772,-0.9881,-1.0071,-0.93,-0.8799,-0.8794,-0.8741,-0.8598,-0.8415,-0.8335,-0.8296,-0.8294,-0.8289,-0.8293,-0.8293,-0.8293,-0.8293,-0.8293,-0.8293,-0.8182,-1.5312,-1.5409,-1.5562,-1.6127,-1.6655,-1.7243,-1.8048,-1.8383,-1.8596,-1.8842,-1.8907,-1.8803,-1.8536,-1.8913,-1.9253,-1.9216,-1.9585,-1.9855,-1.9713,-1.9618,-1.945,-1.9135,-1.9021,0.0,0.0,-1.8784,-1.8826,-1.9268,-1.9297,-1.9297,-1.9297,-1.9297,-1.9675,-2.0466,-2.0503,-2.0906,-2.175,-2.2291,-2.2557,-2.2539,-2.3023,-2.325,-2.3194,-2.3107,-2.3143,-2.3274,-2.3062,-2.3222,-2.3606,-2.3148,-2.3035,-2.3088,-2.2342,-2.2096,-2.2092,-2.1492,-2.0942,-2.0365,-1.952,-1.8858,-1.8378,-1.8475,-1.8445,-1.8408,-1.863,-1.8704,-1.8742,-1.8941,-1.8416,-1.7748,-1.754,-1.6881,-1.6023,-1.5227,-1.4772,-1.4383,-1.3853,-1.3567,-1.3396,-1.3396,-1.3396,-1.3396,-1.3396,-1.3396,-1.2888,-1.134,-1.1103,-1.0856,-1.0164,-1.1555,-1.2555,-1.2381,-1.1375,-1.0764,-1.0824,-0.9655,-0.8931,-0.8936,-0.8823,-0.8722,-0.8598,-0.8444,-0.8341,-0.8296,-0.8302,-0.8293,-0.8293,-0.8293,-0.8293,-0.8293,-0.8261,-0.8195,-1.578,-1.6267,-1.6851,-1.748,-1.7992,-1.857,-1.9414,-1.9317,-1.9011,-1.8942,-1.8716,-1.834,-1.7799,-1.8122,-1.8567,-1.8893,-1.9318,-1.9673,-1.9858,-1.9811,-1.9607,-1.9251,-1.9149,-1.9084,0.0,-1.8657,-1.8635,-1.9257,-1.9297,-1.9297,-1.9297,-1.9565,-2.0115,-2.0941,-2.1245,-2.1795,-2.2657,-2.3162,-2.3428,-2.3428,-2.3922,-2.4094,-2.4044,-2.4044,-2.4016,-2.3986,-2.3774,-2.3785,-2.3917,-2.3739,-2.3739,-2.379,-2.3319,-2.3099,-2.3035,-2.251,-2.2165,-2.1728,-2.0325,-1.9493,-1.9001,-1.8775,-1.8658,-1.863,-1.8852,-1.8905,-1.8932,-1.9062,-1.8733,-1.8262,-1.7972,-1.7527,-1.6849,-1.5766,-1.5245,-1.4785,-1.3971,-1.3589,-1.3396,-1.3396,-1.3396,-1.3396,-1.3396,-1.2939,-1.2237,-1.1255,-1.089,-1.069,-1.0512,-1.1729,-1.2561,-1.2419,-1.1445,-1.0826,-1.0835,-0.9709,-0.9002,-0.9035,-0.888,-0.877,-0.87,-0.8511,-0.8367,-0.8293,-0.8293,-0.8293,-0.8293,-0.8293,-0.8293,-0.8293,-0.8236,-0.8169,-1.6571,-1.6824,-1.7234,-1.8933,-1.9322,-1.9466,-2.0269,-1.9737,-1.9046,-1.8844,-1.8239,-1.7683,-1.749,-1.7556,-1.7902,-1.8747,-1.8881,-1.915,-1.9905,-2.0003,-1.9658,0.0,0.0,0.0,0.0,0.0,-1.877,-1.9265,-1.9297,-1.9315,-1.9352,-2.0089,-2.0914,-2.1831,-2.2611,-2.3391,-2.419,-2.419,-2.419,-2.419,-2.419,-2.417,-2.4103,-2.4103,-2.4074,-2.4006,-2.4006,-2.4006,-2.4006,-2.4006,-2.3947,-2.3907,-2.3907,-2.3876,-2.3806,-2.3806,-2.3371,-2.2546,-2.097,-2.0272,-1.9971,-1.9397,-1.9075,-1.8905,-1.9108,-1.9132,-1.9095,-1.9095,-1.9095,-1.8914,-1.8153,-1.7946,-1.754,-1.5994,-1.5334,-1.483,-1.4023,-1.3624,-1.3396,-1.3396,-1.3396,-1.3396,-1.3396,-1.2126,-1.111,-1.111,-1.0509,-1.0297,-1.0995,-1.1155,-1.15,-1.226,-1.1004,-1.0143,-1.0249,-0.9531,-0.9073,-0.9093,-0.8942,-0.881,-0.8708,-0.8507,-0.8367,-0.8293,-0.8293,-0.8293,-0.8293,-0.8293,-0.8293,-0.8296,-0.8222,-0.8121,-1.8228,-1.8594,-1.8841,-1.9985,-2.0225,-2.0065,-1.9633,-1.9307,-1.8564,-1.6643,-1.6609,-1.6312,-1.4338,-1.5529,-1.6871,-1.7099,-1.817,0.0,-1.9969,-2.003,0.0,-1.9658,0.0,-1.9425,-1.9345,-1.9281,-1.9261,-1.9294,-1.9297,-1.9565,-2.0162,-2.0401,-2.1171,-2.2648,-2.2896,-2.3391,-2.419,-2.419,-2.419,-2.419,-2.419,-2.419,-2.417,-2.417,-2.417,-2.4151,-2.4094,-2.4074,-2.4074,-2.4016,-2.3996,-2.3958,-2.3958,-2.3958,-2.3937,-2.3937,-2.3828,-2.3519,-2.247,-2.1668,-2.1095,-2.0934,-2.0445,-1.993,-1.9984,-1.9584,-1.9095,-1.9095,-1.9095,-1.9059,-1.886,-1.8678,-1.8349,-1.748,-1.6459,-1.548,-1.4841,-1.4002,-1.3396,-1.3396,-1.3396,-1.3396,-1.3396,-1.2162,-1.1162,-1.1162,-1.0094,-0.9344,-0.9537,-1.0557,-1.1377,-1.1634,-1.0766,-1.0427,-1.1039,-1.0353,-0.9623,-0.8998,-0.9375,-0.9326,-0.8643,-0.8479,-0.8367,-0.8293,-0.8293,-0.8293,-0.8293,-0.8293,-0.8278,-0.8222,-0.8106,-0.7986,-1.9028,-1.9553,-1.9939,-2.0475,-2.0273,-1.9853,-1.9363,-1.8337,-1.707,-1.5634,-1.5124,-1.4469,-1.2976,-1.4181,-1.552,-1.5878,0.0,0.0,-1.9511,-1.9901,-2.0084,0.0,-1.9969,0.0,-1.9792,-1.9726,-1.9736,-1.9908,-1.9861,-2.0016,-2.0493,-2.1208,-2.2034,-2.2969,-2.3336,-2.3749,-2.419,-2.419,-2.419,-2.419,-2.419,-2.419,-2.419,-2.419,-2.419,-2.419,-2.4161,-2.4151,-2.4151,-2.4103,-2.4074,-2.4036,-2.4036,-2.4026,-2.3996,-2.3996,-2.3996,-2.3923,-2.3447,-2.2971,-2.2487,-2.1751,-2.1216,-2.0798,-2.0453,-2.0026,-1.9608,-1.9236,-1.9145,-1.9129,-1.9035,-1.8931,-1.8663,-1.7982,-1.6928,-1.5905,-1.5307,-1.4362,-1.3597,-1.3535,-1.3478,-1.3429,-1.3429,-1.2199,-1.1196,-1.1196,-0.9954,-0.9002,-0.9002,-1.0058,-1.0826,-1.0877,-1.0463,-1.0376,-1.0831,-1.0463,-0.9984,-0.9463,-0.9727,-0.9506,-0.8638,-0.8464,-0.8364,-0.8293,-0.8293,-0.8293,-0.8293,-0.8293,-0.8276,-0.8241,-0.8133,-0.8013,-1.9401,-2.0027,-2.0574,-2.0457,-1.9851,-1.9245,-1.9011,-1.7118,-1.534,-1.5107,-1.3873,-1.2727,-1.2412,-1.3262,-1.427,-1.5075,0.0,-1.7923,-1.902,-1.9672,-2.0073,-2.0196,-2.015,-2.0055,-1.9899,-1.9877,-2.0075,-2.0536,-2.0657,-2.0737,-2.0823,-2.2217,-2.3043,-2.3153,-2.3841,-2.419,-2.419,-2.419,-2.4209,-2.4237,-2.4237,-2.4237,-2.4237,-2.4237,-2.4218,-2.419,-2.419,-2.419,-2.419,-2.419,-2.417,-2.4103,-2.4103,-2.4084,-2.4026,-2.4026,-2.4026,-2.4026,-2.4016,-2.4016,-2.3769,-2.2308,-2.1807,-2.1607,-2.0795,-2.0485,-2.023,-1.9429,-1.9211,-1.916,-1.8991,-1.8922,-1.8733,-1.8066,-1.7082,-1.6157,-1.5673,-1.4692,-1.387,-1.3749,-1.363,-1.3553,-1.356,-1.2344,-1.137,-1.1397,-1.011,-0.9154,-0.9154,-0.9675,-1.0088,-1.018,-1.0204,-1.0204,-1.0204,-1.0278,-1.0213,-0.9951,-0.9916,-0.9497,-0.8638,-0.8467,-0.8367,-0.8293,-0.8293,-0.8293,-0.8293,-0.8299,-0.8315,-0.8302,-0.822,-0.8118,-1.9989,-2.0477,-2.0437,-1.9714,-1.9401,-1.8913,-1.7489,-1.6241,0.0,-1.3623,-1.3095,-1.2428,-1.0904,-1.2487,-1.4258,-1.506,-1.6046,-1.7481,-1.9673,-1.9535,-1.9457,0.0,-2.0187,-2.0117,-1.9923,-1.9797,-1.977,-1.9869,-2.1034,-2.1982,-2.2538,-2.2841,-2.3299,-2.3969,-2.4135,-2.419,-2.419,-2.419,-2.4257,-2.4364,-2.4364,-2.4364,-2.4364,-2.4364,-2.4293,-2.419,-2.419,-2.419,-2.419,-2.419,-2.419,-2.418,-2.418,-2.417,-2.417,-2.417,-2.417,-2.4161,-2.4094,-2.4113,-2.4096,-2.3706,-2.3121,-2.2437,-2.1644,-2.0941,-2.023,-1.9429,-1.9211,-1.9184,-1.916,-1.9025,-1.8903,-1.8937,-1.7585,-1.6325,-1.6386,-1.5081,-1.3899,-1.387,-1.3803,-1.3776,-1.3884,-1.2994,-1.2304,-1.2424,-1.1038,-0.9985,-0.9985,-0.9577,-0.953,-1.0129,-1.0204,-1.0204,-1.0204,-1.0709,-1.048,-0.9196,-0.9553,-0.9448,-0.8632,-0.8476,-0.8361,-0.8293,-0.8293,-0.8293,-0.8293,-0.8354,-0.8357,-0.8301,-0.8182,-0.808,-1.9695,-2.0242,-2.0398,-1.9519,-1.8953,-1.829,-1.6981,-1.5343,-1.386,-1.3079,-1.2181,-1.1279,-1.0369,-1.1916,-1.3452,-1.3835,-1.5356,-1.7061,-1.8669,-1.8966,-1.9296,-2.0101,-2.0203,-2.0164,-2.0069,-2.0375,-2.0721,-2.1086,-2.2202,-2.2798,-2.2588,-2.3413,-2.4063,-2.4454,-2.4454,-2.4454,-2.4454,-2.4454,-2.4478,-2.4569,-2.4569,-2.4569,-2.4569,-2.4569,-2.452,-2.4454,-2.4454,-2.4454,-2.4454,-2.4454,-2.4454,-2.4454,-2.4454,-2.4401,-2.4293,-2.4293,-2.4266,-2.4208,-2.4161,-2.417,-2.418,-2.4113,-2.3847,-2.3298,-2.2072,-2.1431,-2.0873,-1.962,-1.9246,-1.923,-1.9115,-1.9024,-1.899,-1.9066,-1.7819,-1.6522,-1.6198,-1.5063,-1.4114,-1.4114,-1.403,-1.3948,-1.3899,-1.3169,-1.2592,-1.261,-1.1222,-1.0204,-1.0204,-0.9548,-0.938,-1.0117,-1.0204,-1.0376,-1.0797,-1.1476,-1.1192,-0.9616,-1.0088,-0.9879,-0.8655,-0.8464,-0.8364,-0.8293,-0.8293,-0.8322,-0.8354,-0.838,-0.837,-0.8305,-0.8234,-0.8135,-1.9304,-1.9949,-2.0359,-1.9285,-1.8504,-1.7725,-1.6652,-1.4583,-1.2905,-1.2887,-1.1498,-1.0283,-1.0236,-1.1593,-1.2783,-1.2941,-1.4815,-1.6657,-1.7818,-1.8416,-1.9097,-2.0076,-2.0195,0.0,-2.0205,-2.09,-2.1585,-2.2151,-2.3158,-2.3455,-2.2774,-2.3986,-2.47,-2.47,-2.47,-2.47,-2.47,-2.47,-2.4704,-2.4734,-2.4734,-2.4734,-2.4734,-2.4734,-2.4738,-2.47,-2.47,-2.47,-2.47,-2.47,-2.47,-2.47,-2.47,-2.461,-2.4449,-2.4449,-2.4374,-2.4238,-2.4238,-2.4228,-2.419,-2.419,-2.419,-2.3896,-2.229,-2.1794,-2.1445,-1.9774,-1.9297,-1.9266,-1.9105,-1.9064,-1.901,-1.8846,-1.7822,-1.667,-1.5876,-1.4989,-1.4344,-1.4344,-1.4229,-1.4096,-1.3934,-1.3373,-1.2899,-1.279,-1.1588,-1.0635,-1.048,-0.9812,-0.9548,-1.0135,-1.0204,-1.0463,-1.1091,-1.1813,-1.1603,-1.0195,-1.0515,-1.0118,-0.8661,-0.8499,-0.8399,-0.8315,-0.8315,-0.8335,-0.8409,-0.838,-0.8361,-0.8328,-0.8282,-0.8169,-1.9304,-1.9949,-2.0203,-1.8525,-1.8056,-1.7551,-1.5897,-1.4157,-1.2886,-1.2812,-1.1463,-1.0305,-1.0284,-1.1655,-1.3031,-1.3769,-1.4732,-1.6226,-1.856,-1.8276,-1.8404,-2.0,0.0,0.0,-2.0193,-2.0828,-2.1282,-2.1478,-2.2972,-2.4056,-2.4452,-2.4625,-2.47,-2.47,-2.47,-2.47,-2.47,-2.47,-2.4757,-2.4881,-2.4881,-2.4881,-2.4881,-2.4881,-2.4823,-2.47,-2.47,-2.47,-2.47,-2.47,-2.47,-2.47,-2.47,-2.4692,-2.4665,-2.4665,-2.4561,-2.4372,-2.4372,-2.4293,-2.419,-2.419,-2.419,-2.3896,-2.229,-2.1794,-2.1445,-1.9774,-1.9297,-1.9297,-1.9282,-1.9274,-1.9091,-1.8368,-1.7525,-1.667,-1.5876,-1.5056,-1.4476,-1.4476,-1.4368,-1.4274,-1.4262,-1.3952,-1.3681,-1.3684,-1.2891,-1.2058,-1.1373,-1.0583,-1.0117,-1.0186,-1.0204,-1.0238,-1.0307,-1.0925,-1.0974,-1.0155,-1.0032,-0.9582,-0.8643,-0.8583,-0.8518,-0.8389,-0.8338,-0.8335,-0.8409,-0.8341,-0.8341,-0.838,-0.8203,-0.8101,-1.7742,-1.8368,-1.8741,-1.7515,-1.7223,-1.6892,-1.5683,-1.4062,-1.2832,-1.2812,-1.1464,-1.0309,-1.0305,-1.1248,-1.2283,-1.3145,-1.3973,-1.5205,-1.7213,-1.7607,-1.8138,-1.9346,-1.9938,-2.0234,0.0,-2.1397,-2.2364,-2.2861,-2.4012,-2.4547,-2.4239,-2.4721,-2.5005,-2.5005,-2.5005,-2.5005,-2.5005,-2.5005,-2.5038,-2.5075,-2.5075,-2.5075,-2.5075,-2.5075,-2.5044,-2.5005,-2.5005,-2.5005,-2.5005,-2.5005,-2.5005,-2.5005,-2.5005,-2.4933,-2.4811,-2.4811,-2.4716,-2.4551,-2.4432,-2.4364,-2.4321,-2.4237,-2.419,-2.3896,-2.229,-2.1418,-2.0776,-1.9627,-1.9297,-1.9297,-1.9297,-1.9297,-1.9224,-1.8911,-1.7832,-1.6817,-1.6493,-1.5411,-1.4493,-1.4493,-1.4453,-1.4393,-1.4312,-1.4112,-1.3938,-1.3818,-1.3055,-1.2231,-1.1494,-1.071,-1.0031,-0.9582,-0.9927,-1.0394,-1.0883,-1.1172,-1.0992,-1.0213,-1.0003,-0.9541,-0.875,-0.8571,-0.8451,-0.8411,-0.837,-0.8354,-0.8341,-0.8354,-0.8309,-0.8209,-0.8135,-0.8061,-1.6455,-1.714,-1.7788,-1.6912,-1.6699,-1.6406,-1.527,-1.3864,-1.2733,-1.2499,-1.1309,-1.0292,-1.0306,-1.0961,-1.1808,-1.2658,-1.3487,-1.468,-1.6604,-1.7369,-1.8122,-1.9257,0.0,-2.0285,-2.0238,-2.1778,-2.2993,-2.3503,-2.4572,-2.4822,-2.3951,-2.4727,-2.5191,-2.5191,-2.5191,-2.5191,-2.5191,-2.5191,-2.5191,-2.5191,-2.5191,-2.5191,-2.5191,-2.5191,-2.5191,-2.5191,-2.5191,-2.5191,-2.5191,-2.5191,-2.5191,-2.5191,-2.5191,-2.5113,-2.4987,-2.4987,-2.4893,-2.4742,-2.4596,-2.4483,-2.4372,-2.4294,-2.3916,-2.3281,-2.2143,-2.1363,-2.0666,-1.9609,-1.9297,-1.9297,-1.9297,-1.9297,-1.9297,-1.9297,-1.8071,-1.6908,-1.6908,-1.5643,-1.4493,-1.4493,-1.4493,-1.4453,-1.4319,-1.4216,-1.4103,-1.3923,-1.3312,-1.2616,-1.1877,-1.1254,-1.0601,-0.9864,-1.0244,-1.078,-1.1356,-1.1408,-1.1123,-1.0509,-1.014,-0.9582,-0.8749,-0.8552,-0.8438,-0.8411,-0.8406,-0.8367,-0.8293,-0.8367,-0.8315,-0.8155,-0.8114,-0.8026,-1.5872,-1.6676,-1.7792,-1.6913,-1.6699,-1.6248,-1.4502,-1.3432,-1.2576,-1.1774,-1.0918,-1.0292,-1.0306,-1.1008,-1.1863,-1.266,-1.3488,-1.4886,-1.7438,-1.7735,-1.833,0.0,-2.0288,-2.0308,-2.0308,-2.1755,-2.27,-2.2704,-2.4266,-2.4822,-2.3951,-2.4727,-2.5191,-2.5191,-2.5191,-2.5191,-2.5191,-2.5191,-2.5191,-2.5191,-2.5191,-2.5191,-2.5191,-2.5191,-2.5191,-2.5191,-2.5191,-2.5191,-2.5191,-2.5191,-2.5191,-2.5191,-2.5191,-2.521,-2.521,-2.521,-2.5063,-2.4902,-2.4902,-2.4682,-2.4398,-2.4398,-2.3221,-2.1812,-2.1812,-2.1794,-2.1445,-1.9774,-1.9297,-1.9297,-1.9297,-1.9297,-1.9297,-1.9297,-1.8071,-1.6908,-1.6908,-1.5643,-1.4493,-1.4493,-1.4493,-1.4453,-1.4319,-1.43,-1.4249,-1.4127,-1.3913,-1.3513,-1.2773,-1.2551,-1.2196,-1.146,-1.1373,-1.1391,-1.1408,-1.1408,-1.1311,-1.1102,-1.0473,-0.9612,-0.8553,-0.8568,-0.8531,-0.8411,-0.8406,-0.8367,-0.8293,-0.8367,-0.8361,-0.8286,-0.8162,-0.8026,-1.5547,-1.5801,-1.6152,-1.5875,-1.5813,-1.5516,-1.4352,-1.3435,-1.2564,-1.1772,-1.0916,-1.0293,-1.0307,-1.0539,-1.1358,-1.3364,-1.3893,-1.4953,-1.7519,-1.8831,0.0,-2.0246,-2.1312,-2.2239,-2.2836,-2.2824,-2.2753,-2.269,-2.3694,-2.3941,-2.3059,-2.4457,-2.5275,-2.5275,-2.5275,-2.5282,-2.5341,-2.5341,-2.5341,-2.5341,-2.5341,-2.5312,-2.5275,-2.5275,-2.5242,-2.5191,-2.5191,-2.5191,-2.5191,-2.5191,-2.5191,-2.5191,-2.5191,-2.5191,-2.5191,-2.5191,-2.5162,-2.5095,-2.4961,-2.4775,-2.4567,-2.4432,-2.3582,-2.252,-2.1978,-2.1005,-1.9976,-1.9444,-1.9297,-1.9297,-1.9297,-1.9297,-1.9297,-1.9297,-1.8071,-1.6908,-1.6908,-1.5643,-1.4464,-1.4381,-1.4435,-1.4453,-1.4319,-1.43,-1.4293,-1.4245,-1.4078,-1.3648,-1.2867,-1.2696,-1.2335,-1.1549,-1.1925,-1.2193,-1.2169,-1.161,-1.1448,-1.1896,-1.0659,-0.9743,-0.9399,-0.8831,-0.8537,-0.8531,-0.853,-0.8476,-0.8367,-0.8444,-0.8358,-0.8162,-0.8026,-0.7942,-1.4822,-1.5154,-1.5329,-1.4988,-1.4904,-1.4605,-1.3387,-1.2957,-1.2574,-1.1773,-1.1169,-1.0781,-1.0796,-1.052,-1.1028,-1.3274,-1.3631,-1.4602,-1.7504,0.0,0.0,-2.1169,-2.2196,-2.3032,-2.3552,-2.339,-2.3117,-2.2757,-2.3764,-2.4,-2.3132,-2.4493,-2.5312,-2.5337,-2.5337,-2.5361,-2.541,-2.541,-2.541,-2.541,-2.541,-2.5384,-2.5337,-2.5307,-2.5285,-2.5236,-2.5203,-2.5191,0.0,-2.5191,-2.5191,-2.5191,-2.5191,-2.5191,-2.5191,-2.5191,-2.5191,-2.5174,-2.4974,-2.4603,-2.4204,-2.4011,-2.3083,-2.1905,-2.1096,-2.0123,-1.9297,-1.9297,-1.9297,-1.9297,-1.9297,-1.9297,-1.9297,-1.9297,-1.8071,-1.6908,-1.6908,-1.5643,-1.4453,-1.4325,-1.4405,-1.4453,-1.4319,-1.4325,-1.4332,-1.4344,-1.4172,-1.3849,-1.331,-1.3159,-1.291,-1.2387,-1.2746,-1.3003,-1.2959,-1.2202,-1.1884,-1.2283,-1.0797,-0.9872,-0.9764,-0.8974,-0.8546,-0.8565,-0.8592,-0.8526,-0.8409,-0.846,-0.8415,-0.8256,-0.8162,-0.8094,0.0,-1.4639,-1.5122,-1.438,-1.4195,-1.3754,-1.206,-1.2314,0.0,-1.1853,-1.1638,-1.162,-1.1676,-1.0989,-1.0989,-1.2787,-1.3085,-1.4238,-1.7531,-1.8794,0.0,0.0,-2.3075,-2.3056,-2.2988,-2.3602,-2.3698,-2.2934,-2.4268,-2.476,-2.3943,-2.4807,-2.5337,-2.5391,-2.5395,-2.54,-2.5404,-2.5404,-2.5404,-2.5404,-2.5404,-2.5404,-2.5415,-2.5341,-2.5302,-2.5297,-2.5236,-2.5222,-2.5216,-2.5191,-2.5191,-2.5191,-2.5191,-2.5191,-2.5191,-2.5191,-2.5191,-2.5174,-2.4987,-2.4322,-2.3525,-2.3202,-2.191,-2.0346,-1.9528,-1.9297,-1.9297,-1.9297,-1.9297,-1.9297,-1.9297,-1.9297,-1.9297,-1.9297,-1.8108,-1.6963,-1.6908,-1.568,-1.4532,-1.4343,-1.4405,-1.4453,-1.4325,-1.4368,-1.4399,-1.4399,-1.4236,-1.4082,-1.4023,-1.3887,-1.3776,-1.3721,-1.3713,-1.3713,-1.3713,-1.3062,-1.2569,-1.2385,-1.1029,-1.0115,-0.9866,-0.9143,-0.8707,-0.8597,-0.8644,-0.8607,-0.8499,-0.8534,-0.8582,-0.8649,-0.8588,-0.8534,-1.3044,0.0,-1.4515,-1.4972,-1.5083,-1.4806,0.0,-1.3657,-1.3545,-1.2683,-1.2025,-1.1795,-1.2402,-1.1853,-1.2063,-1.4426,-1.5359,-1.6502,-1.8605,-2.0733,0.0,-2.4734,-2.4869,-2.4807,-2.4787,-2.4353,-2.3976,-2.3746,-2.4072,-2.4192,-2.3985,-2.4865,-2.5388,-2.5393,-2.5445,-2.5501,-2.5548,-2.5548,-2.5548,-2.5548,-2.5548,-2.5524,-2.5476,-2.546,-2.5427,-2.5379,-2.5321,-2.5285,-2.528,-2.522,-2.5191,-2.5191,-2.5191,-2.5191,-2.5191,-2.5191,-2.5191,-2.5185,-2.5156,-2.4814,-2.4162,-2.2636,-2.1379,-2.0346,-1.9528,-1.9297,-1.9297,-1.9297,-1.9297,-1.9297,-1.9297,-1.9297,-1.9297,-1.9297,-1.8537,-1.7649,-1.7037,-1.6126,-1.5197,-1.4452,-1.4405,-1.4464,-1.4314,-1.4368,-1.4399,-1.4398,-1.422,-1.4094,-1.4082,-1.3959,-1.3873,-1.3856,-1.3848,-1.3848,-1.3848,-1.3459,-1.3173,-1.3066,-1.2071,-1.1455,-1.1392,-1.0671,-1.0022,-0.9508,-0.9361,-0.9347,-0.9465,-0.9229,-0.9489,-1.0165,-0.9499,-0.9503,-1.2099,-1.3139,-1.4117,-1.4185,-1.4514,-1.4573,-1.3696,-1.3813,-1.3973,-1.35,-1.2724,-1.2416,-1.3241,-1.2402,-1.2438,-1.4997,-1.5794,-1.7115,0.0,0.0,-2.4136,-2.5444,-2.5534,-2.547,-2.5418,-2.4968,-2.4666,-2.4606,-2.4596,-2.4605,-2.4605,-2.5101,-2.5397,-2.5391,-2.549,-2.5564,-2.5601,-2.5601,-2.5601,-2.5601,-2.5601,-2.5586,-2.5538,-2.551,-2.548,-2.5444,-2.5341,-2.5311,-2.5282,-2.5225,-2.5191,-2.5191,-2.5191,-2.5191,-2.5191,-2.5191,-2.5191,-2.518,-2.5082,-2.4367,-2.3153,-2.1337,-2.0381,-1.9877,-1.9426,-1.9297,-1.9297,-1.9297,-1.9297,-1.9297,-1.9297,-1.9297,-1.9297,-1.9297,-1.8684,-1.7887,-1.7073,-1.6273,-1.5416,-1.447,-1.4405,-1.4464,-1.4326,-1.4326,-1.435,-1.4344,-1.4169,-1.4046,-1.4009,-1.3934,-1.3902,-1.3903,-1.3896,-1.3896,-1.3896,-1.3671,-1.3494,-1.3404,-1.2595,-1.2072,-1.1959,-1.1242,-1.068,-1.0309,-1.0203,-1.0196,-1.0293,-1.0123,-1.0303,-1.0831,-1.0347,-1.0372,-1.1282,-1.2684,-1.3754,-1.315,-1.354,-1.391,-1.317,0.0,0.0,0.0,0.0,-1.325,-1.4137,-1.3144,-1.293,-1.5233,-1.5933,-1.7568,-2.1529,-2.3421,-2.4703,-2.5517,-2.5605,-2.5569,-2.5439,-2.5406,-2.5378,-2.5317,-2.5317,-2.5298,-2.5297,-2.5341,-2.5393,-2.5403,-2.5506,-2.556,-2.5586,-2.5585,-2.559,-2.5607,-2.5604,-2.5601,-2.5598,-2.5534,-2.551,-2.5506,-2.5374,-2.5326,-2.5302,-2.5231,-2.5191,-2.5191,-2.5191,-2.5191,-2.5191,-2.5191,-2.5191,-2.5155,-2.4822,-2.354,-2.1798,-2.0194,-1.9519,-1.9327,-1.9305,-1.9315,-1.9323,-1.9323,-1.9305,-1.9297,-1.9297,-1.9305,-1.9305,-1.9297,-1.8783,-1.8078,-1.727,-1.6469,-1.5655,-1.4878,-1.4709,-1.4653,-1.4545,-1.4526,-1.4476,-1.4312,-1.4145,-1.3991,-1.3913,-1.392,-1.3923,-1.3933,-1.394,-1.3922,-1.3933,-1.3818,-1.3663,-1.3512,-1.2889,-1.2431,-1.2182,-1.1462,-1.1072,-1.1072,-1.1042,-1.1042,-1.1079,-1.1049,-1.1146,-1.1338,-1.1213,-1.1236,-1.1282,-1.2236,-1.3131,-1.3754,-1.4008,-1.4066,-1.393,-1.4008,0.0,0.0,0.0,0.0,0.0,-1.4997,-1.5195,-1.6322,-1.8369,-2.0535,-2.2623,-2.3774,-2.4728,-2.5585,-2.5621,-2.5595,-2.5561,-2.547,-2.5406,-2.539,-2.5336,-2.5303,-2.5303,-2.5313,-2.5341,-2.5402,-2.5427,-2.5456,-2.5507,-2.5574,-2.5593,-2.5603,-2.5607,-2.5593,-2.5601,-2.5592,-2.5589,-2.5583,-2.5433,-2.5373,-2.5384,-2.5258,-2.5191,-2.5191,-2.5191,-2.5191,-2.5191,-2.5191,-2.5191,-2.5078,-2.4195,-2.3215,-2.2149,-2.0903,-2.004,-1.9455,-1.9342,-1.9331,-1.939,-1.939,-1.9331,-1.9297,-1.9297,-1.9331,-1.9364,-1.9305,-1.9239,-1.8985,-1.8172,-1.7362,-1.6766,-1.6618,-1.6048,-1.5593,-1.5563,-1.5515,-1.5221,-1.4423,-1.4182,-1.4042,-1.392,-1.3995,-1.4061,-1.4072,-1.4071,-1.4067,-1.4072,-1.3945,-1.3751,-1.3528,-1.3294,-1.3092,-1.2936,-1.2224,-1.1826,-1.1826,-1.1663,-1.1695,-1.1924,-1.1737,-1.2083,-1.2849,-1.223,-1.2304,-1.1282,-1.2138,-1.3015,-1.3871,-1.4456,-1.4806,-1.4806,-1.4806,-1.4943,0.0,0.0,0.0,0.0,0.0,-1.6694,-1.8513,-2.0581,-2.2376,-2.3638,-2.4554,-2.5257,-2.5648,-2.5677,-2.5642,-2.5603,-2.5542,-2.548,-2.5418,-2.5374,-2.5345,-2.5308,-2.5308,-2.5111,-2.4719,-2.4724,-2.4776,-2.4795,-2.4863,-2.5128,-2.5604,-2.5605,-2.561,-2.5598,-2.559,-2.5332,-2.4891,-2.4786,-2.4471,-2.4034,-2.3895,-2.4136,-2.4558,-2.4514,-2.4784,-2.5134,-2.4669,-2.4498,-2.4295,-2.2922,-2.2142,-2.1573,-2.05,-1.9863,-1.949,-1.9383,-1.9383,-1.9405,-1.9446,-1.9427,-1.9413,-1.9413,-1.9427,-1.9453,-1.942,-1.9427,-1.9214,-1.8384,-1.7904,-1.7517,-1.7088,-1.6694,-1.6454,-1.6497,-1.6417,-1.604,-1.5146,-1.4895,-1.4612,-1.4075,-1.4057,-1.4134,-1.4196,-1.4205,-1.4174,-1.4119,-1.4043,-1.3858,-1.3511,-1.332,-1.3156,-1.3102,-1.2762,-1.258,-1.258,-1.2502,-1.2528,-1.269,-1.2673,-1.2899,-1.3353,-1.3013,-1.3071,-1.1827,-1.2294,-1.2742,-1.3832,-1.4456,-1.4904,-1.5313,-1.5235,-1.5391,0.0,0.0,0.0,0.0,-1.7787,-1.8311,-2.0527,-2.2304,-2.3649,-2.4307,-2.5143,-2.5707,-2.5707,-2.5707,-2.568,-2.5637,-2.5607,-2.5552,-2.5457,-2.5414,-2.5371,-2.5339,-2.5139,-2.4734,-2.4133,-2.3976,-2.3901,-2.3902,-2.3952,-2.4544,-2.5593,-2.5624,-2.5619,-2.5589,-2.5405,-2.4951,-2.4316,-2.4041,-2.3541,-2.2908,-2.278,-2.3103,-2.3688,-2.3626,-2.4001,-2.4528,-2.3872,-2.3619,-2.3414,-2.1933,-2.1348,-2.1075,-2.0068,-1.9645,-1.9559,-1.9446,-1.942,-1.9435,-1.949,-1.9505,-1.9523,-1.949,-1.9497,-1.9497,-1.9509,-1.9497,-1.9313,-1.864,-1.8363,-1.8111,-1.7662,-1.7428,-1.7324,-1.738,-1.7304,-1.693,-1.6029,-1.578,-1.5454,-1.4765,-1.4701,-1.476,-1.4888,-1.4914,-1.4796,-1.4435,-1.4164,-1.3865,-1.3577,-1.3303,-1.3155,-1.3155,-1.3119,-1.3093,-1.3093,-1.3128,-1.3181,-1.3268,-1.3404,-1.3509,-1.3578,-1.3578,-1.357,-1.3462,-1.2781,-1.2002,-1.3676,-1.354,-1.3404,-1.5021,-1.4767,-1.467,-1.6344,0.0,0.0,0.0,-1.9225,-2.0557,-2.1545,-2.3162,-2.4335,-2.4393,-2.5148,-2.5707,-2.5707,-2.5707,-2.5706,-2.5685,-2.5641,-2.5598,-2.5591,-2.5473,-2.5421,-2.5486,-2.4663,-2.4187,-2.4182,-2.3403,-2.2985,-2.2986,-2.3055,-2.3949,-2.5605,-2.5658,-2.5668,-2.5561,-2.482,-2.445,-2.4329,-2.3466,-2.3048,-2.2976,-2.2852,-2.2793,-2.2785,-2.2713,-2.2769,-2.2871,-2.2814,-2.2795,-2.2666,-2.1785,-2.1445,-2.1215,-2.0136,-1.9797,-1.9744,-1.955,-1.9493,-1.9485,-1.9504,-1.9543,-1.9587,-1.9523,-1.9493,-1.9496,-1.9497,-1.9501,-1.9485,-1.9411,-1.8818,-1.8503,-1.9196,-1.8728,-1.8215,-1.8214,-1.8208,-1.7859,-1.686,-1.6646,-1.6555,-1.6431,-1.6468,-1.6555,-1.6707,-1.6766,-1.64,-1.5389,-1.4344,-1.3723,-1.3686,-1.3429,-1.3295,-1.3295,-1.3173,-1.3093,-1.3093,-1.3217,-1.3354,-1.3479,-1.3608,-1.3705,-1.3773,-1.3773,-1.3709,-1.3637,-1.3228,-1.2723,-1.4475,-1.4241,0.0,0.0,-1.5566,-1.6209,-1.7905,-1.8511,0.0,-1.9453,-2.0067,-2.0951,-2.2382,-2.3154,-2.3963,-2.5058,-2.5486,-2.5697,-2.5708,-2.5707,-2.5707,-2.5707,-2.568,-2.5645,-2.5603,-2.5547,-2.5285,-2.4724,-2.4367,-2.3702,-2.2677,-2.2325,-2.2156,-2.2155,-2.2218,-2.2849,-2.3988,-2.4043,-2.4072,-2.4046,-2.3728,-2.3295,-2.2765,-2.2411,-2.1952,-2.1444,-2.1341,-2.1617,-2.212,-2.2556,-2.271,-2.2637,-2.2087,-2.1919,-2.1823,-2.0989,-2.0663,-2.0575,-2.0081,-1.9871,-1.978,-1.9662,-1.9574,-1.9518,-1.955,-1.9583,-1.9583,-1.9573,-1.9562,-1.9569,-1.9555,-1.9562,-1.9557,-1.9557,-1.9316,-1.9205,-1.9502,-1.9323,-1.9119,-1.9112,-1.9119,-1.8742,-1.7691,-1.7566,-1.7369,-1.6798,-1.6775,-1.6682,-1.6313,-1.6183,-1.597,-1.556,-1.5464,-1.5241,-1.4723,-1.3898,-1.3404,-1.3354,-1.3311,-1.3303,-1.3354,-1.3396,-1.3511,-1.3686,-1.3821,-1.3931,-1.3995,-1.3995,-1.3959,-1.373,-1.3437,-1.3121,-1.4582,0.0,0.0,-1.5585,-1.6258,-1.7242,-1.9212,-1.9603,-1.9798,-2.0383,-2.0946,-2.1713,-2.2901,-2.3552,-2.4342,-2.5526,-2.5703,-2.5703,-2.5696,-2.5694,-2.5693,-2.5707,-2.5707,-2.5564,-2.5249,-2.5198,-2.4795,-2.39,-2.3587,-2.2924,-2.1792,-2.15,-2.1338,-2.1325,-2.1391,-2.1695,-2.2208,-2.228,-2.2582,-2.3087,-2.2846,-2.2392,-2.1825,-2.1545,-2.1074,-2.0527,-2.0457,-2.0759,-2.1313,-2.1821,-2.1974,-2.1878,-2.1243,-2.1047,-2.1007,-2.044,-2.0229,-2.0174,-2.0079,-1.9976,-1.9866,-1.9744,-1.963,-1.9569,-1.9597,-1.9609,-1.9609,-1.9609,-1.9609,-1.9609,-1.9609,-1.9609,-1.9609,-1.9609,-1.9609,-1.9609,-1.9609,-1.9609,-1.9609,-1.9609,-1.9609,-1.9348,-1.8566,-1.8456,-1.8177,-1.7357,-1.7257,-1.7012,-1.6341,-1.6121,-1.6005,-1.598,-1.629,-1.6161,-1.5352,-1.4527,-1.3905,-1.3568,-1.3519,-1.3519,-1.3568,-1.3598,-1.37,-1.3858,-1.4026,-1.4114,-1.4157,-1.4172,-1.4125,-1.4007,-1.3374,-1.2929,-1.379,0.0,0.0,-1.6407,-1.6666,-1.7435,-1.9972,-2.0498,-2.0498,-2.0498,-2.1921,-2.309,-2.3109,-2.4555,-2.5699,-2.5699,-2.5694,-2.5702,-2.5703,-2.5702,-2.57,-2.5709,-2.5687,-2.5336,-2.4457,-2.4336,-2.3941,-2.3129,-2.2263,-2.183,-2.1899,-2.1042,-2.0565,-2.05,-2.0564,-2.0564,-2.05,-2.0565,-2.1472,-2.3052,-2.2251,-2.19,-2.1841,-2.0964,-2.0591,-2.0584,-2.0539,-2.0415,-2.0291,-2.0305,-2.0292,-2.0299,-2.0223,-2.0192,-2.0211,-2.0285,-2.0261,-2.0199,-2.0121,-2.0093,-2.0055,-1.978,-1.9701,-1.9695,-1.9613,-1.9609,-1.9609,-1.9609,-1.9609,-1.9609,-1.9609,-1.9609,-1.9609,-1.9609,-1.9609,-1.9609,-1.9609,-1.9609,-1.9609,-1.9609,-1.9609,-1.9548,-1.9413,-1.9338,-1.9029,-1.8298,-1.8129,-1.7815,-1.7151,-1.6968,-1.6879,-1.6796,-1.6634,-1.6182,-1.5377,-1.5316,-1.489,-1.3941,-1.3781,-1.3705,-1.3705,-1.384,-1.3934,-1.3998,-1.4207,-1.4307,-1.43,-1.4362,-1.4183,-1.4007,-1.3803,-1.3809,-1.4637,0.0,0.0,0.0,-1.7898,0.0,0.0,-2.0476,-2.0492,-2.0498,-2.1414,-2.2388,-2.2992,-2.4052,-2.4999,-2.5619,-2.5704,-2.5693,-2.5702,-2.5702,-2.5703,-2.5703,-2.5155,-2.4684,-2.4411,-2.3814,-2.3104,-2.231,-2.201,-2.1599,-2.1003,-2.073,-2.0591,-2.0566,-2.0591,-2.0591,-2.0566,-2.0591,-2.0867,-2.1335,-2.1081,-2.0983,-2.0964,-2.0711,-2.0593,-2.0591,-2.0586,-2.0527,-2.0434,-2.0431,-2.0382,-2.0296,-2.0285,-2.0265,-2.0265,-2.0288,-2.0285,-2.0281,-2.0256,-2.0186,-2.0079,-2.002,-1.9843,-1.9695,-1.9669,-1.9647,-1.9609,-1.9609,-1.9609,-1.9609,-1.9609,-1.9609,-1.9609,-1.9609,-1.9609,-1.9609,-1.9609,-1.9609,-1.9609,-1.9609,-1.9609,-1.9548,-1.9413,-1.9457,-1.9212,-1.8379,-1.7262,-1.646,-1.6208,-1.6573,-1.6807,-1.674,-1.7679,-1.793,-1.7178,-1.7132,-1.6184,-1.4062,-1.3923,-1.3923,-1.3991,-1.4026,-1.4103,-1.4205,-1.4269,-1.4294,-1.43,-1.4313,-1.4218,-1.3834,-1.3922,-1.42,-1.5352,-1.6292,-1.7231,-1.84,0.0,0.0,-2.0276,-2.0428,-2.0474,-2.049,-2.1218,-2.1979,-2.2505,-2.3304,-2.4186,-2.506,-2.5179,-2.5188,-2.5186,-2.5499,-2.5423,-2.4724,-2.4511,-2.4101,-2.3418,-2.2889,-2.2224,-2.1384,-2.1362,-2.1128,-2.0584,-2.0581,-2.0599,-2.0599,-2.0599,-2.0598,-2.0594,-2.0594,-2.0594,-2.0594,-2.0594,-2.0594,-2.0594,-2.0594,-2.0594,-2.0594,-2.0594,-2.0587,-2.0535,-2.0518,-2.0433,-2.0341,-2.0305,-2.029,-2.0308,-2.0308,-2.0308,-2.0308,-2.0308,-2.0252,-2.0162,-2.0122,-1.9986,-1.9832,-1.9732,-1.9663,-1.9621,-1.9604,-1.9609,-1.9609,-1.9609,-1.9609,-1.9609,-1.9609,-1.9609,-1.9609,-1.9609,-1.9609,-1.9609,-1.9609,-1.9609,-1.9562,-1.9497,-1.8999,-1.8452,-1.7894,-1.6421,-1.5548,-1.5842,-1.649,-1.7039,-1.7312,-1.8458,-1.8828,-1.8071,-1.7989,-1.7132,-1.5231,-1.4784,-1.4459,-1.417,-1.4177,-1.4236,-1.4338,-1.4381,-1.4381,-1.4344,-1.4387,-1.4306,-1.3472,-1.3739,-1.4207,-1.5872,-1.7015,-1.8106,-1.9645,-2.0133,-2.0292,-2.0377,-2.039,-2.0405,-2.0496,-2.1209,-2.1799,-2.1799,-2.252,-2.3377,-2.4156,-2.4275,-2.4285,-2.4271,-2.4975,-2.4845,-2.3257,-2.3746,-2.3512,-2.1911,-2.1736,-2.1345,-2.0543,-2.0566,-2.0566,-2.0504,-2.0566,-2.0585,-2.0585,-2.0585,-2.0584,-2.0596,-2.0596,-2.0595,-2.0595,-2.0594,-2.0594,-2.0594,-2.0594,-2.0594,-2.0594,-2.0594,-2.0594,-2.0592,-2.0533,-2.0462,-2.04,-2.0338,-2.0308,-2.03,-2.0292,-2.0308,-2.0308,-2.0308,-2.0308,-2.0273,-2.0153,-2.0117,-2.0055,-1.9803,-1.9719,-1.9688,-1.962,-1.9597,-1.9609,-1.9609,-1.9609,-1.9609,-1.9609,-1.9609,-1.9609,-1.9609,-1.9609,-1.9609,-1.9609,-1.9609,-1.9609,-1.959,-1.8292,-1.7262,-1.7126,-1.5841,-1.5192,-1.5913,-1.6712,-1.7497,-1.8233,-1.8976,-1.9095,-1.8358,-1.8254,-1.7848,-1.703,-1.6128,-1.5255,-1.4439,-1.4434,-1.4429,-1.4428,-1.4537,-1.4532,-1.4428,-1.4526,-1.4405,-1.2744,-1.3271,-1.4199,-1.5872,-1.7428,-1.8793,-1.9786,-2.0031,-2.0105,-2.0215,-2.0276,-2.0366,-2.048,-2.1174,-2.172,-2.172,-2.244,-2.3084,-2.3266,-2.3353,-2.3383,-2.3379,-2.3543,-2.3511,-2.3145,-2.2652,-2.2209,-2.1839,-2.1165,-2.07,-2.0504,-2.0505,-2.0505,-2.0504,-2.0505,-2.0526,-2.0526,-2.0526,-2.0526,-2.0527,-2.0566,-2.0603,-2.0603,-2.0597,-2.0594,-2.0594,-2.0594,-2.0594,-2.0594,-2.0594,-2.0594,-2.0593,-2.059,-2.0535,-2.0464,-2.04,-2.0341,-2.0292,-2.0292,-2.0308,-2.0308,-2.0308,-2.0308,-2.0285,-2.0269,-2.0171,-2.0084,-2.0035,-1.9855,-1.9695,-1.9682,-1.9635,-1.9609,-1.9609,-1.9609,-1.9609,-1.9609,-1.9609,-1.9609,-1.9609,-1.9609,-1.9609,-1.9609,-1.9609,-1.9597,-1.9594,-1.8814,-1.7962,-1.7267,-1.6873,-1.6457,-1.5906,-1.717,-1.8091,-1.8204,-1.8947,-1.9328,-1.915,-1.9084,-1.8675,-1.7884,-1.7039,-1.6207,-1.5335,-1.5417,-1.5176,-1.4567,-1.4589,-1.4589,-1.4567,-1.4474,-1.435,-1.2432,-1.3151,0.0,-1.6354,0.0,-1.8963,-1.9806,-2.0007,-2.003,-2.0171,-2.023,-2.0296,-2.0437,-2.0825,-2.1121,-2.1121,-2.151,-2.194,-2.2314,-2.2418,-2.2425,-2.2429,-2.2806,-2.2734,-2.1938,-2.1818,-2.1635,-2.121,-2.0755,-2.0509,-2.0509,-2.0495,-2.0495,-2.0509,-2.0495,-2.0498,-2.0498,-2.0498,-2.05,-2.0504,-2.0546,-2.0566,-2.0604,-2.0598,-2.0594,-2.0594,-2.0594,-2.0594,-2.0594,-2.0594,-2.0594,-2.0594,-2.0594,-2.0536,-2.0451,-2.0409,-2.0363,-2.0306,-2.0304,-2.0308,-2.0308,-2.0308,-2.0308,-2.0308,-2.0308,-2.0256,-2.0171,-2.0126,-1.9955,-1.978,-1.9719,-1.9655,-1.9609,-1.9609,-1.9609,-1.9609,-1.9609,-1.9609,-1.9609,-1.9609,-1.9609,-1.9609,-1.9609,-1.9604,-1.9606,-1.9608,-1.897,-1.8347,-1.7881,-1.7487,-1.7206,-1.7092,-1.7869,-1.8547,-1.8937,-1.934,-1.9562,-1.9506,-1.9468,-1.9232,-1.8739,-1.8379,-1.7566,-1.6252,-1.6312,-1.6207,-1.5845,-1.5425,-1.5215,-1.5215,-1.4726,-1.4415,-1.2146,-1.3163,-1.4539,-1.6736,-1.7994,0.0,-1.9609,-1.9893,-2.0041,-2.0162,-2.0196,-2.0245,-2.0388,-2.0456,-2.0483,-2.0483,-2.0483,-2.0718,-2.1384,-2.1483,-2.1486,-2.1488,-2.2112,-2.202,-2.0623,-2.1159,-2.1286,-2.0554,-2.0505,-2.049,-2.0492,-2.0492,-2.0494,-2.0497,-2.0496,-2.0504,-2.0504,-2.0504,-2.049,-2.05,-2.0503,-2.0546,-2.0604,-2.0598,-2.0594,-2.0594,-2.0594,-2.0594,-2.0594,-2.0594,-2.0594,-2.0594,-2.059,-2.0506,-2.0409,-2.0393,-2.034,-2.0308,-2.0292,-2.0308,-2.0308,-2.0308,-2.0308,-2.0308,-2.0308,-2.0308,-2.0273,-2.0177,-2.0011,-1.9866,-1.9762,-1.9674,-1.9609,-1.9609,-1.9609,-1.9609,-1.9609,-1.9609,-1.9609,-1.9609,-1.9609,-1.9609,-1.9609,-1.9606,-1.9621,-1.9621,-1.912,-1.8695,-1.8534,-1.8076,-1.7949,-1.8463,-1.8644,-1.9019,-1.9745,-1.9801,-1.9745,-1.9641,-1.9621,-1.9548,-1.9438,-1.9541,-1.8889,-1.7403,-1.7305,-1.7262,-1.7242,-1.6522,-1.6156,-1.6154,-1.5264,-1.4783,-1.1242,0.0,-1.5082,0.0,-1.7549,-1.8732,0.0,0.0,-2.0041,-2.0162,-2.0201,-2.0242,-2.0373,-2.0414,-2.0414,-2.0414,-2.0414,-2.0459,-2.0554,-2.0568,-2.0562,-2.0575,-2.0723,-2.0752,-2.0519,-2.0618,-2.064,-2.0504,-2.0506,-2.0491,-2.0495,-2.049,-2.0501,-2.0506,-2.0498,-2.0503,-2.0503,-2.0503,-2.0504,-2.0509,-2.0497,-2.0546,-2.0604,-2.0598,-2.0594,-2.0594,-2.0594,-2.0594,-2.0594,-2.0594,-2.0594,-2.0592,-2.0535,-2.05,-2.0466,-2.0358,-2.0305,-2.0299,-2.0292,-2.0308,-2.0308,-2.0308,-2.0308,-2.0308,-2.0308,-2.0308,-2.0308,-2.0277,-2.0088,-1.9907,-1.989,-1.9745,-1.9609,-1.9609,-1.9609,-1.9609,-1.9609,-1.9609,-1.9609,-1.9609,-1.9609,-1.9609,-1.9609,-1.9652,-1.9686,-1.9686,-1.9699,-1.9441,-1.8676,-1.9141,-1.9295,-1.8663,-1.92,-1.967,-1.9782,-1.9801,-1.9795,-1.9763,-1.9661,-1.9582,-1.9569,-1.9582,-1.9489,-1.9239,-1.8615,-1.8019,-1.7454,-1.7285,-1.7228,-1.726,-1.6327,-1.5862,-1.236,-1.3146,-1.4012,0.0,-1.6757,-1.7549,-1.8491,-1.9003,-1.9437,-2.0017,-2.0167,-2.023,-2.0382,-2.0402,-2.0402,-2.0402,-2.0402,-2.0402,-2.0392,-2.0401,-2.0407,-2.0396,-2.0424,-2.0432,-2.0441,-2.0448,-2.0439,-2.0447,-2.0473,-2.0499,-2.0502,-2.0508,-2.0493,-2.05,-2.0506,-2.0509,-2.0494,-2.0499,-2.0508,-2.05,-2.0507,-2.0521,-2.0546,-2.0584,-2.0599,-2.0594,-2.0594,-2.0594,-2.0594,-2.0594,-2.0594,-2.0593,-2.0565,-2.0533,-2.0494,-2.0391,-2.0338,-2.0292,-2.0296,-2.0308,-2.0308,-2.0308,-2.0308,-2.0308,-2.0308,-2.0308,-2.0308,-2.0308,-2.0158,-2.0006,-2.0006,-1.9885,-1.9763,-1.9763,-1.9763,-1.9763,-1.9763,-1.9681,-1.9606,-1.9652,-1.9658,-1.9658,-1.9658,-1.9686,-1.9707,-1.9707,-1.981,-1.9747,-1.9328,-1.9635,-1.9747,-1.9328,-1.9581,-1.9801,-1.9801,-1.9801,-1.9776,-1.9681,-1.9706,-1.9674,-1.9589,-1.9707,-1.9763,-1.9763,-1.9441,-1.9144,-1.8837,-1.8403,-1.8189,-1.8208,-1.7293,-1.6588,-1.3014,0.0,-1.3042,-1.5321,-1.6041,-1.6534,0.0,-1.8396,-1.8896,-1.9616,-1.9982,-2.0229,-2.0343,-2.0392,-2.0402,-2.0402,-2.0402,-2.0402,-2.0402,-2.0402,-2.0402,-2.0402,-2.0402,-2.0405,-2.0401,-2.0609,-2.064,-2.0418,-2.0645,-2.0711,-2.0483,-2.0466,-2.0468,-2.0473,-2.0497,-2.0499,-2.0506,-2.0497,-2.0494,-2.0492,-2.0497,-2.0492,-2.0501,-2.0566,-2.0603,-2.0597,-2.0595,-2.0594,-2.0594,-2.0594,-2.0594,-2.0593,-2.0589,-2.0537,-2.0495,-2.0418,-2.0373,-2.032,-2.0306,-2.03,-2.0296,-2.0296,-2.0308,-2.0308,-2.0308,-2.0308,-2.0308,-2.0308,-2.0203,-2.0093,-2.0093,-1.9996,-1.9907,-1.9907,-1.9907,-1.9893,-1.9899,-1.978,-1.9682,-1.9738,-1.9732,-1.9719,-1.9694,-1.9694,-1.9701,-1.9757,-1.9868,-1.9928,-1.987,-1.9907,-1.9912,-1.9823,-1.9807,-1.9801,-1.9801,-1.9801,-1.9751,-1.9655,-1.9738,-1.977,-1.9655,-1.9819,-1.989,-1.989,-1.9958,-1.9991,-1.9967,-1.941,-1.9158,-1.9151,-1.8289,-1.7521,-1.212,-1.2525,0.0,-1.4638,-1.5643,-1.6212,0.0,-1.7568,-1.8725,-1.8835,-1.9521,-2.0159,-2.0285,-2.0369,-2.0402,-2.0402,-2.0402,-2.0402,-2.0402,-2.0402,-2.0402,-2.0402,-2.0402,-2.0402,-2.0402,-2.1143,-2.1282,-2.0463,-2.1166,-2.1272,-2.0451,-2.0408,-2.0404,-2.0417,-2.0471,-2.0499,-2.0499,-2.0506,-2.0495,-2.0509,-2.0504,-2.0503,-2.051,-2.0566,-2.0604,-2.0604,-2.0598,-2.0594,-2.0594,-2.0594,-2.0594,-2.0592,-2.0532,-2.05,-2.0495,-2.0418,-2.0398,-2.0388,-2.0323,-2.0296,-2.0305,-2.0292,-2.0308,-2.0308,-2.0308,-2.0308,-2.0308,-2.0308,-2.0203,-2.0093,-2.0093,-1.9996,-1.9907,-1.9907,-1.9907,-1.9899,-1.9906,-1.9887,-1.9885,-1.9879,-1.9845,-1.9774,-1.9707,-1.9707,-1.9732,-1.9875,-2.0005,-2.0069,-2.0001,-2.0055,-2.0049,-1.9908,-1.9844,-1.9801,-1.9801,-1.9801,-1.9801,-1.9795,-1.9801,-1.9801,-1.9795,-1.9849,-1.989,-1.989,-2.0093,-2.0179,-2.0179,-2.0145,-2.0158,-2.0206,-1.9328,-1.8906,-1.1572,0.0,0.0,-1.4012,-1.5188,-1.6193,-1.6193,-1.7094,-1.8079,-1.8626,-1.9021,-1.9458,-2.0062,-2.0237,-2.0292,-2.0325,-2.0332,-2.0332,-2.0332,-2.036,-2.0402,-2.0402,-2.0402,-2.0402,-2.0402,-2.0672,-2.0734,-2.0421,-2.1201,-2.1556,-2.1249,-2.1717,-2.1994,-2.2001,-2.1526,-2.0995,-2.0432,-2.0444,-2.0456,-2.0508,-2.0509,-2.0492,-2.0496,-2.0512,-2.0564,-2.0604,-2.0603,-2.0599,-2.0594,-2.0594,-2.0594,-2.0593,-2.0567,-2.0564,-2.0561,-2.0494,-2.046,-2.0455,-2.0388,-2.0368,-2.0358,-2.0308,-2.0304,-2.0294,-2.0304,-2.0308,-2.0308,-2.0308,-2.0277,-2.0226,-2.0226,-2.0195,-2.0163,-2.0163,-2.0163,-2.0152,-2.0157,-2.0054,-1.9957,-1.9958,-1.9907,-1.9879,-1.9892,-1.9851,-2.0055,-2.0759,-2.0455,-2.0338,-2.0838,-2.0478,-2.0128,-2.0031,-1.9977,-1.9911,-1.9864,-1.9811,-1.9807,-1.9801,-1.9801,-1.9826,-1.9849,-1.9932,-1.9985,-2.004,-2.0179,-2.025,-2.0192,-2.0297,-2.0334,-2.0366,-2.0035,-1.96,-1.1306,-1.2278,0.0,0.0,-1.4752,-1.551,-1.6079,-1.6644,-1.7222,-1.7752,-1.8332,-1.895,-1.9554,-1.994,-2.0208,-2.0292,-2.0318,-2.0329,-2.0329,-2.036,-2.0402,-2.0402,-2.0402,-2.0402,-2.0402,-2.0653,-2.0711,-2.0421,-2.1201,-2.1572,-2.1278,-2.1778,-2.2068,-2.2068,-2.182,-2.1272,-2.0416,-2.0394,-2.0429,-2.0464,-2.0473,-2.0478,-2.0506,-2.0501,-2.0526,-2.0583,-2.0857,-2.082,-2.0596,-2.0596,-2.0596,-2.0635,-2.0927,-2.0868,-2.0631,-2.0871,-2.0787,-2.0529,-2.0457,-2.0424,-2.0415,-2.0363,-2.0322,-2.0326,-2.0301,-2.0295,-2.0304,-2.0296,-2.0304,-2.0304,-2.0304,-2.0299,-2.0297,-2.0297,-2.0297,-2.0301,-2.0302,-2.0196,-2.0083,-2.006,-2.0015,-1.9971,-1.9995,-1.9939,-2.0161,-2.0885,-2.0544,-2.0392,-2.0958,-2.0537,-2.0164,-2.0101,-2.0065,-2.0029,-1.9971,-1.9909,-1.9877,-1.9866,-1.9849,-1.9855,-1.9938,-1.9974,-2.0039,-2.0092,-2.0227,-2.0301,-2.0269,-2.038,-2.0434,-2.0432,-2.0432,-2.0115,0.0,0.0,0.0,-1.4562,-1.4354,-1.4198,-1.5795,-1.6155,-1.6174,-1.6193,-1.7473,-1.863,-1.874,-1.9464,-2.0083,-2.0246,-2.0346,-2.0399,-2.0399,-2.0399,-2.0402,-2.0402,-2.0402,-2.0402,-2.0402,-2.1162,-2.1317,-2.046,-2.1201,-2.1337,-2.0479,-2.046,-2.046,-2.044,-2.1259,-2.1278,-2.0402,-2.0398,-2.0396,-2.0394,-2.041,-2.0425,-2.0497,-2.0529,-2.0531,-2.0584,-2.1386,-2.1338,-2.0679,-2.0679,-2.0678,-2.0756,-2.1614,-2.1397,-2.073,-2.1588,-2.1353,-2.0591,-2.0531,-2.0501,-2.0497,-2.0424,-2.0409,-2.0395,-2.033,-2.0298,-2.0308,-2.0296,-2.0308,-2.0304,-2.0304,-2.0303,-2.0297,-2.0297,-2.0297,-2.0304,-2.0302,-2.0308,-2.0282,-2.0218,-2.0153,-2.0084,-2.0021,-1.9941,-1.9996,-2.0207,-2.0231,-2.0262,-2.0323,-2.0285,-2.0211,-2.0128,-2.0116,-2.0117,-2.0098,-2.0049,-1.9995,-2.0001,-1.9936,-1.9936,-1.9993,-1.9995,-2.0022,-2.0096,-2.0231,-2.034,-2.0394,-2.0466,-2.0494,-2.0496,-2.0496,-2.0496,-1.1402,0.0,0.0,0.0,0.0,0.0,-1.5359,-1.5321,-1.5491,-1.6079,-1.6117,-1.6396,-1.7631,-1.8134,-1.8582,-1.9249,-1.9891,-2.0325,-2.0325,-2.0379,-2.0402,-2.0402,-2.0402,-2.0402,-2.0402,-2.0614,-2.0653,-2.0421,-2.1201,-2.1591,-2.1356,-2.1898,-2.1933,-2.1356,-2.1572,-2.1278,-2.0402,-2.0405,-2.0392,-2.0395,-2.0393,-2.041,-2.0448,-2.1087,-2.1368,-2.142,-2.2275,-2.2528,-2.2342,-2.2398,-2.2401,-2.2421,-2.2672,-2.2277,-2.1575,-2.1804,-2.1353,-2.0594,-2.0573,-2.0573,-2.0551,-2.0492,-2.0462,-2.0456,-2.0398,-2.0376,-2.0377,-2.0379,-2.0334,-2.0311,-2.036,-2.0363,-2.037,-2.037,-2.037,-2.037,-2.0376,-2.0376,-2.036,-2.0292,-2.0215,-2.0175,-2.0203,-2.0159,-2.0371,-2.1176,-2.129,-2.129,-2.1317,-2.1294,-2.1048,-2.039,-2.0269,-2.0234,-2.0175,-2.0115,-2.0055,-2.0006,-1.9981,-1.9971,-2.0,-1.9996,-2.0083,-2.0235,-2.0273,-2.0354,-2.0461,-2.0486,-2.0494,-2.0496,-2.0505,-2.0505,-1.1974,-1.3064,-1.443,-1.4278,0.0,0.0,-1.5453,-1.496,-1.46,-1.5055,-1.5074,-1.5291,-1.6288,-1.7125,-1.7815,-1.8329,-1.8877,-1.9476,-2.0204,-2.0369,-2.0392,-2.0353,-2.0389,-2.0402,-2.0402,-2.0402,-2.0402,-2.0402,-2.0869,-2.1162,-2.1162,-2.1956,-2.2014,-2.1182,-2.1514,-2.1278,-2.0402,-2.0402,-2.0402,-2.0402,-2.0762,-2.0949,-2.0977,-2.1816,-2.2211,-2.2268,-2.274,-2.3159,-2.3517,-2.3561,-2.3394,-2.3099,-2.3105,-2.2616,-2.1909,-2.1906,-2.1359,-2.0598,-2.0599,-2.0601,-2.0599,-2.0555,-2.0533,-2.0528,-2.0467,-2.0441,-2.0433,-2.0415,-2.0378,-2.0344,-2.0388,-2.0405,-2.0399,-2.0408,-2.0402,-2.0402,-2.0402,-2.0402,-2.0386,-2.0315,-2.0246,-2.0215,-2.03,-2.0246,-2.0412,-2.1053,-2.1162,-2.1162,-2.1162,-2.1162,-2.0966,-2.046,-2.0376,-2.0332,-2.0299,-2.0215,-2.0175,-2.0131,-2.0128,-2.0139,-2.0128,-2.0128,-2.0192,-2.0347,-2.0333,-2.0381,-2.0504,-2.0496,-2.0519,-2.0547,-2.0546,-2.0546,-1.2835,-1.3223,-1.4028,-1.4809,-1.443,0.0,-1.5738,-1.4847,-1.3724,-1.3819,-1.4373,-1.4889,-1.4991,-1.6283,-1.7354,-1.7457,-1.7512,-1.8159,-1.9904,-2.0201,-2.0253,-2.0281,-2.0343,-2.0392,-2.0392,-2.0399,-2.0399,-2.0392,-2.0386,-2.0386,-2.0386,-2.1107,-2.1185,-2.0405,-2.1127,-2.1165,-2.0386,-2.0386,-2.0386,-2.0386,-2.1265,-2.1678,-2.1717,-2.2532,-2.2936,-2.2995,-2.303,-2.3482,-2.4206,-2.4377,-2.4004,-2.3361,-2.3386,-2.2889,-2.2166,-2.2067,-2.1481,-2.0738,-2.0621,-2.0602,-2.0602,-2.0604,-2.0604,-2.0582,-2.0534,-2.0507,-2.0494,-2.0423,-2.04,-2.0402,-2.0415,-2.0407,-2.0415,-2.039,-2.0392,-2.0392,-2.0402,-2.0402,-2.0389,-2.0322,-2.0258,-2.025,-2.0307,-2.0258,-2.0265,-2.0373,-2.0479,-2.0502,-2.0411,-2.0469,-2.0511,-2.0423,-2.0401,-2.0417,-2.0395,-2.035,-2.0314,-2.0305,-2.0313,-2.0318,-2.0294,-2.0297,-2.0321,-2.0407,-2.0415,-2.0435,-2.0507,-2.0507,-2.0545,-2.0594,-2.0594,-2.0594,-1.3504,-1.4088,-1.479,-1.496,-1.4866,0.0,-1.515,-1.4449,-1.3895,-1.46,-1.4316,-1.4179,-1.4935,-1.5354,-1.5818,-1.652,-1.6652,-1.7238,-1.8935,-1.9173,-1.9446,-2.0137,-2.0285,-2.0318,-2.0318,-2.0376,-2.0382,-2.0322,-2.0277,-2.0249,-2.0249,-2.0407,-2.0407,-2.0249,-2.0407,-2.0407,-2.0249,-2.0249,-2.0249,-2.0249,-2.1128,-2.1536,-2.1579,-2.2476,-2.2907,-2.2968,-2.3658,-2.4045,-2.4265,-2.4969,-2.5179,-2.5041,-2.5151,-2.466,-2.3824,-2.3124,-2.236,-2.1559,-2.0838,-2.0604,-2.0604,-2.0605,-2.0605,-2.0605,-2.0585,-2.0542,-2.0509,-2.0483,-2.0476,-2.0476,-2.0471,-2.0489,-2.046,-2.0415,-2.0403,-2.041,-2.0395,-2.0402,-2.0399,-2.0389,-2.0363,-2.0363,-2.0386,-2.0363,-2.0366,-2.0399,-2.1004,-2.1181,-2.0495,-2.1002,-2.1194,-2.0558,-2.0482,-2.0463,-2.0393,-2.039,-2.0357,-2.0289,-2.0347,-2.0356,-2.0297,-2.0297,-2.0321,-2.0407,-2.045,-2.0486,-2.0497,-2.0553,-2.0596,-2.0594,-2.0594,-2.0594,-1.4363,-1.4579,-1.4902,-1.4947,-1.4986,0.0,0.0,-1.4335,-1.3819,-1.4259,-1.399,-1.3849,-1.4319,-1.4764,-1.5194,-1.5628,-1.5693,-1.5998,-1.6842,-1.7738,-1.8452,-1.8856,-1.8966,-1.9154,-1.9554,-1.9638,-1.9815,-2.0223,-2.021,-2.0193,-2.0193,-2.0193,-2.0193,-2.0193,-2.0193,-2.0193,-2.0193,-2.0193,-2.0193,-2.0212,-2.1085,-2.1498,-2.156,-2.2913,-2.331,-2.2923,-2.3364,-2.379,-2.4196,-2.4196,-2.445,-2.4827,-2.4471,-2.4118,-2.3602,-2.2324,-2.16,-2.1191,-2.0742,-2.0605,-2.0605,-2.0605,-2.0605,-2.0605,-2.0605,-2.0585,-2.0543,-2.0557,-2.0555,-2.0533,-2.0504,-2.05,-2.0494,-2.0462,-2.0453,-2.0445,-2.0458,-2.0415,-2.0402,-2.0449,-2.0427,-2.0402,-2.0402,-2.0402,-2.0402,-2.0402,-2.0772,-2.0894,-2.0451,-2.0786,-2.0904,-2.054,-2.0495,-2.0483,-2.0449,-2.0459,-2.0437,-2.0405,-2.0424,-2.0421,-2.041,-2.0407,-2.0426,-2.0455,-2.0453,-2.0427,-2.0395,-2.0395,-2.0423,-2.05,-2.05,-2.05,-1.545,-1.5244,-1.5207,-1.5109,-1.5107,-1.511,0.0,0.0,0.0,-1.3906,-1.3918,-1.3944,-1.3952,-1.4524,-1.4994,-1.4978,-1.4955,-1.4947,-1.493,-1.6207,-1.7187,-1.7318,-1.7551,-1.793,-1.8597,-1.8651,-1.9015,-1.9869,-1.9913,-1.9981,-2.0153,-2.0153,-2.0153,-2.0153,-2.0153,-2.0153,-2.0153,-2.0153,-2.0153,-2.0173,-2.1048,-2.1466,-2.1523,-2.3184,-2.3543,-2.2886,-2.307,-2.3441,-2.3906,-2.3364,-2.3461,-2.3897,-2.3422,-2.3189,-2.291,-2.1384,-2.084,-2.082,-2.0664,-2.0605,-2.0605,-2.0605,-2.0605,-2.0605,-2.0605,-2.0605,-2.0605,-2.0605,-2.0605,-2.0586,-2.0522,-2.052,-2.0516,-2.0494,-2.0509,-2.0506,-2.05,-2.0457,-2.0443,-2.0494,-2.0463,-2.0416,-2.0404,-2.0392,-2.0402,-2.0402,-2.0402,-2.0393,-2.0424,-2.0413,-2.0435,-2.05,-2.052,-2.0514,-2.0504,-2.0497,-2.0498,-2.0502,-2.0495,-2.049,-2.0507,-2.0507,-2.0494,-2.0495,-2.0428,-2.0358,-2.0286,-2.023,-2.0243,-2.0332,-2.0362,-2.0366,-1.695,-1.6839,-1.6589,-1.5869,-1.5694,-1.5514,-1.4812,0.0,-1.4687,-1.4681,0.0,-1.4772,-1.4843,0.0,0.0,-1.4835,-1.4822,-1.4785,-1.466,-1.4921,-1.5433,-1.6254,-1.7096,-1.7652,-1.7748,-1.7748,-1.8088,-1.8905,-1.8907,-1.9204,-1.9982,-2.002,-2.002,-2.002,-2.002,-2.002,-2.002,-2.002,-2.002,-2.002,-2.0904,-2.1311,-2.1354,-2.2462,-2.2917,-2.2863,-2.369,-2.3674,-2.3097,-2.377,-2.3654,-2.3123,-2.3858,-2.3681,-2.2903,-2.1996,-2.1696,-2.1641,-2.0879,-2.0605,-2.0605,-2.0605,-2.0605,-2.0605,-2.0605,-2.0605,-2.0605,-2.0605,-2.0605,-2.0605,-2.0586,-2.0586,-2.0565,-2.0516,-2.0493,-2.0508,-2.0504,-2.0497,-2.0495,-2.0498,-2.0492,-2.0476,-2.0417,-2.0402,-2.0402,-2.0402,-2.0402,-2.0427,-2.0483,-2.0494,-2.05,-2.0586,-2.0586,-2.0564,-2.0505,-2.051,-2.0506,-2.0501,-2.05,-2.0499,-2.0507,-2.0507,-2.0494,-2.0495,-2.0428,-2.0332,-2.0207,-2.021,-2.0177,-2.0137,-2.0202,-2.0227,-1.7343,-1.7166,-1.6926,-1.6131,-1.5924,-1.5682,-1.4804,-1.4629,-1.4683,-1.468,0.0,0.0,0.0,0.0,0.0,0.0,-1.4685,-1.4497,-1.3982,-1.4355,-1.4859,-1.5324,-1.5778,-1.6223,-1.6738,-1.7243,-1.7676,-1.8018,-1.8018,-1.8372,-1.9192,-1.9249,-1.9476,-1.9969,-2.0007,-2.0007,-2.0007,-2.0007,-2.0007,-1.9993,-2.0416,-2.0594,-2.0656,-2.2122,-2.2519,-2.2138,-2.3574,-2.3712,-2.2923,-2.3287,-2.2942,-2.223,-2.2633,-2.256,-2.2142,-2.1345,-2.1051,-2.104,-2.0678,-2.0543,-2.0544,-2.0586,-2.0605,-2.0605,-2.0605,-2.0605,-2.0605,-2.0605,-2.0605,-2.0605,-2.0605,-2.0605,-2.0586,-2.0565,-2.0564,-2.0563,-2.0559,-2.0531,-2.0507,-2.0556,-2.0523,-2.0486,-2.0454,-2.0426,-2.0404,-2.041,-2.0407,-2.0428,-2.0485,-2.0504,-2.0521,-2.0583,-2.0603,-2.0585,-2.0566,-2.0522,-2.0506,-2.05,-2.0502,-2.0495,-2.0507,-2.0507,-2.0494,-2.0495,-2.043,-2.0308,-2.0136,-2.0052,-1.9948,-1.983,-2.0044,-2.0138,-1.8061,-1.7856,-1.7571,-1.6499,-1.625,-1.5947,-1.4779,-1.4694,-1.4877,-1.4901,-1.5084,0.0,0.0,0.0,-1.5175,0.0,0.0,-1.4613,-1.3774,-1.4159,-1.4505,-1.4429,-1.4695,-1.5129,-1.5778,-1.6426,-1.69,-1.7127,-1.7146,-1.7506,-1.8335,-1.8581,-1.8984,-1.9628,-1.9874,-2.0007,-2.0007,-2.0007,-2.0007,-1.9993,-2.0043,-2.0073,-2.0135,-2.1938,-2.2404,-2.1921,-2.372,-2.4026,-2.3232,-2.3,-2.242,-2.1688,-2.1433,-2.1345,-2.1271,-2.0683,-2.0472,-2.0503,-2.0503,-2.0508,-2.0511,-2.0564,-2.0565,-2.0585,-2.0586,-2.0605,-2.0605,-2.0605,-2.0605,-2.0605,-2.0605,-2.0605,-2.0605,-2.0605,-2.0605,-2.0605,-2.0605,-2.0565,-2.0543,-2.0586,-2.0561,-2.0532,-2.0522,-2.0475,-2.0428,-2.0435,-2.0432,-2.0438,-2.0485,-2.0499,-2.0527,-2.0581,-2.0599,-2.0601,-2.0603,-2.0546,-2.0494,-2.05,-2.0497,-2.0507,-2.0507,-2.0502,-2.0506,-2.0495,-2.0427,-2.0301,-2.0141,-1.9979,-1.9799,-1.9633,-1.9881,-2.0015,-1.958,-1.9535,-1.9008,-1.7295,-1.6875,-1.642,-1.4695,-1.4963,-1.558,-1.5649,-1.6336,-1.6916,-1.6917,-1.6929,0.0,0.0,0.0,0.0,0.0,-1.4356,-1.4174,-1.3517,-1.4256,-1.4831,-1.4925,-1.5035,-1.5397,-1.6174,-1.6231,-1.6625,-1.7482,-1.8278,-1.8713,-1.8732,-1.9552,-2.0007,-2.0007,-2.0007,-2.0007,-2.0007,-1.9993,-1.9993,-2.0056,-2.1817,-2.2631,-2.2767,-2.4504,-2.4836,-2.4099,-2.3252,-2.242,-2.163,-2.0772,-2.044,-2.043,-2.04,-2.0449,-2.05,-2.05,-2.05,-2.0506,-2.0491,-2.0497,-2.0519,-2.0585,-2.0605,-2.0605,-2.0605,-2.0605,-2.0605,-2.0605,-2.0605,-2.0605,-2.0605,-2.0605,-2.0605,-2.0605,-2.0605,-2.0605,-2.0605,-2.0605,-2.0605,-2.0605,-2.0534,-2.0496,-2.0496,-2.0497,-2.0505,-2.0502,-2.0504,-2.0527,-2.0581,-2.0599,-2.0598,-2.0594,-2.0547,-2.0492,-2.0494,-2.0504,-2.0507,-2.0507,-2.0496,-2.0493,-2.0495,-2.0438,-2.0327,-2.0195,-1.9993,-1.9826,-1.9695,-1.9707,-1.9775,-1.956,-1.9506,-1.916,-1.8036,-1.737,-1.6668,-1.5545,-1.5459,-1.5458,-1.4946,-1.589,-1.6636,-1.6114,-1.6431,0.0,0.0,0.0,0.0,0.0,-1.4331,-1.4265,-1.4083,-1.4421,-1.4675,-1.4699,-1.4799,-1.5226,-1.6073,-1.5639,-1.5973,-1.7425,-1.7766,-1.8145,-1.8676,-1.9552,-2.0007,-2.0007,-2.0007,-2.0007,-2.0007,-2.0007,-2.0007,-2.005,-2.1812,-2.2645,-2.2801,-2.4543,-2.4874,-2.4138,-2.3271,-2.242,-2.1611,-2.0734,-2.0402,-2.0405,-2.041,-2.041,-2.0432,-2.0431,-2.046,-2.0501,-2.0492,-2.0494,-2.0496,-2.0524,-2.0526,-2.0526,-2.0526,-2.0526,-2.0662,-2.1244,-2.1392,-2.1381,-2.1398,-2.1424,-2.1309,-2.0722,-2.0605,-2.0605,-2.0604,-2.0603,-2.0602,-2.0604,-2.0585,-2.0547,-2.0518,-2.0501,-2.0505,-2.0507,-2.0546,-2.0562,-2.0596,-2.0596,-2.0595,-2.0594,-2.0547,-2.0506,-2.0492,-2.0504,-2.0504,-2.0498,-2.0492,-2.0501,-2.0506,-2.0428,-2.0336,-2.0198,-2.0007,-1.9828,-1.9701,-1.9608,-1.9694,-1.9492,-1.9682,-1.9653,-1.8804,-1.8425,-1.787,-1.6465,-1.6289,-1.6203,-1.5415,-1.6242,-1.7048,-1.6816,-1.7204,-1.7193,0.0,0.0,0.0,0.0,-1.43,-1.4325,-1.435,-1.448,-1.4574,-1.4606,-1.4417,-1.4663,-1.5568,-1.4892,-1.5053,-1.6503,-1.7156,-1.7747,-1.8259,-1.9401,-2.0007,-2.0007,-2.0007,-2.0007,-2.0007,-2.0007,-2.0139,-2.0486,-2.1907,-2.2765,-2.3174,-2.463,-2.5008,-2.4494,-2.3376,-2.2594,-2.2014,-2.0847,-2.0402,-2.0402,-2.0402,-2.0402,-2.0408,-2.0394,-2.043,-2.0459,-2.0457,-2.0675,-2.0928,-2.0961,-2.1158,-2.139,-2.139,-2.139,-2.1526,-2.2087,-2.2223,-2.2238,-2.2234,-2.2033,-2.169,-2.112,-2.0749,-2.0534,-2.0528,-2.0524,-2.0543,-2.0551,-2.0567,-2.0554,-2.0547,-2.0547,-2.0545,-2.0545,-2.0579,-2.0594,-2.0594,-2.0594,-2.0595,-2.0598,-2.0547,-2.0495,-2.0506,-2.0508,-2.0492,-2.0494,-2.0504,-2.0482,-2.0466,-2.0426,-2.0349,-2.0234,-1.9984,-1.9822,-1.9738,-1.9578,-1.9606]},{"header":{"parameterUnit":"m.s-1","parameterCategory":1,"la1":30.6,"la2":29.2853,"lo1":-89.7004,"lo2":-87.6739,"dy":0.0162,"dx":0.0183,"nx":112,"ny":82,"refTime":"2026-04-15T12:00:00:Z","depth":0,"parameterNumber":3,"parameterNumberName":"V-component_of_WINDS"},"data":[0.0,0.0,0.0,0.0,0.0,0.0,0.0,0.0,0.0,0.0,0.0,0.0,0.0,0.0,0.0,0.0,0.0,0.0,0.0,0.0,0.0,0.0,0.0,0.0,0.0,0.0,0.0,0.0,0.0,0.0,0.0,0.0,0.0,0.0,0.0,0.0,0.0,0.0,0.0,0.0,0.0,0.0,0.0,0.0,0.0,0.0,0.0,0.0,0.0,0.0,0.0,0.0,0.0,0.0,0.0,0.0,0.0,0.0,0.0,0.0,0.0,0.0,0.0,0.0,0.0,0.0,0.0,0.0,0.0,0.0,0.0,0.0,0.0,0.0,0.0,0.0,0.0,0.0,0.0,0.0,0.0,0.0,0.0,0.0,0.0,0.0,0.0,0.0,0.0,0.0,-0.5346,-0.5702,-0.6607,-0.7243,-0.7415,-0.7274,-0.6711,-0.5613,0.0,0.0,0.0,0.0,0.0,0.0,0.0,0.0,0.0,0.0,0.0,0.0,0.0,0.0,0.0,0.0,0.0,0.0,0.0,0.0,0.0,0.0,0.0,0.0,0.0,0.0,0.0,0.0,0.0,0.0,0.0,0.0,0.0,0.0,0.0,0.0,0.0,0.0,0.0,0.0,0.0,0.0,0.0,0.0,0.0,0.0,0.0,0.0,0.0,0.0,0.0,0.0,0.0,0.0,0.0,0.0,0.0,0.0,0.0,0.0,0.0,0.0,0.0,0.0,0.0,0.0,0.0,0.0,0.0,0.0,0.0,0.0,0.0,0.0,0.0,0.0,0.0,0.0,0.0,0.0,0.0,0.0,0.0,0.0,0.0,0.0,0.0,0.0,0.0,0.0,0.0,0.0,0.0,0.0,0.0,0.0,0.0,0.0,0.0,0.0,0.0,0.0,0.0,0.0,-0.6105,-0.7157,-0.7415,-0.753,-0.756,-0.7537,-0.702,-0.5823,0.0,0.0,0.0,0.0,0.0,0.0,0.0,0.0,0.0,0.0,0.0,0.0,0.0,0.0,0.0,0.0,0.0,0.0,0.0,0.0,0.0,0.0,0.0,0.0,0.0,0.0,0.0,0.0,0.0,0.0,0.0,0.0,0.0,0.0,0.0,0.0,0.0,0.0,0.0,0.0,0.0,0.0,0.0,0.0,0.0,0.0,0.0,0.0,0.0,0.0,0.0,0.0,0.0,0.0,0.0,0.0,0.0,0.0,0.0,0.0,0.0,0.0,0.0,0.0,0.0,0.0,0.0,0.0,0.0,0.0,0.0,0.0,0.0,0.0,0.0,0.0,0.0,0.0,0.0,0.0,0.0,0.0,0.0,0.0,0.0,0.0,0.0,0.0,0.0,0.0,0.0,0.0,0.0,0.0,0.0,0.0,0.0,0.0,0.0,0.0,0.0,0.0,0.0,-0.5391,-0.6227,-0.7467,-0.7605,-0.7605,-0.7605,-0.7605,-0.7083,-0.5877,-0.5688,0.0,0.0,0.0,0.0,0.0,0.0,0.0,0.0,0.0,0.0,0.0,0.0,0.0,0.0,0.0,0.0,0.0,0.0,0.0,0.0,0.0,0.0,0.0,0.0,0.0,0.0,0.0,0.0,0.0,0.0,0.0,0.0,0.0,0.0,0.0,0.0,0.0,0.0,0.0,0.0,0.0,0.0,0.0,0.0,0.0,0.0,0.0,0.0,0.0,0.0,0.0,0.0,0.0,0.0,0.0,0.0,0.0,0.0,0.0,0.0,0.0,0.0,0.0,0.0,0.0,0.0,0.0,0.0,0.0,0.0,0.0,0.0,0.0,0.0,0.0,0.0,0.0,0.0,0.0,0.0,0.0,0.0,0.0,0.0,0.0,0.0,0.0,0.0,0.0,0.0,0.0,0.0,0.0,0.0,0.0,0.0,0.0,0.0,0.0,0.0,0.0,0.0,-0.5739,-0.6196,-0.746,-0.7605,-0.7605,-0.7605,-0.7467,-0.693,-0.5862,-0.5648,0.0,0.0,0.0,0.0,0.0,0.0,0.0,0.0,0.0,0.0,0.0,0.0,0.0,0.0,0.0,0.0,0.0,0.0,0.0,0.0,0.0,0.0,0.0,0.0,0.0,0.0,0.0,0.0,0.0,0.0,0.0,0.0,0.0,0.0,0.0,0.0,0.0,0.0,0.0,0.0,0.0,0.0,0.0,0.0,0.0,0.0,0.0,0.0,0.0,0.0,0.0,0.0,0.0,0.0,0.0,0.0,0.0,0.0,0.0,0.0,0.0,0.0,0.0,0.0,0.0,0.0,0.0,0.0,0.0,0.0,0.0,0.0,0.0,0.0,0.0,0.0,0.0,0.0,0.0,0.0,0.0,0.0,0.0,0.0,0.0,0.0,0.0,0.0,0.0,0.0,0.0,0.0,0.0,0.0,0.0,0.0,0.0,0.0,0.0,0.0,0.0,0.0,-0.5739,-0.6196,-0.746,-0.7605,-0.7605,-0.7605,-0.7083,-0.6484,-0.5833,-0.5213,0.0,0.0,0.0,0.0,0.0,0.0,0.0,0.0,0.0,0.0,0.0,0.0,0.0,0.0,0.0,0.0,0.0,0.0,0.0,0.0,0.0,0.0,0.0,0.0,0.0,0.0,0.0,0.0,0.0,0.0,0.0,0.0,0.0,0.0,0.0,0.0,0.0,0.0,0.0,0.0,0.0,0.0,0.0,0.0,0.0,0.0,0.0,0.0,0.0,0.0,0.0,0.0,0.0,0.0,0.0,0.0,0.0,0.0,0.0,0.0,0.0,0.0,0.0,0.0,0.0,0.0,0.0,0.0,0.0,0.0,0.0,0.0,0.0,0.0,0.0,0.0,0.0,0.0,0.0,0.0,0.0,0.0,0.0,0.0,0.0,0.0,0.0,0.0,0.0,0.0,0.0,0.0,0.0,0.0,0.0,0.0,0.0,0.0,0.0,0.0,0.0,0.0,-0.5739,-0.6196,-0.746,-0.7605,-0.7605,-0.7605,-0.7402,-0.6843,-0.5862,0.0,0.0,0.0,0.0,0.0,0.0,0.0,0.0,0.0,0.0,0.0,0.0,0.0,0.0,0.0,0.0,0.0,0.0,0.0,0.0,0.0,0.0,0.0,0.0,0.0,0.0,0.0,0.0,0.0,0.0,0.0,0.0,0.0,0.0,0.0,0.0,0.0,0.0,0.0,0.0,0.0,0.0,0.0,0.0,0.0,0.0,0.0,0.0,0.0,0.0,0.0,0.0,0.0,0.0,0.0,0.0,0.0,0.0,0.0,0.0,0.0,0.0,0.0,0.0,0.0,0.0,0.0,0.0,0.0,0.0,0.0,0.0,0.0,0.0,0.0,0.0,0.0,0.0,0.0,0.0,0.0,0.0,0.0,0.0,0.0,0.0,0.0,0.0,0.0,0.0,0.0,0.0,0.0,0.0,0.0,0.0,0.0,0.0,0.0,0.0,0.0,0.0,-0.5555,-0.5778,-0.618,-0.7114,-0.7221,-0.7157,-0.7005,-0.6816,-0.6357,-0.5529,0.0,0.0,0.0,0.0,0.0,0.0,0.0,0.0,0.0,0.0,0.0,0.0,0.0,0.0,0.0,0.0,0.0,0.0,0.0,0.0,0.0,0.0,0.0,0.0,0.0,0.0,0.0,0.0,0.0,0.0,0.0,0.0,0.0,0.0,0.0,0.0,0.0,0.0,0.0,0.0,0.0,0.0,0.0,0.0,0.0,0.0,0.0,0.0,0.0,0.0,0.0,0.0,0.0,0.0,0.0,0.0,0.0,0.0,0.0,0.0,0.0,0.0,0.0,0.0,0.0,0.0,0.0,0.0,0.0,0.0,0.0,0.0,0.0,0.0,0.0,0.0,0.0,0.0,0.0,0.0,0.0,0.0,0.0,0.0,0.0,0.0,0.0,0.0,0.0,0.0,0.0,0.0,0.0,0.0,0.0,0.0,0.0,0.0,0.0,0.0,0.0,0.0,-0.5388,-0.5841,-0.6164,-0.6367,-0.6387,-0.621,-0.574,-0.5143,-0.4799,0.0,0.0,0.0,0.0,0.0,0.0,0.0,0.0,0.0,0.0,0.0,0.0,0.0,0.0,0.0,0.0,0.0,0.0,0.0,0.0,0.0,0.0,0.0,0.0,0.0,0.0,0.0,0.0,0.0,0.0,0.0,0.0,0.0,0.0,0.0,0.0,0.0,0.0,0.0,0.0,0.0,0.0,0.0,0.0,0.0,0.0,0.0,0.0,0.0,0.0,0.0,0.0,0.0,0.0,0.0,0.0,0.0,0.0,0.0,0.0,0.0,0.0,0.0,0.0,0.0,0.0,0.0,0.0,0.0,0.0,0.0,0.0,0.0,0.0,0.0,0.0,0.0,0.0,0.0,0.0,0.0,0.0,0.0,0.0,0.0,0.0,0.0,0.0,0.0,0.0,0.0,0.0,0.0,0.0,0.0,0.0,0.0,0.0,0.0,0.0,0.0,0.0,0.0,-0.4767,-0.4931,-0.5179,-0.5713,-0.5767,-0.5716,-0.5575,-0.5398,-0.5129,-0.4757,0.0,0.0,0.0,0.0,0.0,0.0,0.0,0.0,0.0,0.0,0.0,0.0,0.0,0.0,0.0,0.0,0.0,0.0,0.0,0.0,0.0,0.0,0.0,0.0,0.0,0.0,0.0,0.0,0.0,0.0,0.0,0.0,0.0,0.0,0.0,0.0,0.0,0.0,0.0,0.0,0.0,0.0,0.0,0.0,0.0,0.0,0.0,0.0,0.0,0.0,0.0,0.0,0.0,0.0,0.0,0.0,0.0,0.0,0.0,0.0,0.0,0.0,0.0,0.0,0.0,0.0,0.0,0.0,0.0,0.0,0.0,0.0,0.0,0.0,0.0,0.0,0.0,0.0,0.0,0.0,0.0,0.0,0.0,0.0,0.0,0.0,0.0,0.0,0.0,0.0,0.0,0.0,0.0,0.0,0.0,0.0,0.0,0.0,0.0,0.0,0.0,0.0,-0.4426,-0.4588,-0.4748,-0.4998,-0.5023,-0.495,-0.4756,-0.4747,-0.4596,-0.4281,0.0,0.0,0.0,0.0,0.0,0.0,0.0,0.0,0.0,0.0,0.0,0.0,0.0,0.0,0.0,0.0,0.0,0.0,0.0,0.0,0.0,0.0,0.0,0.0,0.0,0.0,0.0,0.0,0.0,0.0,0.0,0.0,0.0,0.0,0.0,0.0,0.0,0.0,0.0,0.0,0.0,0.0,0.0,0.0,0.0,0.0,0.0,0.0,0.0,0.0,0.0,0.0,0.0,0.0,0.0,0.0,0.0,0.0,0.0,0.0,0.0,0.0,0.0,0.0,0.0,0.0,0.0,0.0,0.0,0.0,0.0,0.0,0.0,0.0,0.0,0.0,0.0,0.0,0.0,0.0,0.0,0.0,0.0,0.0,0.0,0.0,0.0,0.0,0.0,0.0,0.0,0.0,0.0,0.0,0.0,0.0,0.0,0.0,0.0,0.0,0.0,0.0,-0.4214,-0.4525,-0.4608,-0.4245,-0.4214,-0.4032,-0.3602,-0.3574,-0.3578,-0.3586,0.0,0.0,0.0,0.0,0.0,0.0,0.0,0.0,0.0,0.0,0.0,0.0,0.0,0.0,0.0,0.0,0.0,0.0,0.0,0.0,0.0,0.0,0.0,0.0,0.0,0.0,0.0,0.0,0.0,0.0,0.0,0.0,0.0,0.0,0.0,0.0,0.0,0.0,0.0,0.0,0.0,0.0,0.0,0.0,0.0,0.0,0.0,0.0,0.0,0.0,0.0,0.0,0.0,0.0,0.0,0.0,0.0,0.0,0.0,0.0,-0.3415,-0.3314,0.0,0.0,0.0,0.0,0.0,0.0,0.0,0.0,0.0,0.0,0.0,0.0,0.0,0.0,0.0,0.0,0.0,0.0,0.0,0.0,0.0,0.0,0.0,0.0,0.0,0.0,0.0,0.0,0.0,0.0,0.0,0.0,0.0,0.0,0.0,0.0,0.0,0.0,0.0,0.0,-0.359,-0.3583,-0.3547,-0.3514,-0.351,-0.3468,-0.3374,-0.3366,-0.3412,-0.3508,-0.3482,0.0,0.0,0.0,0.0,0.0,0.0,0.0,0.0,0.0,0.0,0.0,0.0,0.0,0.0,0.0,0.0,0.0,0.0,0.0,0.0,0.0,0.0,0.0,0.0,0.0,0.0,0.0,0.0,0.0,0.0,0.0,0.0,0.0,0.0,0.0,0.0,0.0,0.0,0.0,0.0,0.0,0.0,0.0,0.0,0.0,0.0,0.0,0.0,0.0,0.0,0.0,0.0,0.0,0.0,0.0,0.0,0.0,0.0,0.0,-0.4121,-0.3798,0.0,0.0,0.0,0.0,0.0,0.0,0.0,0.0,0.0,0.0,0.0,0.0,0.0,0.0,0.0,0.0,0.0,0.0,0.0,0.0,0.0,0.0,0.0,0.0,0.0,0.0,0.0,0.0,0.0,0.0,0.0,0.0,0.0,0.0,0.0,0.0,0.0,0.0,0.0,0.0,-0.3707,-0.3457,-0.3264,-0.3302,-0.3306,-0.3306,-0.3306,-0.3306,-0.3332,-0.3399,-0.3403,0.0,0.0,0.0,0.0,0.0,0.0,0.0,0.0,0.0,0.0,0.0,0.0,0.0,0.0,0.0,0.0,0.0,0.0,0.0,0.0,0.0,0.0,0.0,0.0,0.0,0.0,0.0,0.0,0.0,0.0,0.0,0.0,0.0,0.0,0.0,0.0,0.0,0.0,0.0,0.0,0.0,0.0,0.0,0.0,0.0,0.0,0.0,0.0,0.0,0.0,0.0,0.0,0.0,-0.4991,-0.5391,-0.6396,-0.6056,-0.6086,-0.6328,-0.4931,-0.4454,-0.4625,-0.4268,0.0,0.0,0.0,0.0,0.0,0.0,0.0,0.0,0.0,0.0,0.0,0.0,0.0,0.0,0.0,0.0,0.0,0.0,0.0,0.0,0.0,0.0,-0.4646,-0.4239,-0.448,-0.4559,-0.3672,0.0,0.0,0.0,0.0,0.0,0.0,0.0,0.0,0.0,0.0,0.0,-0.393,-0.3578,-0.3298,-0.3306,-0.3306,-0.3306,-0.3306,-0.3306,-0.3306,-0.3306,-0.3349,-0.3353,0.0,0.0,0.0,0.0,0.0,0.0,0.0,0.0,0.0,0.0,0.0,0.0,0.0,0.0,0.0,0.0,0.0,0.0,0.0,0.0,0.0,0.0,0.0,0.0,0.0,0.0,0.0,0.0,0.0,0.0,0.0,0.0,-0.1048,-0.1855,0.0,0.0,0.0,0.0,0.0,0.0,0.0,0.0,0.0,0.0,0.0,0.0,0.0,-0.5137,-0.5548,-0.5889,-0.6133,-0.6228,-0.617,-0.6228,-0.6394,-0.6348,-0.6357,-0.6384,-0.6172,0.0,-0.5587,-0.5185,0.0,0.0,0.0,0.0,0.0,0.0,0.0,0.0,0.0,0.0,0.0,0.0,0.0,0.0,0.0,0.0,0.0,0.0,0.0,0.0,0.0,0.0,-0.4562,-0.467,-0.4745,-0.4758,-0.4619,-0.4225,-0.376,-0.3296,-0.3203,-0.3371,0.0,0.0,0.0,0.0,0.0,0.0,-0.3458,-0.3351,-0.3297,-0.3302,-0.3306,-0.3306,-0.3306,-0.3306,-0.3306,-0.3306,-0.3315,-0.3315,-0.3306,-0.3315,0.0,0.0,0.0,0.0,0.0,0.0,0.0,0.0,0.0,0.0,0.0,0.0,0.0,0.0,0.0,0.0,0.0,0.0,0.0,0.0,0.0,0.0,0.0,0.0,0.0,0.0,0.0,0.0,0.0,-0.1011,-0.1392,-0.1769,-0.1924,-0.2062,0.0,0.0,0.0,0.0,0.0,0.0,0.0,0.0,0.0,-0.5557,-0.5741,-0.5926,-0.6133,-0.6318,-0.6531,-0.6797,-0.6797,-0.7051,-0.751,-0.7242,-0.7271,-0.75,-0.7242,-0.6891,-0.6497,-0.6056,-0.5753,-0.5576,0.0,0.0,0.0,0.0,-0.5975,-0.6013,-0.6285,-0.6304,-0.6165,-0.5925,0.0,0.0,0.0,0.0,0.0,0.0,0.0,-0.5757,-0.5844,-0.6025,-0.6094,-0.5727,-0.5868,-0.5928,-0.5319,-0.5002,-0.4606,-0.3797,-0.3648,-0.3746,-0.4041,-0.3826,0.0,0.0,0.0,-0.3975,-0.3779,-0.3747,-0.3637,-0.3327,-0.3306,-0.3306,-0.3306,-0.3306,-0.3306,-0.3306,-0.3306,-0.3306,-0.3306,-0.3306,-0.3306,0.0,0.0,0.0,0.0,0.0,0.0,0.0,0.0,0.0,0.0,0.0,0.0,0.0,0.0,0.0,0.0,0.0,0.0,0.0,0.0,0.0,0.0,0.0,0.0,0.0,0.0,0.0,0.0,-0.1456,-0.1733,-0.1889,-0.2194,-0.2398,0.0,0.0,0.0,0.0,0.0,0.0,-0.5389,-0.5762,-0.6154,-0.6572,-0.6797,-0.6914,-0.6914,-0.7021,-0.7246,-0.7588,-0.7588,-0.792,-0.8541,-0.8188,-0.8174,-0.8375,-0.8037,-0.7642,-0.7213,-0.6768,-0.6563,-0.6515,-0.643,-0.6455,-0.6575,-0.6943,-0.7072,-0.7118,-0.7361,-0.7418,-0.7316,-0.6956,-0.6647,-0.636,-0.6235,0.0,0.0,0.0,0.0,-0.6937,-0.7001,-0.7266,-0.7369,-0.6747,-0.6914,-0.6965,-0.6079,-0.5846,-0.5497,-0.4407,-0.4207,-0.4261,-0.4455,-0.4107,0.0,-0.4956,-0.4695,-0.4383,-0.4313,-0.4288,-0.4133,-0.3752,-0.3586,-0.3503,-0.3503,-0.3373,-0.3306,-0.3306,-0.3306,-0.3306,-0.3306,-0.3306,-0.3306,-0.3306,0.0,0.0,0.0,0.0,0.0,0.0,0.0,0.0,0.0,0.0,0.0,0.0,0.0,0.0,0.0,0.0,0.0,0.0,0.0,0.0,0.0,0.0,0.0,0.0,0.0,0.0,0.0,0.0,0.0,-0.2672,-0.3138,0.0,0.0,0.0,0.0,-0.4544,-0.4795,-0.5358,-0.6282,-0.6357,-0.6582,-0.7051,-0.7866,-0.8297,-0.8297,-0.8672,-0.8887,-0.8906,-0.8906,-0.8926,-0.8975,-0.8955,-0.874,-0.8395,-0.8375,-0.8096,-0.7637,-0.7232,-0.6986,-0.6849,-0.6527,-0.6599,-0.6861,-0.6756,-0.6732,-0.6756,-0.6956,-0.6909,-0.6733,-0.6723,-0.6913,-0.7225,-0.766,-0.7791,0.0,0.0,-0.7685,-0.7597,-0.7786,-0.7721,-0.7564,-0.7462,-0.7463,-0.7384,-0.701,-0.6771,-0.627,-0.5003,-0.4758,-0.4916,-0.5438,0.0,-0.5506,-0.5555,-0.5543,-0.5362,-0.4912,-0.4812,-0.4774,-0.4819,-0.4368,-0.4064,-0.4064,-0.3594,-0.3306,-0.3306,-0.3306,-0.3306,-0.3306,-0.3306,-0.3306,-0.3306,-0.3301,0.0,0.0,0.0,0.0,0.0,0.0,0.0,0.0,0.0,0.0,0.0,0.0,0.0,0.0,0.0,0.0,0.0,0.0,0.0,0.0,0.0,0.0,0.0,0.0,0.0,0.0,0.0,0.0,-0.3338,-0.3675,0.0,-0.3757,-0.4291,-0.4783,-0.5154,-0.5578,-0.6246,-0.7186,-0.752,-0.7881,-0.8311,-0.8623,-0.8779,-0.8779,-0.8936,-0.9004,-0.9004,-0.9004,-0.9133,-0.9377,-0.9114,-0.9055,-0.9133,-0.863,-0.8307,-0.8115,-0.7671,-0.7458,-0.7406,-0.7283,-0.7311,-0.7433,-0.7609,-0.7663,-0.7703,-0.7946,-0.7975,-0.7866,-0.7529,-0.7403,-0.7417,-0.7587,-0.7755,-0.7927,-0.811,-0.8097,-0.8094,-0.8299,-0.8288,-0.8157,-0.7784,-0.7695,-0.757,-0.7102,-0.6943,-0.6761,-0.6308,-0.57,-0.5322,-0.5552,-0.5313,-0.5197,-0.5547,-0.5558,-0.5361,-0.49,-0.5112,-0.5192,-0.4872,-0.4708,-0.4455,-0.4075,-0.3898,-0.3652,-0.3262,-0.3238,-0.3238,-0.3238,-0.3238,-0.3238,-0.3238,-0.3237,-0.3237,0.0,0.0,0.0,0.0,0.0,0.0,0.0,0.0,0.0,0.0,0.0,0.0,0.0,0.0,0.0,0.0,0.0,0.0,0.0,0.0,0.0,0.0,0.0,0.0,0.0,-0.3089,-0.3515,-0.3795,-0.4137,-0.4306,-0.421,-0.4683,-0.5239,-0.5794,-0.6421,-0.7148,-0.8027,-0.8532,-0.8926,-0.9192,-0.9355,-0.9434,-0.9434,-0.9434,-0.9434,-0.9434,-0.9434,-0.958,-0.9825,-0.9561,-0.9502,-0.9563,-0.9043,-0.8721,-0.8581,-0.8256,-0.8061,-0.7915,-0.7754,-0.7768,-0.7885,-0.7986,-0.8029,-0.8058,-0.8233,-0.8305,-0.8252,-0.8015,-0.7839,-0.7754,-0.7841,-0.8083,-0.8346,-0.8512,-0.863,-0.8711,-0.876,-0.8767,-0.8634,-0.8074,-0.7933,-0.7811,-0.733,-0.7181,-0.7138,-0.7138,-0.6519,-0.5997,-0.5973,-0.5678,-0.5529,-0.5792,-0.5804,-0.566,-0.5373,-0.5627,-0.5699,-0.5374,-0.522,-0.4976,-0.4572,-0.4413,-0.4093,-0.3504,-0.3467,-0.3394,-0.3211,-0.3382,-0.3382,-0.3211,-0.345,-0.3464,-0.3233,0.0,0.0,0.0,0.0,0.0,0.0,0.0,0.0,0.0,0.0,0.0,0.0,0.0,0.0,0.0,0.0,0.0,0.0,0.0,0.0,0.0,0.0,0.0,-0.3021,-0.3371,-0.3762,-0.4104,-0.4542,-0.4728,-0.4476,-0.5277,-0.6006,-0.65,-0.7273,-0.8044,-0.8774,-0.9335,-0.9612,-0.9612,-1.0059,-1.0303,-1.0303,-1.0303,-1.0303,-1.0303,-1.0303,-1.0303,-1.0303,-1.0303,-1.0049,-0.9612,-0.9602,-0.9377,-0.9023,-0.9014,-0.877,-0.8365,-0.7905,-0.7909,-0.8144,-0.7812,-0.7695,-0.7695,-0.7695,-0.7705,-0.7773,-0.8093,-0.8218,-0.8286,-0.8545,-0.8853,-0.9124,-0.9124,-0.9304,-0.9441,-0.9158,-0.909,-0.8916,-0.8329,-0.8187,-0.8101,-0.7768,-0.7542,-0.7403,-0.7403,-0.7202,-0.6953,-0.6754,-0.6705,-0.6616,-0.6349,-0.6302,0.0,-0.6376,-0.6337,-0.6316,-0.6384,-0.5925,-0.5611,-0.5598,-0.5107,-0.4572,-0.4035,-0.3987,-0.3743,-0.3219,-0.3694,-0.3731,-0.3206,-0.3908,-0.3946,-0.3306,0.0,0.0,0.0,0.0,0.0,0.0,0.0,0.0,0.0,0.0,0.0,0.0,0.0,0.0,0.0,0.0,0.0,0.0,0.0,0.0,0.0,-0.2962,-0.3281,-0.3486,-0.4057,-0.459,-0.4928,-0.5266,-0.5421,-0.5341,-0.5841,-0.6446,-0.711,-0.7773,-0.8474,-0.9275,-0.9817,-1.0107,-1.0107,-1.0234,-1.0303,-1.0303,-1.0303,-1.0303,-1.0303,-1.0303,-1.0303,-1.0303,-1.0303,-1.0234,-1.0088,-0.9747,-0.9542,-0.9416,-0.9114,-0.8936,-0.8789,-0.8369,-0.8053,-0.7827,-0.7725,-0.7695,-0.7695,-0.7695,-0.7924,-0.8219,-0.8317,-0.8682,-0.9085,-0.9165,-0.9419,-0.9681,-0.9681,-0.9521,-0.9285,-0.8963,-0.8659,-0.8343,-0.7928,-0.7841,-0.7812,-0.771,-0.7666,-0.762,-0.762,-0.7554,-0.7376,-0.6984,-0.6923,-0.6793,-0.6426,-0.6379,-0.6304,-0.6128,-0.609,-0.6144,-0.6307,-0.6243,-0.6001,-0.5572,-0.5073,-0.4566,-0.4027,-0.364,-0.3357,-0.3212,-0.3345,-0.3357,-0.32,-0.3405,-0.3466,0.0,0.0,0.0,0.0,0.0,0.0,0.0,0.0,0.0,0.0,0.0,0.0,0.0,0.0,0.0,0.0,0.0,0.0,0.0,0.0,0.0,0.0,-0.3473,-0.3872,-0.4164,-0.4674,-0.5177,-0.5631,-0.5816,-0.5916,-0.5916,-0.6405,-0.6899,-0.7323,-0.7986,-0.8684,-0.9374,-0.9771,-1.0059,-1.0303,-1.0303,-1.0303,-1.0303,-1.0089,-1.0118,-1.0303,-1.0098,-1.0118,-1.0303,-1.0303,-1.0303,-1.0293,-1.002,-0.9884,-0.9864,-0.9639,-0.9434,-0.9211,0.0,0.0,0.0,0.0,-0.81,-0.8197,-0.7822,-0.8119,-0.863,-0.8453,-0.8783,-0.9231,-0.9231,-0.9439,-0.9688,-0.9688,-0.9504,-0.9228,-0.889,-0.8503,-0.8115,-0.7783,-0.7695,-0.7695,-0.7695,-0.7695,-0.7695,-0.7695,-0.7695,0.0,-0.7345,-0.7227,-0.6993,-0.6479,-0.6402,-0.628,-0.5919,-0.5943,-0.6043,-0.6162,-0.6281,-0.6213,-0.5867,-0.5587,0.0,0.0,0.0,-0.3769,-0.3552,-0.3319,0.0,0.0,0.0,0.0,0.0,-0.3724,0.0,0.0,-0.3427,-0.3223,0.0,0.0,0.0,0.0,0.0,0.0,0.0,0.0,0.0,0.0,0.0,0.0,0.0,0.0,0.0,0.0,-0.3999,-0.4648,-0.503,-0.5294,-0.5645,-0.6135,-0.6223,-0.6243,-0.6243,-0.6864,-0.7278,-0.7336,-0.8014,-0.8655,-0.9179,-0.9379,0.0,0.0,0.0,-1.0186,-1.0147,-0.9736,-0.9766,-1.0225,-0.9805,-0.9844,-1.0303,-1.0303,-1.0303,-1.0303,-1.0303,-1.0303,-1.0303,-1.0303,-1.0049,-0.964,-0.9172,-0.9004,-0.8955,-0.86,-0.8682,-0.8896,-0.8119,0.0,0.0,-0.8659,-0.8809,-0.915,-0.915,-0.9313,-0.9487,-0.9437,-0.9338,-0.9185,-0.8839,-0.8454,-0.8072,-0.7768,-0.7695,-0.7695,-0.7695,-0.7695,-0.7695,-0.7695,-0.7695,-0.7695,-0.7695,-0.7552,-0.7189,-0.651,-0.6404,-0.6221,-0.5723,-0.5824,-0.5943,-0.5988,-0.6162,0.0,-0.6295,-0.6247,-0.5999,-0.5524,-0.5062,-0.4588,-0.4112,-0.3637,-0.3829,-0.4782,-0.4329,-0.4122,-0.4182,-0.4249,-0.4036,-0.3568,-0.3531,-0.3128,0.0,0.0,0.0,0.0,0.0,0.0,0.0,0.0,0.0,0.0,0.0,0.0,0.0,0.0,0.0,-0.4079,-0.475,-0.5454,-0.6172,-0.6314,-0.6311,-0.6209,-0.6398,-0.6526,-0.6526,-0.6848,-0.7224,-0.7587,-0.7867,-0.8201,-0.8635,-0.9079,-0.9259,-0.9102,-0.9459,-0.9527,-0.9257,-0.9148,-0.9319,-0.9746,-0.9638,0.0,-1.0303,-1.0303,-1.0303,-1.0303,-1.0303,-1.0303,-1.0303,-1.0303,-1.0254,-1.0097,-0.9307,-0.9004,-0.8994,-0.8916,-0.8936,-0.8984,-0.8818,-0.9075,-0.9474,-0.9396,-0.9678,-1.0048,-1.0048,-1.0067,0.0,-0.9664,-0.9321,-0.8965,-0.8579,-0.8138,-0.7783,-0.771,-0.7695,-0.7695,-0.7695,-0.7695,-0.7695,-0.7695,-0.7695,-0.7695,-0.7695,-0.7671,-0.736,-0.6525,-0.6398,-0.6165,-0.5537,-0.5489,-0.5639,-0.5961,-0.6034,-0.6126,-0.6286,-0.5903,-0.5608,-0.55,-0.5062,-0.4758,-0.4649,-0.4552,-0.4588,-0.4794,-0.4697,-0.4675,-0.4745,-0.4758,-0.4708,-0.4596,-0.3905,-0.3445,0.0,0.0,0.0,0.0,0.0,0.0,0.0,0.0,0.0,0.0,0.0,-0.2635,-0.3067,0.0,-0.4142,-0.4883,-0.542,-0.5958,-0.6527,-0.6713,-0.6754,-0.6607,-0.672,-0.6807,-0.6807,-0.7141,-0.7349,-0.7349,-0.7627,-0.7925,-0.818,-0.8459,-0.8655,-0.8748,-0.8978,-0.9039,-0.8898,-0.8695,-0.8837,-0.9299,-0.9299,-0.9538,-0.9952,-1.0196,-1.0303,-1.0303,-1.0303,-1.0303,-1.0303,-1.0303,-1.0303,-1.0263,-0.9814,-0.9648,-0.9619,-0.9387,-0.9453,-0.959,-0.916,-0.9424,-0.9903,-0.9689,-0.9932,-1.0303,-1.0303,-1.0303,-1.0254,-1.002,-0.9492,-0.8955,-0.875,-0.8197,-0.7695,-0.7695,-0.7695,-0.7695,-0.7695,-0.7695,-0.7695,-0.7695,-0.7695,-0.7695,-0.7695,-0.7695,-0.7404,-0.6531,-0.6394,-0.6117,-0.5353,-0.5338,-0.548,-0.5677,-0.5879,-0.6034,-0.6144,-0.5996,-0.5743,-0.5379,-0.5224,-0.5045,-0.4806,-0.4794,-0.4794,-0.4794,-0.4762,-0.4768,-0.4796,-0.4796,-0.4796,-0.479,-0.4451,-0.4281,0.0,0.0,0.0,0.0,0.0,0.0,0.0,0.0,-0.2101,-0.2262,-0.2646,-0.3166,-0.3834,-0.4224,-0.4716,-0.5563,-0.6018,-0.6379,-0.6633,-0.6874,-0.7,-0.7,-0.7,-0.7,-0.7,-0.7349,-0.7412,-0.7021,-0.7349,-0.7607,-0.7725,-0.7808,-0.8028,-0.839,-0.85,-0.8553,-0.8537,-0.8218,-0.8329,-0.8883,-0.8883,-0.9088,-0.9509,-0.9952,-1.0157,-1.0176,-1.0351,-1.0479,-1.0547,-1.0459,-1.042,-1.042,-1.0332,-1.0235,-1.0138,-0.9845,-0.998,-1.0205,-0.9492,-0.9707,-1.0244,-0.9854,-1.0,-1.0303,-1.0303,-1.0303,-1.0264,-1.0099,-0.9491,-0.8856,-0.8684,-0.8128,-0.7608,-0.7608,-0.7652,-0.7695,-0.7695,-0.7695,-0.7695,-0.7695,-0.7695,-0.7695,-0.7695,-0.7695,-0.7404,-0.6531,-0.6394,-0.6082,-0.5205,-0.5322,-0.549,-0.5529,-0.5827,-0.6001,-0.5945,-0.6126,-0.5995,-0.5392,-0.5508,-0.5441,-0.5113,-0.5094,-0.5094,-0.5094,-0.5027,-0.4994,-0.4994,-0.4994,-0.4987,-0.4972,-0.5168,-0.5199,-0.0795,-0.0784,-0.0857,-0.1162,-0.1252,-0.1434,0.0,0.0,-0.2409,-0.2889,-0.3086,-0.3365,-0.4043,-0.4762,-0.5443,-0.5968,-0.6522,-0.6911,-0.6953,-0.698,-0.7,-0.7,-0.7,-0.7,-0.7,-0.7042,-0.7063,-0.7,-0.7042,-0.7084,-0.7105,-0.7502,-0.7607,-0.7377,-0.7767,-0.7884,-0.7641,-0.7607,-0.7884,-0.8455,-0.8455,-0.868,-0.9076,-0.9489,-0.9687,-0.9716,-1.0502,-1.1064,-1.143,-1.0996,-1.084,-1.0801,-1.043,-1.005,-0.9717,-1.0079,-1.0263,-1.0293,-1.0195,-1.0224,-1.0293,-1.0244,-1.0263,-1.0303,-1.0303,-1.0303,-1.0137,-0.9376,-0.8865,-0.8378,-0.7598,-0.7322,-0.7255,-0.7255,-0.748,-0.7695,-0.7695,-0.7695,-0.7695,-0.7695,-0.7695,-0.7695,-0.7695,-0.7695,-0.7404,-0.6531,-0.6394,-0.6082,-0.5205,-0.5489,-0.5821,-0.6002,-0.6055,-0.5991,-0.5746,-0.5916,-0.5993,-0.5908,-0.5935,-0.6001,-0.6127,-0.6125,-0.6132,-0.6132,-0.6073,-0.6036,-0.6036,-0.6036,-0.6001,-0.5939,-0.6084,-0.5745,-0.0882,-0.0895,-0.0906,-0.1077,-0.1158,-0.1355,-0.1986,-0.227,-0.2594,-0.3211,-0.3515,-0.3832,-0.439,-0.4863,-0.5324,0.0,-0.6265,-0.6592,-0.6592,-0.6831,-0.7,-0.7,-0.7,-0.7,-0.7,-0.7,-0.7,-0.7,-0.7,-0.7,-0.7,-0.7189,-0.7231,-0.7097,-0.728,-0.7363,-0.7328,-0.7481,-0.7723,-0.8047,-0.856,-0.8895,-0.9084,-0.9598,-0.9834,-0.9865,-1.0551,-1.077,-1.0686,-1.0786,-1.0668,-1.035,-0.9974,-0.9709,-0.96,-1.0106,-1.0137,-0.9932,-1.0215,-1.0303,-1.0303,-1.0303,-1.0303,-1.0264,-0.9971,-0.9884,-0.9777,-0.9163,-0.8591,-0.807,-0.7697,-0.7264,-0.6918,-0.6918,-0.7157,-0.7412,-0.7412,-0.7554,-0.7695,-0.7695,-0.7695,-0.7695,-0.7695,-0.7695,-0.7404,-0.6531,-0.6394,-0.6191,-0.5586,-0.5675,-0.5969,-0.6411,-0.6239,-0.6055,-0.5949,-0.5868,-0.5778,-0.5658,-0.5835,-0.6002,-0.6122,-0.6161,-0.6197,-0.6242,-0.6177,-0.6141,-0.6141,-0.6102,-0.6063,-0.6048,-0.6221,-0.6109,-0.0827,-0.0812,-0.0793,-0.0944,-0.1161,-0.1489,-0.1994,-0.2476,-0.2965,-0.3502,-0.3798,-0.4111,-0.4635,-0.4845,-0.5096,-0.5572,-0.5932,-0.6182,-0.6289,-0.6592,-0.682,-0.6893,-0.6797,-0.6783,-0.688,-0.6953,-0.7,-0.7,-0.7,-0.7,-0.7,-0.7,-0.704,-0.7141,-0.7141,-0.7231,-0.7441,-0.763,-0.78,-0.7936,-0.8584,-0.8881,-0.8904,-0.9474,-0.9898,-1.0197,-1.0586,-1.0579,-1.035,-1.0639,-1.0518,-1.014,-0.9767,-0.9548,-0.9515,-1.0036,-0.989,-0.9489,-0.9824,-1.002,-1.0098,-0.9981,-1.002,-1.0011,-0.9569,-0.943,-0.935,-0.8955,-0.8383,-0.7844,-0.7628,-0.7148,-0.6682,-0.6612,-0.6904,-0.7196,-0.7196,-0.7456,-0.7695,-0.7695,-0.7695,-0.7695,-0.7695,-0.7695,-0.7404,-0.6531,-0.6394,-0.625,-0.5852,-0.589,-0.6171,-0.6728,-0.6368,-0.6063,-0.5967,-0.5742,-0.5547,-0.5386,-0.5631,-0.5837,-0.597,-0.6041,-0.6113,-0.6177,-0.6113,-0.6077,-0.6077,-0.6027,-0.5998,-0.5998,-0.615,-0.626,-0.0512,-0.0465,-0.0495,-0.0816,-0.1438,-0.2054,-0.2319,-0.2998,-0.3637,-0.3833,-0.3835,-0.3998,-0.4669,-0.4797,-0.4954,-0.5426,-0.5615,-0.5846,-0.6246,-0.631,-0.6387,-0.6594,-0.6329,-0.6249,-0.658,-0.6854,-0.7,-0.7,-0.7,-0.7,-0.7,-0.7,-0.7154,-0.7464,-0.7493,-0.7663,-0.8061,-0.8068,-0.8139,-0.828,-0.8311,-0.8318,-0.8341,-0.8881,-0.9658,-1.058,-1.0603,-1.0816,-1.114,-1.0757,-1.0603,-1.0537,-1.0148,-0.9709,-0.9366,-0.9837,-0.9589,-0.9016,-0.9036,-0.9299,-0.9559,-0.9168,-0.9299,-0.9549,-0.9128,-0.9016,-0.8935,-0.8537,-0.817,-0.7715,-0.6948,-0.6717,-0.6631,-0.6379,-0.677,-0.7196,-0.7196,-0.7456,-0.7695,-0.7695,-0.7695,-0.7695,-0.7695,-0.7695,-0.7404,-0.6531,-0.6394,-0.625,-0.5852,-0.6144,-0.6538,-0.6949,-0.6456,-0.5967,-0.564,-0.5492,-0.5379,-0.531,-0.5435,-0.5623,-0.5893,-0.5973,-0.6027,-0.6095,-0.6036,-0.5998,-0.5998,-0.5998,-0.5998,-0.5998,-0.5998,-0.618,-0.0786,-0.0808,-0.0867,-0.0898,-0.1219,-0.1679,-0.2216,-0.2788,-0.33,-0.3684,-0.3761,-0.3783,-0.3919,-0.402,-0.4114,-0.4282,-0.4679,-0.5135,-0.5583,-0.5974,-0.6249,-0.6333,-0.655,0.0,0.0,-0.6399,-0.6574,-0.6965,-0.7,-0.7,-0.7,-0.7,-0.7161,-0.75,-0.7513,-0.7661,-0.797,-0.8196,-0.8322,-0.8371,-0.8637,-0.8809,-0.8903,-0.9073,-0.9351,-0.97,-1.0147,-1.0218,-1.002,-1.0337,-1.0256,-0.989,-0.9599,-0.9379,-0.9236,-0.9151,-0.8997,-0.8855,-0.9206,-0.9274,-0.9188,-0.9036,-0.9096,-0.9128,-0.8712,-0.8598,-0.8516,-0.8064,-0.7699,-0.7374,-0.7109,-0.6863,-0.6637,-0.6366,-0.6771,-0.7132,-0.6926,-0.7309,-0.7695,-0.7695,-0.7695,-0.7695,-0.7695,-0.7695,-0.7404,-0.6531,-0.6394,-0.6236,-0.5794,-0.6587,-0.7121,-0.6952,-0.6469,-0.6121,-0.6015,-0.5463,-0.5117,-0.5108,-0.5301,-0.5503,-0.5623,-0.5817,-0.5964,-0.6027,-0.6018,-0.5998,-0.5998,-0.5998,-0.5998,-0.5998,-0.6141,-0.626,-0.081,-0.0853,-0.0902,-0.084,-0.112,-0.1523,-0.1955,-0.2457,-0.2947,-0.3361,-0.3406,-0.3399,-0.342,-0.3502,-0.3567,-0.363,-0.3996,-0.4474,-0.5043,-0.5448,-0.5738,-0.584,-0.6038,-0.6178,0.0,-0.5972,-0.6167,-0.6938,-0.7,-0.7,-0.7,-0.7121,-0.7321,-0.7622,-0.7759,-0.796,-0.8218,-0.843,-0.8556,-0.8556,-0.8796,-0.9008,-0.914,-0.914,-0.9159,-0.9237,-0.9666,-0.964,-0.9361,-0.9803,-0.9803,-0.9521,-0.9333,-0.9303,-0.9307,-0.9094,-0.8955,-0.8889,-0.8996,-0.8986,-0.8886,-0.8631,-0.8651,-0.8712,-0.827,-0.8147,-0.8085,-0.7774,-0.7545,-0.7355,-0.7238,-0.7037,-0.6786,-0.639,-0.6768,-0.7111,-0.6776,-0.7225,-0.7695,-0.7695,-0.7695,-0.7695,-0.7695,-0.7433,-0.7047,-0.6482,-0.6256,-0.6094,-0.5932,-0.6636,-0.707,-0.6884,-0.6344,-0.597,-0.5914,-0.5327,-0.4951,-0.4931,-0.5205,-0.5388,-0.5463,-0.5754,-0.5927,-0.5998,-0.5998,-0.5998,-0.5998,-0.5998,-0.5998,-0.5998,-0.6206,-0.6325,-0.0597,-0.0624,-0.0639,-0.0682,-0.1139,-0.1596,-0.1595,-0.2053,-0.2571,-0.2879,-0.2828,-0.284,-0.3163,-0.3234,-0.3298,-0.3453,-0.3585,-0.394,-0.4687,-0.4779,-0.4878,0.0,0.0,0.0,0.0,0.0,-0.5873,-0.6917,-0.7,-0.7006,-0.702,-0.7337,-0.7638,-0.7919,-0.823,-0.8543,-0.8804,-0.8804,-0.8804,-0.8804,-0.8804,-0.8857,-0.8982,-0.8982,-0.9061,-0.9185,-0.9185,-0.9185,-0.9185,-0.9185,-0.9283,-0.9387,-0.9387,-0.9465,-0.9588,-0.9588,-0.9413,-0.9109,-0.8473,-0.8475,-0.8684,-0.7985,-0.8048,-0.8294,-0.7866,-0.7705,-0.7691,-0.7691,-0.7691,-0.7618,-0.7311,-0.7251,-0.7109,-0.6503,-0.6807,-0.7153,-0.6802,-0.7244,-0.7695,-0.7695,-0.7695,-0.7695,-0.7695,-0.6966,-0.6382,-0.6382,-0.5976,-0.5796,-0.6189,-0.6263,-0.6407,-0.6726,-0.6053,-0.555,-0.5435,-0.5121,-0.4901,-0.4822,-0.5137,-0.5359,-0.5415,-0.5725,-0.5927,-0.5998,-0.5998,-0.5998,-0.5998,-0.5998,-0.5998,-0.6027,-0.6224,-0.6388,-0.0716,-0.0852,-0.0987,-0.0763,-0.1082,-0.1447,-0.1459,-0.1838,-0.2177,-0.2117,-0.2076,-0.2093,-0.2239,-0.246,-0.2729,-0.3015,-0.3245,0.0,-0.4404,-0.4578,0.0,-0.4878,0.0,-0.5524,-0.573,-0.5941,-0.6328,-0.6951,-0.7,-0.7121,-0.7363,-0.745,-0.7732,-0.8243,-0.8362,-0.8543,-0.8804,-0.8804,-0.8804,-0.8804,-0.8804,-0.8804,-0.8857,-0.8857,-0.8857,-0.891,-0.9008,-0.9061,-0.9061,-0.9159,-0.9211,-0.9256,-0.9256,-0.9256,-0.9309,-0.9309,-0.9266,-0.9146,-0.8823,-0.8727,-0.8684,-0.8511,-0.8364,-0.823,-0.8099,-0.7888,-0.7691,-0.7691,-0.7691,-0.7676,-0.7596,-0.7832,-0.7907,-0.7151,-0.7544,-0.7909,-0.7219,-0.7406,-0.7695,-0.7695,-0.7656,-0.7618,-0.7618,-0.6863,-0.6251,-0.6251,-0.5639,-0.522,-0.5314,-0.5852,-0.6225,-0.6202,-0.5754,-0.5559,-0.5823,-0.549,-0.5198,-0.5039,-0.5481,-0.5715,-0.5626,-0.58,-0.5927,-0.5998,-0.5998,-0.5998,-0.5998,-0.5998,-0.6084,-0.6224,-0.6376,-0.6525,-0.0748,-0.0832,-0.0936,-0.0737,-0.0907,-0.1084,-0.11,-0.1242,-0.1418,-0.1471,-0.1473,-0.1537,-0.1838,-0.2104,-0.2389,-0.2746,0.0,0.0,-0.3925,-0.4162,-0.4338,0.0,-0.484,0.0,-0.5373,-0.561,-0.6057,-0.6855,-0.7106,-0.731,-0.7484,-0.7745,-0.8047,-0.8389,-0.8523,-0.8644,-0.8804,-0.8804,-0.8804,-0.8804,-0.8804,-0.8804,-0.8804,-0.8804,-0.8804,-0.8804,-0.8883,-0.891,-0.891,-0.8982,-0.9061,-0.9106,-0.9106,-0.9133,-0.9211,-0.9211,-0.9211,-0.9183,-0.9059,-0.8991,-0.8886,-0.8678,-0.8437,-0.8219,-0.8082,-0.7888,-0.7724,-0.7602,-0.7566,-0.7607,-0.7787,-0.8036,-0.8067,-0.7471,-0.7692,-0.7844,-0.7057,-0.7044,-0.7211,-0.7368,-0.7471,-0.7559,-0.7559,-0.6797,-0.619,-0.619,-0.5489,-0.4951,-0.4951,-0.5503,-0.5848,-0.5753,-0.5534,-0.5488,-0.5714,-0.5534,-0.5393,-0.5367,-0.573,-0.5868,-0.5704,-0.5858,-0.5966,-0.5998,-0.5998,-0.5998,-0.5998,-0.5998,-0.6054,-0.6168,-0.634,-0.646,-0.0699,-0.0699,-0.0696,-0.0692,-0.0693,-0.0693,-0.0685,-0.0598,-0.0603,-0.0941,-0.0955,-0.1086,-0.1634,-0.1908,-0.2165,-0.2573,0.0,-0.318,-0.3482,-0.3713,-0.3902,-0.4086,-0.4214,-0.4469,-0.4961,-0.5048,-0.552,-0.6574,-0.7138,-0.7497,-0.7605,-0.8114,-0.8415,-0.8456,-0.8677,-0.8804,-0.8804,-0.8804,-0.8752,-0.8672,-0.8672,-0.8672,-0.8672,-0.8672,-0.8725,-0.8804,-0.8804,-0.8804,-0.8804,-0.8804,-0.8857,-0.8982,-0.8982,-0.9035,-0.9133,-0.9133,-0.9133,-0.9133,-0.9159,-0.9159,-0.9094,-0.8703,-0.848,-0.8294,-0.7957,-0.7838,-0.774,-0.7483,-0.7398,-0.7475,-0.7842,-0.7959,-0.7903,-0.7576,-0.7539,-0.7406,-0.6714,-0.6522,-0.6579,-0.6874,-0.719,-0.7416,-0.7362,-0.6737,-0.6238,-0.6188,-0.5489,-0.4957,-0.4957,-0.5226,-0.5406,-0.5399,-0.5397,-0.5397,-0.5397,-0.5465,-0.5545,-0.5615,-0.587,-0.592,-0.5704,-0.5887,-0.5995,-0.5998,-0.5998,-0.5998,-0.5998,-0.5988,-0.6,-0.6018,-0.6194,-0.6328,-0.0676,-0.0693,-0.0691,-0.071,-0.0699,-0.0681,-0.063,-0.0549,0.0,-0.052,-0.0515,-0.0583,-0.0858,-0.134,-0.183,-0.2301,-0.2685,-0.3102,-0.3602,-0.3598,-0.3694,0.0,-0.413,-0.4368,-0.4944,-0.5351,-0.5669,-0.5886,-0.6683,-0.7489,-0.8203,-0.8342,-0.8509,-0.8724,-0.8784,-0.8804,-0.8804,-0.8804,-0.856,-0.8064,-0.8064,-0.8064,-0.8064,-0.8064,-0.8335,-0.8804,-0.8804,-0.8804,-0.8804,-0.8804,-0.8804,-0.8831,-0.8831,-0.8857,-0.8857,-0.8857,-0.8857,-0.8883,-0.9008,-0.8956,-0.889,-0.904,-0.8875,-0.8585,-0.8308,-0.8012,-0.774,-0.7483,-0.7398,-0.7412,-0.7475,-0.7759,-0.7902,-0.7507,-0.751,-0.7461,-0.6934,-0.6655,-0.6518,-0.6579,-0.6807,-0.6906,-0.6641,-0.6549,-0.6439,-0.616,-0.5655,-0.5309,-0.5309,-0.5079,-0.5041,-0.5371,-0.5397,-0.5397,-0.5397,-0.586,-0.5869,-0.5243,-0.5754,-0.5961,-0.5713,-0.5839,-0.5936,-0.5998,-0.5998,-0.5998,-0.5998,-0.5945,-0.5975,-0.6086,-0.618,-0.6313,-0.0688,-0.0707,-0.069,-0.0703,-0.0683,-0.0639,-0.0612,-0.0519,-0.0439,-0.0414,-0.0399,-0.0468,-0.0668,-0.1161,-0.1667,-0.2037,-0.2552,-0.3008,-0.3334,-0.3451,-0.3598,-0.3862,-0.395,-0.4148,-0.4495,-0.4821,-0.5214,-0.5675,-0.6183,-0.6726,-0.7339,-0.7579,-0.779,-0.7916,-0.7916,-0.7916,-0.7916,-0.7916,-0.7777,-0.7482,-0.7482,-0.7482,-0.7482,-0.7482,-0.7643,-0.7916,-0.7916,-0.7916,-0.7916,-0.7916,-0.7916,-0.7916,-0.7916,-0.8076,-0.8335,-0.8335,-0.8533,-0.8811,-0.8883,-0.8857,-0.8831,-0.8956,-0.8886,-0.8682,-0.8225,-0.7986,-0.7752,-0.7311,-0.7196,-0.7238,-0.7482,-0.771,-0.7793,-0.7607,-0.7199,-0.6759,-0.636,-0.6201,-0.6137,-0.6137,-0.6375,-0.6597,-0.6611,-0.6459,-0.6347,-0.6356,-0.5811,-0.5397,-0.5397,-0.505,-0.4948,-0.5351,-0.5397,-0.5488,-0.5696,-0.6166,-0.6156,-0.5454,-0.6002,-0.6158,-0.5715,-0.5858,-0.5966,-0.5998,-0.5998,-0.5991,-0.5945,-0.5909,-0.5957,-0.6048,-0.6079,-0.6242,-0.0695,-0.0697,-0.0689,-0.0673,-0.0646,-0.058,-0.0509,-0.0446,-0.038,-0.0323,-0.0364,-0.0449,-0.0604,-0.1052,-0.1499,-0.1804,-0.2347,-0.2825,-0.3102,-0.3309,-0.3496,-0.3676,-0.3788,0.0,-0.4042,-0.4347,-0.4785,-0.5369,-0.5613,-0.5957,-0.653,-0.6906,-0.7112,-0.7112,-0.7112,-0.7112,-0.7112,-0.7112,-0.7025,-0.6918,-0.6918,-0.6918,-0.6918,-0.6918,-0.6977,-0.7112,-0.7112,-0.7112,-0.7112,-0.7112,-0.7112,-0.7112,-0.7112,-0.7348,-0.7738,-0.7738,-0.8096,-0.8613,-0.8613,-0.8699,-0.8804,-0.8804,-0.8804,-0.8697,-0.8085,-0.7905,-0.7779,-0.7173,-0.7,-0.7084,-0.7454,-0.7558,-0.7536,-0.7471,-0.6819,-0.6109,-0.5778,-0.5697,-0.5686,-0.5686,-0.5967,-0.6276,-0.6535,-0.6397,-0.6344,-0.6605,-0.608,-0.5625,-0.5543,-0.5176,-0.505,-0.536,-0.5397,-0.5534,-0.585,-0.6281,-0.63,-0.5739,-0.6163,-0.6216,-0.5705,-0.5841,-0.595,-0.6,-0.6,-0.5973,-0.5902,-0.5909,-0.5936,-0.5982,-0.6045,-0.6198,-0.0695,-0.0697,-0.0683,-0.0627,-0.0611,-0.0517,-0.0208,-0.0278,-0.0337,-0.0084,-0.0225,-0.0405,-0.0427,-0.0764,-0.1197,-0.1645,-0.1972,-0.2425,-0.3168,-0.3202,-0.3266,-0.3662,0.0,0.0,-0.3902,-0.4594,-0.4889,-0.4541,-0.4935,-0.572,-0.6983,-0.709,-0.7112,-0.7112,-0.7112,-0.7112,-0.7112,-0.7112,-0.6837,-0.629,-0.629,-0.629,-0.629,-0.629,-0.6593,-0.7112,-0.7112,-0.7112,-0.7112,-0.7112,-0.7112,-0.7112,-0.7112,-0.7139,-0.716,-0.716,-0.7509,-0.7978,-0.7978,-0.8335,-0.8804,-0.8804,-0.8804,-0.8697,-0.8085,-0.7905,-0.7779,-0.7173,-0.7,-0.7,-0.7042,-0.7063,-0.6996,-0.6754,-0.6444,-0.6109,-0.5778,-0.5517,-0.534,-0.534,-0.5624,-0.5858,-0.5889,-0.6358,-0.6747,-0.6785,-0.6622,-0.6361,-0.5984,-0.5598,-0.5351,-0.5388,-0.5397,-0.5415,-0.5452,-0.5994,-0.6146,-0.5731,-0.5865,-0.5857,-0.5626,-0.5681,-0.5813,-0.5998,-0.6002,-0.5973,-0.5902,-0.5964,-0.5964,-0.5909,-0.6153,-0.6286,-0.0639,-0.0641,-0.0593,-0.0401,-0.0357,-0.0276,0.0068,0.0046,-0.0028,0.0,-0.0113,-0.0259,-0.0382,-0.07,-0.1007,-0.1237,-0.1747,-0.2255,-0.2688,-0.2946,-0.3198,-0.3433,-0.3561,-0.3682,0.0,-0.4256,-0.4601,-0.4703,-0.5022,-0.5414,-0.5875,-0.5963,-0.6032,-0.6032,-0.6032,-0.6032,-0.6032,-0.6032,-0.5896,-0.5645,-0.5645,-0.5645,-0.5645,-0.5645,-0.5782,-0.6032,-0.6032,-0.6032,-0.6032,-0.6032,-0.6032,-0.6032,-0.6032,-0.6245,-0.6561,-0.6561,-0.6912,-0.7477,-0.7791,-0.8064,-0.8315,-0.8672,-0.8804,-0.8697,-0.8085,-0.7796,-0.7562,-0.712,-0.7,-0.7,-0.7,-0.7,-0.6973,-0.686,-0.6512,-0.6162,-0.6023,-0.5628,-0.5293,-0.5293,-0.5404,-0.5561,-0.5764,-0.6191,-0.6573,-0.6777,-0.6688,-0.6452,-0.6048,-0.565,-0.5306,-0.5068,-0.5251,-0.5497,-0.5741,-0.5987,-0.5952,-0.5545,-0.5761,-0.5775,-0.5494,-0.57,-0.5876,-0.6,-0.5957,-0.5945,-0.5964,-0.5945,-0.6009,-0.6144,-0.6242,-0.6369,-0.0557,-0.0524,-0.0427,-0.024,-0.0146,0.0,0.0317,0.0287,0.0181,0.0109,-0.0012,-0.0157,-0.036,-0.0586,-0.0813,-0.0968,-0.1537,-0.2063,-0.2407,-0.2829,-0.3175,-0.3374,0.0,-0.3622,-0.366,-0.4036,-0.4443,-0.4782,-0.5111,-0.5248,-0.5118,-0.5228,-0.5297,-0.5297,-0.5297,-0.5297,-0.5297,-0.5297,-0.5297,-0.5297,-0.5297,-0.5297,-0.5297,-0.5297,-0.5297,-0.5297,-0.5297,-0.5297,-0.5297,-0.5297,-0.5297,-0.5297,-0.5297,-0.5567,-0.5941,-0.5941,-0.6322,-0.6891,-0.7257,-0.7631,-0.7978,-0.8395,-0.8528,-0.8445,-0.8032,-0.7776,-0.7522,-0.7113,-0.7,-0.7,-0.7,-0.7,-0.7,-0.7,-0.66,-0.6196,-0.6196,-0.5732,-0.5293,-0.5293,-0.5293,-0.5404,-0.5749,-0.5998,-0.626,-0.6604,-0.6655,-0.6515,-0.6117,-0.5874,-0.5607,-0.5203,-0.5404,-0.5686,-0.5975,-0.6002,-0.5914,-0.5736,-0.5796,-0.5743,-0.5533,-0.5728,-0.5895,-0.6,-0.5941,-0.5927,-0.5998,-0.5927,-0.6,-0.6216,-0.6269,-0.6413,-0.045,-0.0364,-0.0194,-0.0203,0.0,0.0266,0.0538,0.0396,0.022,0.0283,0.0083,-0.0157,-0.036,-0.0408,-0.0531,-0.0941,-0.1343,-0.1844,-0.2509,-0.2888,-0.3232,0.0,-0.36,-0.3604,-0.3604,-0.4155,-0.4515,-0.4593,-0.5047,-0.5248,-0.5118,-0.5228,-0.5297,-0.5297,-0.5297,-0.5297,-0.5297,-0.5297,-0.5297,-0.5297,-0.5297,-0.5297,-0.5297,-0.5297,-0.5297,-0.5297,-0.5297,-0.5297,-0.5297,-0.5297,-0.5297,-0.5297,-0.5297,-0.5301,-0.5301,-0.5301,-0.57,-0.6209,-0.6209,-0.6961,-0.7898,-0.7898,-0.7911,-0.7912,-0.7912,-0.7905,-0.7779,-0.7173,-0.7,-0.7,-0.7,-0.7,-0.7,-0.7,-0.66,-0.6196,-0.6196,-0.5732,-0.5293,-0.5293,-0.5293,-0.5404,-0.5749,-0.5796,-0.592,-0.6253,-0.658,-0.6645,-0.6247,-0.6429,-0.6434,-0.6029,-0.5984,-0.5993,-0.6002,-0.6002,-0.6142,-0.6474,-0.6001,-0.5733,-0.5796,-0.5739,-0.5795,-0.6,-0.5941,-0.5927,-0.5998,-0.5927,-0.5936,-0.6007,-0.6207,-0.6413,0.0017,-0.0034,-0.0035,0.0329,0.0483,0.0593,0.0815,0.0778,0.0603,0.0347,0.0191,0.0,-0.0337,-0.0403,-0.0459,-0.0627,-0.0956,-0.1407,-0.2035,-0.225,0.0,-0.3502,-0.3758,-0.3896,-0.4001,-0.4179,-0.4345,-0.4462,-0.4821,-0.498,-0.4901,-0.4892,-0.4884,-0.4884,-0.4884,-0.4743,-0.4411,-0.4411,-0.4411,-0.4411,-0.4411,-0.4577,-0.4884,-0.4884,-0.505,-0.5297,-0.5297,-0.5297,-0.5297,-0.5297,-0.5297,-0.5297,-0.5297,-0.5297,-0.5297,-0.5297,-0.5434,-0.565,-0.605,-0.6696,-0.7423,-0.7791,-0.8062,-0.8196,-0.7972,-0.7619,-0.7246,-0.7053,-0.7,-0.7,-0.7,-0.7,-0.7,-0.7,-0.66,-0.6196,-0.6196,-0.5732,-0.5372,-0.5592,-0.5451,-0.5404,-0.5749,-0.5796,-0.5811,-0.5828,-0.6268,-0.6455,-0.6051,-0.6227,-0.6251,-0.59,-0.6109,-0.6313,-0.6402,-0.6287,-0.6379,-0.6817,-0.6341,-0.6044,-0.6075,-0.5873,-0.5785,-0.5795,-0.5726,-0.5771,-0.5927,-0.5817,-0.5907,-0.6207,-0.6413,-0.6547,0.0275,0.0248,0.0284,0.0589,0.0732,0.0829,0.0907,0.0906,0.0769,0.0321,0.0232,0.0106,-0.0318,-0.0402,-0.0409,-0.0449,-0.0759,-0.1165,-0.1608,0.0,0.0,-0.3306,-0.3565,-0.3777,-0.41,-0.423,-0.4311,-0.4321,-0.4673,-0.4883,-0.4838,-0.4706,-0.4577,-0.4439,-0.4439,-0.4301,-0.3996,-0.3996,-0.3996,-0.3996,-0.3996,-0.4162,-0.4439,-0.4605,-0.4829,-0.5077,-0.5242,-0.5297,0.0,-0.5297,-0.5297,-0.5297,-0.5297,-0.5297,-0.5297,-0.5297,-0.5297,-0.538,-0.5996,-0.6506,-0.6998,-0.757,-0.7892,-0.8,-0.7652,-0.7299,-0.7,-0.7,-0.7,-0.7,-0.7,-0.7,-0.7,-0.7,-0.66,-0.6196,-0.6196,-0.5732,-0.5404,-0.5733,-0.5529,-0.5404,-0.5749,-0.5733,-0.5663,-0.5578,-0.6052,-0.6348,-0.6118,-0.6347,-0.6454,-0.6277,-0.6477,-0.6661,-0.6746,-0.6505,-0.652,-0.6967,-0.6376,-0.6094,-0.6265,-0.594,-0.5737,-0.5709,-0.5633,-0.5697,-0.5902,-0.576,-0.5824,-0.6081,-0.6207,-0.6295,0.0,0.0511,0.0677,0.0644,0.0822,0.0977,0.0843,0.0861,0.0,0.0246,0.0229,0.0165,-0.0293,-0.0384,-0.0408,-0.0405,-0.0729,-0.1058,-0.1284,-0.1665,0.0,0.0,-0.3089,-0.3369,-0.3924,-0.4268,-0.4392,-0.4225,-0.4635,-0.4869,-0.4871,-0.4626,-0.4325,-0.3993,-0.3965,-0.3938,-0.391,-0.391,-0.391,-0.391,-0.391,-0.391,-0.3968,-0.4411,-0.4632,-0.466,-0.5077,-0.5246,-0.5274,-0.5297,-0.5297,-0.5297,-0.5297,-0.5297,-0.5297,-0.5297,-0.5297,-0.538,-0.5941,-0.6347,-0.6746,-0.7343,-0.7518,-0.743,-0.7108,-0.7,-0.7,-0.7,-0.7,-0.7,-0.7,-0.7,-0.7,-0.7,-0.6613,-0.6216,-0.6196,-0.5746,-0.5415,-0.574,-0.5529,-0.5404,-0.5733,-0.5624,-0.5491,-0.5491,-0.5951,-0.6307,-0.639,-0.668,-0.6906,-0.6972,-0.6987,-0.6987,-0.6987,-0.6673,-0.6648,-0.7025,-0.6288,-0.6033,-0.6468,-0.6038,-0.5777,-0.5731,-0.5695,-0.5751,-0.591,-0.5824,-0.5789,-0.5793,-0.5779,-0.5893,0.0769,0.0,0.0681,0.0916,0.1022,0.1052,0.0,0.097,0.0888,0.0554,0.0381,0.0219,-0.0041,-0.0259,-0.0421,-0.0472,-0.0603,-0.0847,-0.1321,-0.1905,0.0,-0.211,-0.2916,-0.3542,-0.3677,-0.4048,-0.4282,-0.4347,-0.4516,-0.462,-0.4662,-0.4412,-0.4135,-0.3852,-0.3491,-0.3216,-0.2996,-0.2996,-0.2996,-0.2996,-0.2996,-0.319,-0.3552,-0.3663,-0.3885,-0.419,-0.4636,-0.4829,-0.4857,-0.516,-0.5297,-0.5297,-0.5297,-0.5297,-0.5297,-0.5297,-0.5297,-0.5325,-0.5462,-0.6158,-0.7071,-0.7629,-0.7676,-0.743,-0.7108,-0.7,-0.7,-0.7,-0.7,-0.7,-0.7,-0.7,-0.7,-0.7,-0.6747,-0.6445,-0.6243,-0.5889,-0.5644,-0.5784,-0.5529,-0.5372,-0.5602,-0.557,-0.5491,-0.5437,-0.5836,-0.6183,-0.6307,-0.6528,-0.671,-0.6833,-0.6848,-0.6848,-0.6848,-0.7137,-0.7377,-0.7525,-0.7289,-0.721,-0.731,-0.6913,-0.6478,-0.6014,-0.624,-0.626,-0.6044,-0.6433,-0.6675,-0.676,-0.6559,-0.6654,0.0846,0.0818,0.0817,0.0976,0.1031,0.1035,0.0973,0.0981,0.0931,0.0648,0.0514,0.0379,0.0173,-0.0081,-0.0271,-0.0311,-0.0448,-0.0691,0.0,0.0,-0.1741,-0.1807,-0.2374,-0.2986,-0.3544,-0.3787,-0.4072,-0.4422,-0.4475,-0.4533,-0.4644,-0.4313,-0.4079,-0.3993,-0.3299,-0.2856,-0.2691,-0.2691,-0.2691,-0.2691,-0.2691,-0.283,-0.3079,-0.3302,-0.3524,-0.3774,-0.4411,-0.4691,-0.4743,-0.5132,-0.5297,-0.5297,-0.5297,-0.5297,-0.5297,-0.5297,-0.5297,-0.5352,-0.5618,-0.633,-0.7106,-0.7139,-0.7217,-0.7235,-0.7046,-0.7,-0.7,-0.7,-0.7,-0.7,-0.7,-0.7,-0.7,-0.7,-0.68,-0.6533,-0.6256,-0.5943,-0.5726,-0.5791,-0.5529,-0.5372,-0.5571,-0.5625,-0.5617,-0.5578,-0.596,-0.6291,-0.6421,-0.6535,-0.6649,-0.6781,-0.6796,-0.6796,-0.6796,-0.7154,-0.7442,-0.7603,-0.7364,-0.7326,-0.7546,-0.7145,-0.6755,-0.6426,-0.6594,-0.6605,-0.6416,-0.6716,-0.6868,-0.6917,-0.6767,-0.68,0.0777,0.0887,0.0977,0.0934,0.0962,0.0988,0.0935,0.0,0.0,0.0,0.0,0.055,0.0339,0.0129,-0.0056,-0.0166,-0.0382,-0.0594,-0.0775,-0.0869,-0.1079,-0.1589,-0.1734,-0.2209,-0.3236,-0.3486,-0.3821,-0.4322,-0.4436,-0.4546,-0.466,-0.4298,-0.4107,-0.4166,-0.333,-0.2884,-0.283,-0.2661,-0.2605,-0.2635,-0.2663,-0.2691,-0.2719,-0.3107,-0.3302,-0.333,-0.4218,-0.4608,-0.4632,-0.5105,-0.5297,-0.5297,-0.5297,-0.5297,-0.5297,-0.5297,-0.5297,-0.5375,-0.5959,-0.6473,-0.6794,-0.6488,-0.6602,-0.6915,-0.6979,-0.7006,-0.6985,-0.6985,-0.6979,-0.7,-0.7,-0.6979,-0.6979,-0.7,-0.6813,-0.658,-0.6286,-0.5974,-0.5756,-0.5823,-0.5554,-0.5369,-0.5547,-0.5704,-0.5775,-0.5764,-0.6114,-0.6413,-0.658,-0.6565,-0.6604,-0.672,-0.6705,-0.6697,-0.672,-0.6908,-0.7169,-0.749,-0.7163,-0.7141,-0.7594,-0.7162,-0.6902,-0.6902,-0.695,-0.695,-0.689,-0.6938,-0.6931,-0.688,-0.6821,-0.6784,0.0777,0.0856,0.0933,0.0977,0.0995,0.0999,0.0989,0.0995,0.0,0.0,0.0,0.0,0.0,0.0311,0.0133,-0.0427,-0.0601,-0.0695,-0.079,-0.0856,-0.0945,-0.1033,-0.1483,-0.1874,-0.2068,-0.2986,-0.3627,-0.3738,-0.4211,-0.4519,-0.4519,-0.4463,-0.4298,-0.4052,-0.3885,-0.3691,-0.3471,-0.2575,-0.2155,-0.2268,-0.2437,-0.2577,-0.2691,-0.2775,-0.2802,-0.2858,-0.3716,-0.4104,-0.4162,-0.4967,-0.5297,-0.5297,-0.5297,-0.5297,-0.5297,-0.5297,-0.5297,-0.5359,-0.5809,-0.5869,-0.5857,-0.6515,-0.6584,-0.6486,-0.6873,-0.6964,-0.6914,-0.6914,-0.6964,-0.7,-0.7,-0.6964,-0.6929,-0.6979,-0.6931,-0.677,-0.6435,-0.6148,-0.5958,-0.5966,-0.5644,-0.5407,-0.5492,-0.5628,-0.5691,-0.5645,-0.5929,-0.6252,-0.6565,-0.6452,-0.6353,-0.6376,-0.6283,-0.6245,-0.6376,-0.6558,-0.6912,-0.746,-0.7598,-0.7789,-0.8083,-0.7638,-0.739,-0.739,-0.761,-0.7595,-0.7307,-0.7531,-0.7679,-0.7701,-0.7367,-0.7357,0.0777,0.0849,0.091,0.0985,0.1027,0.1052,0.1052,0.1052,0.1061,0.0,0.0,0.0,0.0,0.0,0.0401,-0.0283,-0.0449,-0.0562,-0.0825,-0.0884,-0.091,-0.0896,-0.1149,-0.1456,-0.1762,-0.2291,-0.2903,-0.3544,-0.3849,-0.4156,-0.4491,-0.4491,-0.4371,-0.4109,-0.3833,-0.362,-0.3485,-0.2421,-0.2088,-0.2465,-0.224,-0.2184,-0.2324,-0.2408,-0.2439,-0.2534,-0.3263,-0.3548,-0.3565,-0.4402,-0.4801,-0.4885,-0.5099,-0.524,-0.5285,-0.5216,-0.5179,-0.5192,-0.5161,-0.5239,-0.5429,-0.6024,-0.6239,-0.638,-0.6816,-0.6935,-0.6872,-0.6815,-0.6808,-0.6851,-0.6851,-0.6808,-0.6793,-0.6829,-0.6808,-0.671,-0.642,-0.6253,-0.6117,-0.5925,-0.5748,-0.5605,-0.56,-0.5773,-0.5898,-0.5833,-0.6094,-0.6315,-0.6322,-0.6314,-0.6238,-0.6044,-0.5975,-0.5998,-0.6176,-0.6345,-0.674,-0.7451,-0.7827,-0.8062,-0.8187,-0.7994,-0.788,-0.788,-0.8003,-0.7962,-0.7776,-0.7728,-0.7655,-0.7574,-0.7381,-0.7358,0.0827,0.086,0.0891,0.0982,0.1027,0.1059,0.1088,0.1082,0.1093,0.0,0.0,0.0,0.0,0.0952,0.0579,0.0157,-0.0122,-0.0387,-0.069,-0.0823,-0.0898,-0.0898,-0.0898,-0.1093,-0.154,-0.1706,-0.2179,-0.3098,-0.343,-0.3735,-0.407,-0.4207,-0.4139,-0.3822,-0.3423,-0.3253,-0.3386,-0.2306,-0.2039,-0.2577,-0.2017,-0.182,-0.1958,-0.2055,-0.2101,-0.2181,-0.2766,-0.2995,-0.3016,-0.3863,-0.4282,-0.4444,-0.4861,-0.5074,-0.513,-0.502,-0.4993,-0.4923,-0.4562,-0.4684,-0.5084,-0.5471,-0.5819,-0.6167,-0.6696,-0.6829,-0.6787,-0.6687,-0.6645,-0.6651,-0.6687,-0.6666,-0.6666,-0.6694,-0.6666,-0.6603,-0.6396,-0.6301,-0.6192,-0.5996,-0.5895,-0.5839,-0.5794,-0.5958,-0.6079,-0.6093,-0.6355,-0.648,-0.6305,-0.6354,-0.6265,-0.5902,-0.5837,-0.5922,-0.6183,-0.6362,-0.6725,-0.7372,-0.7856,-0.8101,-0.8101,-0.8158,-0.8201,-0.8201,-0.8144,-0.8058,-0.7953,-0.7642,-0.7373,-0.7163,-0.7163,-0.7178,0.0956,0.0894,0.0839,0.0971,0.0962,0.0952,0.1067,0.1049,0.1042,0.1179,0.0,0.0,0.0,0.0713,0.0606,0.087,0.0278,-0.0212,-0.0239,-0.0631,-0.0898,-0.0898,-0.0898,-0.0926,-0.0953,-0.1484,-0.1846,-0.193,-0.2959,-0.3375,-0.2847,-0.3302,-0.3319,-0.2729,-0.2666,-0.2873,-0.3307,-0.2245,-0.1885,-0.224,-0.1822,-0.1682,-0.1815,-0.1763,-0.1737,-0.1781,-0.2259,-0.2499,-0.2618,-0.3543,-0.4019,-0.4172,-0.4647,-0.4762,-0.4653,-0.4642,-0.4638,-0.4586,-0.4309,-0.4314,-0.4558,-0.5137,-0.5351,-0.5545,-0.6447,-0.6617,-0.652,-0.6526,-0.6468,-0.6459,-0.6651,-0.6617,-0.6547,-0.6666,-0.6596,-0.652,-0.6495,-0.6296,-0.6191,-0.64,-0.6198,-0.6006,-0.6072,-0.6026,-0.6084,-0.6325,-0.6557,-0.6731,-0.6827,-0.6737,-0.6521,-0.6122,-0.5958,-0.605,-0.6433,-0.6765,-0.7011,-0.7125,-0.7559,-0.7831,-0.7831,-0.8072,-0.8201,-0.8201,-0.7961,-0.7729,-0.7549,-0.7273,-0.7002,-0.6736,-0.6736,-0.691,0.0969,0.094,0.089,0.1028,0.1011,0.0,0.0,0.1106,0.1151,0.1252,0.1274,0.0,0.1232,0.1118,0.1029,0.0953,0.0682,0.0314,-0.0137,-0.0361,-0.0561,-0.087,-0.0898,-0.0898,-0.0898,-0.1093,-0.14,-0.1762,-0.2235,-0.2518,-0.2626,-0.283,-0.2805,-0.2484,-0.247,-0.2573,-0.2745,-0.1968,-0.1673,-0.1888,-0.1365,-0.1183,-0.1313,-0.1399,-0.145,-0.1467,-0.1764,-0.1872,-0.1852,-0.2479,-0.2798,-0.301,-0.3901,-0.4363,-0.4529,-0.4494,-0.4435,-0.4316,-0.4104,-0.404,-0.4186,-0.4705,-0.507,-0.5416,-0.5964,-0.6313,-0.6483,-0.6447,-0.641,-0.641,-0.6502,-0.6474,-0.6453,-0.6496,-0.6474,-0.6425,-0.6425,-0.6346,-0.631,-0.6407,-0.6325,-0.6258,-0.6279,-0.6258,-0.6339,-0.6614,-0.6612,-0.6581,-0.6596,-0.6439,-0.6133,-0.5597,-0.579,-0.603,-0.6169,-0.6804,-0.7107,-0.6924,-0.7351,-0.7642,-0.7729,-0.7841,-0.7856,-0.7768,-0.7656,-0.7451,-0.7125,-0.6816,-0.6589,-0.6452,-0.6452,-0.6528,0.1277,0.1264,0.1278,0.1388,0.0,0.0,0.1364,0.128,0.1225,0.1322,0.1328,0.1341,0.1381,0.1442,0.1399,0.115,0.1028,0.0797,0.0278,0.0084,-0.0168,-0.0617,-0.0673,-0.0729,-0.0898,-0.0898,-0.106,-0.1489,-0.1679,-0.1843,-0.2012,-0.2219,-0.2182,-0.1907,-0.1881,-0.1937,-0.2077,-0.1519,-0.1374,-0.1602,-0.1046,-0.0838,-0.0932,-0.1072,-0.1149,-0.1144,-0.1271,-0.1289,-0.1278,-0.17,-0.2045,-0.2381,-0.331,-0.3825,-0.403,-0.4129,-0.4115,-0.4012,-0.3858,-0.3818,-0.3899,-0.436,-0.4727,-0.5091,-0.5615,-0.6002,-0.6264,-0.6367,-0.6395,-0.6395,-0.6395,-0.6395,-0.6395,-0.6395,-0.6395,-0.6395,-0.6395,-0.6395,-0.6395,-0.6395,-0.6395,-0.6395,-0.6395,-0.6395,-0.6497,-0.678,-0.674,-0.6593,-0.6446,-0.6324,-0.6024,-0.5389,-0.5788,-0.6104,-0.6114,-0.681,-0.7111,-0.6815,-0.7105,-0.7296,-0.7348,-0.7436,-0.7436,-0.7348,-0.7249,-0.7056,-0.674,-0.6337,-0.6137,-0.6137,-0.6052,-0.616,0.1937,0.1954,0.2019,0.2076,0.0,0.0,0.196,0.155,0.1257,0.1375,0.1411,0.1411,0.1411,0.1509,0.1589,0.1591,0.1314,0.1094,0.1094,0.0701,0.0252,-0.014,-0.0196,-0.0364,-0.0842,-0.0897,-0.0885,-0.0881,-0.1382,-0.1438,-0.0833,-0.1362,-0.1407,-0.0813,-0.0735,-0.092,-0.1389,-0.0943,-0.0943,-0.1389,-0.092,-0.0726,-0.0805,-0.0801,-0.0789,-0.0787,-0.0732,-0.0764,-0.0944,-0.1391,-0.1943,-0.2536,-0.3012,-0.3101,-0.3056,-0.352,-0.3697,-0.37,-0.3622,-0.3641,-0.3766,-0.4162,-0.4294,-0.4469,-0.5416,-0.5696,-0.5787,-0.6255,-0.6395,-0.6395,-0.6395,-0.6395,-0.6395,-0.6395,-0.6395,-0.6395,-0.6395,-0.6395,-0.6395,-0.6395,-0.6395,-0.6395,-0.6395,-0.6395,-0.6517,-0.6851,-0.6943,-0.6879,-0.6547,-0.6554,-0.633,-0.5676,-0.603,-0.6332,-0.6384,-0.6848,-0.7015,-0.6806,-0.6799,-0.6747,-0.6612,-0.6852,-0.7002,-0.7002,-0.6732,-0.6535,-0.6398,-0.5867,-0.5672,-0.5796,-0.5531,-0.5875,0.1937,0.1986,0.2079,0.209,0.0,0.0,0.0,0.2317,0.0,0.0,0.1701,0.15,0.1411,0.1474,0.1541,0.1583,0.155,0.142,0.1147,0.0982,0.0729,0.028,0.0224,0.0168,0.0028,-0.0247,-0.0404,-0.0399,-0.0806,-0.0983,-0.0803,-0.0961,-0.0967,-0.0733,-0.0701,-0.0764,-0.0898,-0.0764,-0.0764,-0.0898,-0.0764,-0.0706,-0.0722,-0.0736,-0.0733,-0.0732,-0.0701,-0.0719,-0.0764,-0.0899,-0.1278,-0.1743,-0.199,-0.2435,-0.2943,-0.3145,-0.3391,-0.3619,-0.36,-0.3622,-0.3644,-0.3777,-0.4038,-0.436,-0.4622,-0.5178,-0.5717,-0.5873,-0.6147,-0.6395,-0.6395,-0.6395,-0.6395,-0.6395,-0.6395,-0.6395,-0.6395,-0.6395,-0.6395,-0.6395,-0.6395,-0.6395,-0.6395,-0.6395,-0.6517,-0.6851,-0.6723,-0.6475,-0.6194,-0.5839,-0.5588,-0.5541,-0.6032,-0.641,-0.6531,-0.7233,-0.7496,-0.7116,-0.7074,-0.6911,-0.6539,-0.6604,-0.6604,-0.6506,-0.6429,-0.626,-0.5975,-0.5819,-0.5757,-0.5796,-0.571,-0.5944,0.2299,0.2361,0.2472,0.269,0.2873,0.3058,0.3286,0.0,0.0,0.2333,0.2012,0.1724,0.1523,0.1484,0.1513,0.1549,0.1604,0.1585,0.1368,0.1347,0.1155,0.0687,0.0668,0.0582,0.0378,0.016,0.0026,0.0,-0.0225,-0.0339,-0.0327,-0.0466,-0.0461,-0.0269,-0.0427,-0.0494,-0.0494,-0.0494,-0.0562,-0.0697,-0.0697,-0.0697,-0.0697,-0.0697,-0.0697,-0.0697,-0.0697,-0.0697,-0.0697,-0.0697,-0.0876,-0.1144,-0.1412,-0.1967,-0.261,-0.2876,-0.3236,-0.3604,-0.3604,-0.3604,-0.3604,-0.3604,-0.3799,-0.4056,-0.4254,-0.4683,-0.5221,-0.5588,-0.5894,-0.6163,-0.6346,-0.6395,-0.6395,-0.6395,-0.6395,-0.6395,-0.6395,-0.6395,-0.6395,-0.6395,-0.6395,-0.6395,-0.6395,-0.6395,-0.6474,-0.6666,-0.6311,-0.5973,-0.5857,-0.5335,-0.5052,-0.5281,-0.5799,-0.6181,-0.6344,-0.7016,-0.7251,-0.6824,-0.6928,-0.6813,-0.6406,-0.6409,-0.6324,-0.6106,-0.6091,-0.5951,-0.5648,-0.5538,-0.5538,-0.5632,-0.5522,-0.578,0.2848,0.2905,0.3052,0.3573,0.3831,0.4055,0.4513,0.38,0.2965,0.2637,0.2368,0.2055,0.1703,0.1599,0.1572,0.1572,0.1624,0.1686,0.1742,0.1724,0.1565,0.1113,0.1118,0.0949,0.0457,0.044,0.0436,0.0359,0.0332,0.0326,0.0403,0.0045,0.0022,0.038,0.0045,-0.0135,-0.0135,-0.0135,-0.0292,-0.0607,-0.0629,-0.0652,-0.0652,-0.0697,-0.0697,-0.0697,-0.0697,-0.0697,-0.0697,-0.0697,-0.0697,-0.0742,-0.1166,-0.1633,-0.2099,-0.2632,-0.3126,-0.3534,-0.3578,-0.3604,-0.3604,-0.3604,-0.3604,-0.3689,-0.41,-0.4276,-0.4469,-0.5329,-0.5631,-0.5809,-0.6233,-0.6367,-0.6395,-0.6395,-0.6395,-0.6395,-0.6395,-0.6395,-0.6395,-0.6395,-0.6395,-0.6395,-0.6395,-0.6395,-0.6395,-0.6389,-0.5833,-0.5463,-0.5565,-0.5033,-0.4753,-0.4998,-0.545,-0.5812,-0.6012,-0.6441,-0.6575,-0.6254,-0.6554,-0.6584,-0.6262,-0.6272,-0.6144,-0.5816,-0.5777,-0.5629,-0.5358,-0.5112,-0.5128,-0.5358,-0.5144,-0.5475,0.2796,0.2942,0.318,0.3664,0.4044,0.4382,0.4682,0.4487,0.4045,0.3337,0.294,0.2568,0.2085,0.2015,0.2044,0.2044,0.2111,0.2147,0.2087,0.1992,0.1866,0.166,0.1543,0.1438,0.134,0.1039,0.0873,0.0858,0.0554,0.0384,0.0403,0.0313,0.0313,0.0403,0.0313,0.0269,0.0269,0.0269,0.0224,0.0157,-0.0157,-0.0315,-0.0315,-0.0584,-0.0697,-0.0697,-0.0697,-0.0697,-0.0697,-0.0697,-0.0697,-0.0719,-0.0809,-0.1144,-0.1611,-0.2099,-0.261,-0.3101,-0.3464,-0.3604,-0.3604,-0.3604,-0.3604,-0.3622,-0.3711,-0.4012,-0.4338,-0.4556,-0.5135,-0.5717,-0.583,-0.612,-0.6395,-0.6395,-0.6395,-0.6395,-0.6395,-0.6395,-0.6395,-0.6395,-0.6395,-0.6395,-0.6395,-0.6395,-0.6367,-0.6249,-0.5864,-0.5513,-0.5382,-0.5199,-0.509,-0.5149,-0.562,-0.6009,-0.6224,-0.6524,-0.6679,-0.6594,-0.6899,-0.6936,-0.6598,-0.6349,-0.612,-0.5886,-0.5611,-0.5356,-0.5087,-0.5023,-0.5023,-0.5087,-0.5232,-0.5562,0.2756,0.2946,0.0,0.3832,0.0,0.4596,0.4847,0.4849,0.4578,0.3807,0.3363,0.2943,0.2306,0.2166,0.215,0.215,0.219,0.2209,0.2198,0.2134,0.2061,0.2012,0.197,0.1889,0.1799,0.1574,0.1394,0.1297,0.1042,0.0873,0.0873,0.0716,0.0716,0.0873,0.0716,0.0649,0.0649,0.0649,0.0559,0.0403,0.0179,-0.0022,-0.0202,-0.0539,-0.0697,-0.0697,-0.0697,-0.0697,-0.0697,-0.0697,-0.0697,-0.0697,-0.0697,-0.1121,-0.1767,-0.201,-0.2591,-0.3262,-0.3512,-0.3604,-0.3604,-0.3604,-0.3604,-0.3604,-0.3604,-0.3777,-0.4012,-0.4232,-0.4814,-0.5416,-0.5631,-0.6056,-0.6395,-0.6395,-0.6395,-0.6395,-0.6395,-0.6395,-0.6395,-0.6395,-0.6395,-0.6395,-0.6395,-0.6346,-0.6276,-0.6206,-0.5822,-0.5522,-0.5445,-0.5263,-0.5179,-0.5287,-0.5549,-0.5803,-0.5994,-0.6144,-0.6285,-0.6456,-0.6632,-0.6716,-0.6705,-0.6373,-0.6156,-0.6056,-0.5717,-0.5423,-0.5148,-0.5049,-0.4999,-0.4999,-0.5106,-0.5336,0.2693,0.2979,0.3357,0.3999,0.4445,0.0,0.4912,0.4983,0.4788,0.4056,0.3675,0.3274,0.2549,0.2308,0.2243,0.2243,0.2243,0.2246,0.2271,0.2258,0.2235,0.2211,0.2251,0.2193,0.2031,0.1967,0.1862,0.1708,0.1591,0.1523,0.15,0.1208,0.1164,0.1433,0.1141,0.0985,0.0985,0.0985,0.085,0.0582,0.0447,0.0179,-0.0202,-0.0539,-0.0697,-0.0697,-0.0697,-0.0697,-0.0697,-0.0697,-0.0697,-0.0697,-0.0787,-0.1299,-0.201,-0.2166,-0.2768,-0.349,-0.3578,-0.3604,-0.3604,-0.3604,-0.3604,-0.3604,-0.3604,-0.3604,-0.3689,-0.4082,-0.4574,-0.5091,-0.548,-0.5992,-0.6395,-0.6395,-0.6395,-0.6395,-0.6395,-0.6395,-0.6395,-0.6395,-0.6395,-0.6395,-0.6395,-0.6276,-0.6163,-0.6163,-0.5732,-0.5449,-0.5512,-0.5269,-0.5147,-0.5338,-0.5412,-0.5521,-0.5685,-0.5701,-0.5825,-0.6099,-0.6163,-0.6328,-0.6598,-0.6349,-0.6206,-0.6206,-0.5832,-0.5463,-0.5128,-0.5012,-0.4939,-0.4881,-0.4849,-0.5,0.2531,0.0,0.3691,0.0,0.4375,0.4714,0.0,0.0,0.4788,0.4056,0.3858,0.3638,0.2954,0.2801,0.2801,0.2801,0.2801,0.2762,0.2638,0.2525,0.2411,0.2299,0.2201,0.2112,0.2089,0.2076,0.2056,0.2042,0.202,0.1973,0.1928,0.177,0.1636,0.1569,0.1411,0.1344,0.1344,0.1344,0.1321,0.1254,0.0671,0.0179,-0.0202,-0.0539,-0.0697,-0.0697,-0.0697,-0.0697,-0.0697,-0.0697,-0.0697,-0.0742,-0.1144,-0.1389,-0.1588,-0.2477,-0.2876,-0.3056,-0.3464,-0.3604,-0.3604,-0.3604,-0.3604,-0.3604,-0.3604,-0.3604,-0.3604,-0.3667,-0.4316,-0.5009,-0.5075,-0.5755,-0.6395,-0.6395,-0.6395,-0.6395,-0.6395,-0.6395,-0.6395,-0.6395,-0.6395,-0.6395,-0.6395,-0.6196,-0.6019,-0.6019,-0.5486,-0.5096,-0.5157,-0.5084,-0.5035,-0.5132,-0.546,-0.5663,-0.5696,-0.5701,-0.5723,-0.5761,-0.6034,-0.6221,-0.6264,-0.6221,-0.6192,-0.6205,-0.5647,-0.504,-0.4433,-0.4692,-0.4677,-0.4403,-0.4566,-0.4698,0.2811,0.3141,0.3461,0.0,0.4159,0.4375,0.4632,0.476,0.4711,0.4278,0.4034,0.3704,0.3023,0.289,0.289,0.289,0.289,0.289,0.2821,0.2754,0.2709,0.264,0.2576,0.2509,0.2442,0.2375,0.2284,0.2217,0.2152,0.2087,0.2064,0.1997,0.1951,0.1884,0.1817,0.1772,0.1725,0.1658,0.1547,0.1389,0.0918,0.0493,0.0134,-0.0247,-0.0517,-0.0697,-0.0697,-0.0697,-0.0697,-0.0697,-0.0697,-0.0719,-0.092,-0.1166,-0.1478,-0.2188,-0.2632,-0.2965,-0.3442,-0.3604,-0.3604,-0.3604,-0.3604,-0.3604,-0.3604,-0.3604,-0.3604,-0.3604,-0.4078,-0.4596,-0.4596,-0.5096,-0.562,-0.562,-0.562,-0.562,-0.562,-0.597,-0.6276,-0.6196,-0.6175,-0.6175,-0.6175,-0.6019,-0.5884,-0.5884,-0.5378,-0.5084,-0.5292,-0.5124,-0.5084,-0.5292,-0.5546,-0.5701,-0.5701,-0.5701,-0.5788,-0.597,-0.5954,-0.5992,-0.62,-0.5884,-0.569,-0.569,-0.5323,-0.4996,-0.4697,-0.4418,-0.4304,-0.4308,-0.4352,-0.4425,0.3019,0.0,0.3237,0.3784,0.3962,0.4084,0.0,0.4608,0.4624,0.4371,0.4156,0.3818,0.3154,0.2957,0.289,0.289,0.289,0.289,0.289,0.289,0.289,0.289,0.289,0.2868,0.2754,0.2668,0.258,0.2462,0.2375,0.2314,0.2243,0.2219,0.2196,0.2152,0.2109,0.2087,0.202,0.1906,0.1725,0.15,0.1119,0.0805,0.0514,0.0022,-0.0337,-0.0584,-0.0652,-0.0697,-0.0697,-0.0697,-0.0697,-0.0719,-0.0831,-0.1099,-0.1456,-0.1921,-0.2344,-0.2765,-0.3262,-0.342,-0.3442,-0.3556,-0.3604,-0.3604,-0.3604,-0.3604,-0.3604,-0.3604,-0.395,-0.4294,-0.4294,-0.4639,-0.5009,-0.5009,-0.5009,-0.4983,-0.4961,-0.5416,-0.583,-0.5777,-0.5798,-0.5841,-0.5927,-0.5857,-0.5766,-0.5642,-0.5161,-0.4923,-0.5231,-0.5009,-0.4988,-0.5404,-0.5609,-0.5701,-0.5701,-0.5701,-0.5804,-0.6056,-0.5847,-0.5809,-0.6056,-0.5566,-0.5306,-0.5306,-0.4884,-0.4661,-0.4679,-0.4126,-0.3898,-0.4027,-0.395,-0.3985,0.2896,0.305,0.0,0.3616,0.3864,0.4005,0.0,0.438,0.4582,0.4197,0.4261,0.417,0.3508,0.3112,0.289,0.289,0.289,0.289,0.289,0.289,0.289,0.289,0.289,0.289,0.289,0.2948,0.2944,0.2876,0.2928,0.2871,0.267,0.2551,0.2415,0.2304,0.2174,0.2087,0.2087,0.202,0.1928,0.1772,0.1321,0.1007,0.0851,0.0135,-0.0202,-0.0247,-0.0562,-0.0697,-0.0697,-0.0697,-0.0697,-0.0742,-0.1188,-0.1389,-0.1456,-0.1921,-0.2121,-0.221,-0.2743,-0.2943,-0.3012,-0.3464,-0.3604,-0.3604,-0.3604,-0.3604,-0.3604,-0.3604,-0.395,-0.4294,-0.4294,-0.4639,-0.5009,-0.5009,-0.5009,-0.4961,-0.4848,-0.4843,-0.4935,-0.5118,-0.5248,-0.5437,-0.5744,-0.5814,-0.5658,-0.521,-0.4688,-0.4403,-0.4618,-0.4469,-0.4583,-0.5241,-0.555,-0.5701,-0.5701,-0.5701,-0.5701,-0.5723,-0.5701,-0.5701,-0.5723,-0.5458,-0.5306,-0.5306,-0.4294,-0.3763,-0.3763,-0.3734,-0.3554,-0.3268,-0.3191,-0.3227,0.2751,0.0,0.0,0.3461,0.3752,0.4,0.4,0.4262,0.4508,0.4493,0.4348,0.418,0.4059,0.3774,0.3464,0.3265,0.322,0.322,0.322,0.3043,0.289,0.289,0.289,0.289,0.289,0.2928,0.2914,0.2893,0.2956,0.2958,0.2892,0.2931,0.292,0.2872,0.2738,0.2578,0.235,0.2239,0.2127,0.1997,0.1772,0.15,0.1141,0.0784,0.0337,-0.0202,-0.0337,-0.0494,-0.0697,-0.0697,-0.0697,-0.0719,-0.0876,-0.0943,-0.101,-0.1478,-0.1655,-0.1722,-0.221,-0.2388,-0.2477,-0.299,-0.3148,-0.3214,-0.3512,-0.3604,-0.3604,-0.3604,-0.3667,-0.3726,-0.3726,-0.3788,-0.3851,-0.3851,-0.3851,-0.3803,-0.3668,-0.4194,-0.4722,-0.4884,-0.5009,-0.5118,-0.5145,-0.5226,-0.514,-0.4721,-0.4185,-0.3976,-0.4358,-0.4073,-0.4027,-0.4487,-0.4888,-0.5149,-0.5253,-0.5448,-0.5609,-0.5701,-0.5701,-0.5615,-0.5458,-0.5224,-0.4937,-0.4535,-0.3763,-0.348,-0.3697,-0.3192,-0.2948,-0.2998,-0.2972,-0.2842,0.2688,0.299,0.0,0.0,0.3644,0.3831,0.3972,0.413,0.4314,0.4447,0.438,0.431,0.429,0.417,0.3928,0.3464,0.3309,0.3243,0.3243,0.3043,0.289,0.289,0.289,0.289,0.289,0.2926,0.2934,0.2893,0.2956,0.2984,0.2967,0.3061,0.3101,0.3101,0.3042,0.2871,0.2642,0.2504,0.2373,0.2241,0.2152,0.1904,0.1569,0.1366,0.0919,0.0314,0.0296,-0.0045,-0.0629,-0.0629,-0.0629,-0.063,-0.0662,-0.0683,-0.0743,-0.1071,-0.118,-0.1233,-0.17,-0.1854,-0.1943,-0.2433,-0.2608,-0.2721,-0.317,-0.3328,-0.3398,-0.3556,-0.3512,-0.3398,-0.3398,-0.3306,-0.3192,-0.3192,-0.3192,-0.317,-0.3034,-0.3561,-0.4154,-0.4447,-0.4644,-0.4748,-0.4731,-0.4879,-0.4794,-0.4225,-0.3831,-0.3687,-0.3955,-0.376,-0.3737,-0.4067,-0.4425,-0.467,-0.4748,-0.5079,-0.528,-0.5323,-0.5458,-0.5436,-0.5203,-0.498,-0.4626,-0.4111,-0.3498,-0.317,-0.312,-0.2457,-0.2148,-0.217,-0.217,-0.2003,0.0,0.0,0.0,0.3597,0.3546,0.3524,0.3901,0.399,0.3995,0.4,0.4356,0.4559,0.4176,0.4248,0.4154,0.3502,0.3132,0.2912,0.2912,0.2912,0.289,0.289,0.289,0.289,0.289,0.2951,0.2972,0.2898,0.2956,0.2975,0.2901,0.2898,0.2898,0.2895,0.2964,0.2967,0.289,0.2776,0.264,0.2504,0.237,0.2237,0.2109,0.1773,0.1503,0.1304,0.1308,0.0652,-0.0429,-0.0451,-0.0474,-0.0476,-0.0566,-0.063,-0.0701,-0.0777,-0.0769,-0.0764,-0.1211,-0.1366,-0.1433,-0.1854,-0.201,-0.2144,-0.2541,-0.2785,-0.299,-0.3442,-0.349,-0.3398,-0.3398,-0.3284,-0.3192,-0.3192,-0.3192,-0.3148,-0.3034,-0.299,-0.3167,-0.377,-0.41,-0.4338,-0.453,-0.4787,-0.4639,-0.3722,-0.359,-0.3527,-0.3401,-0.3508,-0.37,-0.4027,-0.4184,-0.4276,-0.4272,-0.4583,-0.4731,-0.4618,-0.4971,-0.5133,-0.4985,-0.4731,-0.4439,-0.4089,-0.3476,-0.2768,-0.1964,-0.1588,-0.1164,-0.0693,-0.0693,-0.0693,0.279,0.0,0.0,0.0,0.0,0.0,0.3794,0.3784,0.3827,0.3972,0.3981,0.3993,0.403,0.3834,0.3591,0.3308,0.3262,0.3265,0.3265,0.3046,0.289,0.289,0.289,0.289,0.289,0.292,0.2926,0.2893,0.2956,0.2986,0.2978,0.3053,0.3082,0.2978,0.2984,0.2967,0.289,0.2868,0.2821,0.2798,0.2662,0.2529,0.2375,0.2286,0.2034,0.1662,0.1753,0.1501,0.0975,0.044,0.022,0.0171,-0.0396,-0.0583,-0.0565,-0.0738,-0.0769,-0.0697,-0.0741,-0.0741,-0.0807,-0.1208,-0.1364,-0.1453,-0.1919,-0.2322,-0.2637,-0.2773,-0.2948,-0.3103,-0.3043,-0.3021,-0.2976,-0.2976,-0.2976,-0.2976,-0.2932,-0.2932,-0.3043,-0.3464,-0.3678,-0.3785,-0.3744,-0.3873,-0.3799,-0.3259,-0.3158,-0.3158,-0.3115,-0.3135,-0.3193,-0.323,-0.3483,-0.3682,-0.3785,-0.4092,-0.4377,-0.4596,-0.4705,-0.4748,-0.4709,-0.4639,-0.4246,-0.3454,-0.2962,-0.2162,-0.105,-0.1298,-0.1164,-0.0693,-0.0358,-0.0313,0.2916,0.3227,0.3564,0.3527,0.0,0.0,0.3817,0.3695,0.3606,0.3719,0.3724,0.3742,0.3854,0.3699,0.3544,0.3459,0.3392,0.3369,0.3404,0.3112,0.2957,0.3087,0.2979,0.289,0.289,0.289,0.289,0.289,0.2933,0.2951,0.2951,0.3061,0.3069,0.2953,0.2976,0.2967,0.289,0.289,0.289,0.289,0.2849,0.2781,0.2715,0.2775,0.2604,0.2267,0.244,0.2383,0.2135,0.157,0.1047,0.0529,0.0101,-0.0222,-0.0478,-0.0598,-0.0606,-0.0562,-0.0494,-0.045,-0.0494,-0.0673,-0.0762,-0.0874,-0.1297,-0.1654,-0.1967,-0.2146,-0.2299,-0.243,-0.2549,-0.2573,-0.2618,-0.2845,-0.289,-0.289,-0.289,-0.289,-0.3001,-0.3331,-0.3502,-0.3565,-0.342,-0.3502,-0.3462,-0.3029,-0.2951,-0.2951,-0.2951,-0.2951,-0.2947,-0.2898,-0.3068,-0.322,-0.3306,-0.3565,-0.3785,-0.3913,-0.4027,-0.4074,-0.4027,-0.4027,-0.3697,-0.2996,-0.2519,-0.1671,-0.0403,-0.0693,-0.0582,-0.0112,0.0157,0.0179,0.3096,0.3236,0.3481,0.3658,0.3564,0.0,0.3887,0.3667,0.3406,0.3429,0.355,0.366,0.3651,0.3703,0.3748,0.3731,0.3464,0.3304,0.342,0.3177,0.3095,0.3417,0.3154,0.2957,0.2957,0.2912,0.2912,0.2957,0.3001,0.3001,0.3001,0.306,0.3072,0.3004,0.3063,0.3069,0.3001,0.3001,0.3001,0.3001,0.306,0.3071,0.3076,0.3167,0.3096,0.2951,0.3134,0.3144,0.3026,0.275,0.1942,0.0918,0.0766,0.03,-0.029,-0.0361,-0.0398,-0.0407,-0.0382,-0.0382,-0.036,-0.0225,-0.0247,-0.0404,-0.0717,-0.0918,-0.1164,-0.163,-0.1673,-0.165,-0.1943,-0.2032,-0.2146,-0.2684,-0.2821,-0.2821,-0.289,-0.289,-0.2979,-0.3287,-0.3435,-0.348,-0.3376,-0.3435,-0.3391,-0.2954,-0.2901,-0.2881,-0.2823,-0.2831,-0.2814,-0.2734,-0.2754,-0.2779,-0.2798,-0.2973,-0.3081,-0.3012,-0.3217,-0.3309,-0.3214,-0.3192,-0.3037,-0.2709,-0.2146,-0.1183,0.0157,0.0112,0.0291,0.0697,0.0697,0.0697,0.332,0.348,0.3653,0.3695,0.3672,0.0,0.3742,0.3569,0.3448,0.3606,0.3536,0.3437,0.3379,0.3386,0.3362,0.3248,0.318,0.3234,0.3509,0.351,0.3538,0.3778,0.3508,0.3309,0.3309,0.3068,0.3023,0.3287,0.3553,0.3707,0.3707,0.3713,0.3713,0.3707,0.3713,0.3713,0.3707,0.3707,0.3707,0.3707,0.3559,0.3483,0.3466,0.3284,0.3168,0.3151,0.3299,0.3353,0.3329,0.337,0.2952,0.2191,0.1126,0.0619,0.0416,-0.0177,-0.039,-0.0376,-0.0273,-0.0247,-0.0225,-0.009,-0.0067,-0.009,-0.0157,-0.0448,-0.0873,-0.1343,-0.1454,-0.1454,-0.1521,-0.1545,-0.1655,-0.2146,-0.2257,-0.237,-0.2798,-0.289,-0.2912,-0.2979,-0.3021,-0.3021,-0.3001,-0.3021,-0.2998,-0.2912,-0.2952,-0.2812,-0.2312,-0.2346,-0.2204,-0.1663,-0.186,-0.2061,-0.2166,-0.2368,-0.2635,-0.2987,-0.2996,-0.3065,-0.3192,-0.3192,-0.3037,-0.2709,-0.1542,-0.0268,0.1119,0.074,0.0607,0.0697,0.0697,0.0697,0.3899,0.3923,0.3923,0.3831,0.3754,0.0,0.0,0.3541,0.3429,0.3522,0.3472,0.3389,0.3355,0.3426,0.3473,0.3411,0.3389,0.3455,0.3618,0.3528,0.3545,0.3815,0.3558,0.3399,0.3492,0.3352,0.336,0.3634,0.3814,0.3902,0.3902,0.3902,0.3902,0.3902,0.3902,0.3902,0.3902,0.3902,0.3902,0.3906,0.3694,0.3598,0.3584,0.3399,0.325,0.3196,0.3284,0.3343,0.34,0.34,0.3273,0.2938,0.1711,0.1053,0.0721,0.0049,-0.0212,-0.0185,-0.0113,-0.009,-0.009,-0.0022,0.0,0.0,0.0,-0.0157,-0.0403,-0.0628,-0.0695,-0.0762,-0.0985,-0.1052,-0.1164,-0.1633,-0.1744,-0.1834,-0.2105,-0.2326,-0.2437,-0.2194,-0.2553,-0.289,-0.289,-0.289,-0.289,-0.289,-0.2919,-0.2751,-0.2172,-0.2162,-0.1967,-0.1369,-0.1456,-0.1612,-0.1789,-0.1902,-0.2125,-0.2573,-0.2576,-0.2598,-0.2687,-0.2709,-0.2395,-0.1722,-0.0804,0.0334,0.1739,0.1739,0.163,0.1389,0.1389,0.1389,0.4576,0.4515,0.4432,0.4208,0.4066,0.3978,0.0,0.0,0.0,0.3564,0.3518,0.3493,0.3462,0.3588,0.3721,0.3787,0.3798,0.3831,0.3896,0.3686,0.3594,0.382,0.3571,0.3465,0.3615,0.3646,0.3718,0.393,0.4006,0.4065,0.41,0.41,0.41,0.41,0.41,0.41,0.41,0.41,0.41,0.4104,0.3901,0.3785,0.3795,0.3568,0.3414,0.3318,0.3268,0.3294,0.336,0.3284,0.3297,0.3279,0.2307,0.1571,0.095,0.035,0.0068,0.0,0.0,0.0,0.0,0.0,0.0,0.0,0.0,0.0,0.0,0.0,0.0,-0.009,-0.047,-0.056,-0.0694,-0.1164,-0.1254,-0.1299,-0.1389,-0.17,-0.1856,-0.1478,-0.2061,-0.2642,-0.2732,-0.2821,-0.289,-0.289,-0.289,-0.2662,-0.2057,-0.1966,-0.1721,-0.1052,-0.1053,-0.1165,-0.1321,-0.1433,-0.1681,-0.2064,-0.2131,-0.2176,-0.2201,-0.2201,-0.1725,-0.0716,-0.0245,0.0733,0.2244,0.2708,0.2755,0.2361,0.2275,0.223,0.5081,0.5309,0.545,0.5137,0.5043,0.4966,0.4724,0.0,0.4263,0.4141,0.0,0.3803,0.3684,0.0,0.0,0.4097,0.4145,0.4274,0.4622,0.4437,0.4207,0.3996,0.3829,0.3752,0.3772,0.3772,0.3865,0.4061,0.4408,0.4677,0.4867,0.4876,0.4876,0.4876,0.4876,0.4876,0.4876,0.4876,0.4876,0.4876,0.461,0.4481,0.4466,0.3986,0.3758,0.3723,0.3488,0.3327,0.322,0.3341,0.3324,0.3173,0.2639,0.2046,0.1451,0.084,0.0355,0.0,0.0,0.0,0.0,0.0,0.0,0.0,0.0,0.0,0.0,0.0,0.0,-0.0022,-0.0067,-0.009,-0.0202,-0.0672,-0.0783,-0.0895,-0.1321,-0.1433,-0.1456,-0.1411,-0.15,-0.1701,-0.2123,-0.2595,-0.289,-0.289,-0.289,-0.2553,-0.1612,-0.1478,-0.1052,0.009,-0.0112,-0.0337,-0.0358,-0.0851,-0.1299,-0.1636,-0.1884,-0.2087,-0.2201,-0.2201,-0.1725,-0.0716,-0.0245,0.0888,0.2728,0.3246,0.3444,0.3325,0.2907,0.273,0.5199,0.531,0.5357,0.5086,0.4964,0.4888,0.481,0.4718,0.4612,0.4558,0.0,0.0,0.0,0.0,0.0,0.0,0.4542,0.4553,0.456,0.4612,0.4507,0.416,0.397,0.3876,0.3903,0.406,0.4182,0.4263,0.443,0.4623,0.4807,0.4822,0.4879,0.5002,0.5011,0.5011,0.5011,0.5011,0.5011,0.4985,0.4643,0.4471,0.4461,0.4,0.3768,0.368,0.3471,0.3333,0.3196,0.3273,0.3199,0.3075,0.2854,0.2471,0.1937,0.1329,0.0988,0.0781,0.0496,0.0403,0.0359,0.009,0.0,0.0,0.0,0.0,0.0,0.0,0.0,0.0,0.0,0.0,-0.0045,-0.0247,-0.0292,-0.0359,-0.0538,-0.0807,-0.0918,-0.065,-0.0986,-0.1298,-0.1184,-0.1832,-0.2415,-0.2529,-0.2393,-0.2012,-0.132,-0.0985,-0.0493,0.0359,0.0315,0.0157,0.0045,-0.0448,-0.094,-0.1389,-0.1861,-0.2131,-0.2201,-0.2201,-0.1725,-0.0716,0.0022,0.1331,0.3212,0.4011,0.4674,0.5151,0.4146,0.3664,0.5457,0.5459,0.5456,0.5282,0.5163,0.5086,0.5071,0.5078,0.5086,0.5076,0.5084,0.0,0.0,0.0,0.5059,0.0,0.0,0.5014,0.481,0.4893,0.4783,0.4308,0.4092,0.3983,0.397,0.4115,0.4233,0.429,0.4295,0.4385,0.4614,0.4676,0.4755,0.4917,0.4978,0.5011,0.5011,0.5011,0.5011,0.4985,0.4696,0.4565,0.4556,0.4239,0.3976,0.3791,0.3677,0.3484,0.3239,0.3207,0.3126,0.3,0.2988,0.2763,0.24,0.1809,0.1499,0.1344,0.1007,0.0895,0.0806,0.0337,0.0202,0.0157,0.0045,0.0,0.0,0.0,0.0,0.0,0.0,0.0,0.0,0.0,0.0,0.0,0.0,-0.0269,-0.0403,-0.0067,-0.0471,-0.0784,-0.047,-0.1163,-0.181,-0.1945,-0.1765,-0.1429,-0.0962,-0.0604,-0.0179,0.0427,0.0494,0.045,0.0337,-0.0157,-0.0738,-0.1389,-0.1906,-0.2201,-0.2201,-0.2064,-0.1569,-0.0716,0.0357,0.1687,0.3303,0.4452,0.5421,0.619,0.5188,0.4644,0.6033,0.6112,0.6222,0.6103,0.6059,0.5997,0.5807,0.5819,0.5845,0.5773,0.5825,0.5825,0.5701,0.5664,0.0,0.0,0.0,0.0,0.0,0.5547,0.5142,0.4474,0.4274,0.4113,0.3912,0.3801,0.3803,0.3995,0.4009,0.4126,0.4399,0.46,0.4709,0.4714,0.4898,0.5011,0.5011,0.5011,0.5011,0.5011,0.4985,0.4985,0.4977,0.4912,0.4656,0.4271,0.4211,0.3878,0.3387,0.3242,0.3126,0.2992,0.2919,0.2895,0.2826,0.2279,0.1789,0.1389,0.1389,0.1389,0.1299,0.0827,0.0671,0.0582,0.0135,0.0,0.0,0.0,0.0,0.0,0.0,0.0,0.0,0.0,0.0,0.0,0.0,-0.0022,-0.0022,0.0,0.009,0.0067,-0.0157,-0.0717,-0.1141,-0.1141,-0.1119,-0.0962,-0.0492,-0.0403,-0.0179,0.0427,0.0494,0.0539,0.0674,0.0022,-0.0805,-0.1725,-0.2042,-0.2201,-0.2201,-0.1703,-0.1186,-0.0716,0.0669,0.1845,0.2816,0.4295,0.5243,0.5717,0.5744,0.5507,0.6355,0.6456,0.6504,0.6232,0.6066,0.5882,0.56,0.5722,0.5837,0.5588,0.602,0.6365,0.6145,0.6246,0.0,0.0,0.0,0.0,0.0,0.5718,0.5512,0.5108,0.479,0.4574,0.4494,0.4296,0.4223,0.4382,0.4117,0.4075,0.4385,0.4471,0.4566,0.47,0.4898,0.5011,0.5011,0.5011,0.5011,0.5011,0.5011,0.5011,0.4999,0.4936,0.4685,0.4303,0.4217,0.3884,0.3392,0.3245,0.3126,0.2989,0.2914,0.289,0.2868,0.2687,0.2529,0.235,0.199,0.1655,0.1366,0.1208,0.1164,0.1141,0.0963,0.0919,0.0919,0.0919,0.0919,0.0947,0.1044,0.077,0.049,0.0584,0.028,0.0023,0.0113,0.0135,0.0157,0.0247,0.0337,0.036,0.027,0.0157,-0.009,-0.0627,-0.0514,-0.0313,-0.0157,0.0134,0.0404,0.0607,0.0629,0.0652,0.0697,-0.009,-0.094,-0.1748,-0.2042,-0.2042,-0.1681,-0.15,-0.103,-0.0246,0.0937,0.1958,0.2794,0.4321,0.5313,0.5766,0.6206,0.5927,0.6498,0.6609,0.6695,0.6521,0.6479,0.635,0.5871,0.607,0.624,0.584,0.6357,0.6866,0.6815,0.6951,0.6925,0.0,0.0,0.0,0.0,0.5796,0.5733,0.5562,0.5217,0.4947,0.4852,0.4546,0.4413,0.4519,0.4112,0.3963,0.421,0.4337,0.4466,0.4595,0.486,0.5011,0.5011,0.5011,0.5011,0.5011,0.5011,0.5045,0.5108,0.5133,0.4969,0.4636,0.4509,0.4157,0.3661,0.3337,0.315,0.3069,0.2953,0.289,0.289,0.289,0.289,0.2845,0.2504,0.2192,0.1902,0.17,0.1673,0.1693,0.1512,0.1503,0.1543,0.1543,0.1543,0.1552,0.1641,0.1384,0.1117,0.119,0.089,0.0615,0.0738,0.0725,0.0739,0.0874,0.0963,0.0987,0.0807,0.0876,0.0718,0.0022,0.0112,0.0247,0.0247,0.0516,0.0697,0.0697,0.0697,0.0652,0.0539,-0.0067,-0.0716,-0.1299,-0.1547,-0.15,-0.1164,-0.0985,-0.0514,0.0313,0.1316,0.2206,0.2956,0.443,0.5334,0.5637,0.6361,0.6276]}]]